[[{"header":{"parameterUnit":"m.s-1","parameterCategory":1,"la1":30.6,"la2":29.2853,"lo1":-89.7004,"lo2":-87.6739,"dy":0.0162,"dx":0.0183,"nx":112,"ny":82,"refTime":"2024-07-04T06:00:00:Z","depth":0,"parameterNumber":2,"parameterNumberName":"U-component_of_WINDS"},"data":[0.0,0.0,0.0,0.0,0.0,0.0,0.0,0.0,0.0,0.0,0.0,0.0,0.0,0.0,0.0,0.0,0.0,0.0,0.0,0.0,0.0,0.0,0.0,0.0,0.0,0.0,0.0,0.0,0.0,0.0,0.0,0.0,0.0,0.0,0.0,0.0,0.0,0.0,0.0,0.0,0.0,0.0,0.0,0.0,0.0,0.0,0.0,0.0,0.0,0.0,0.0,0.0,0.0,0.0,0.0,0.0,0.0,0.0,0.0,0.0,0.0,0.0,0.0,0.0,0.0,0.0,0.0,0.0,0.0,0.0,0.0,0.0,0.0,0.0,0.0,0.0,0.0,0.0,0.0,0.0,0.0,0.0,0.0,0.0,0.0,0.0,0.0,0.0,0.0,0.0,-0.8257,-0.987,-1.1314,-1.2299,-1.2675,-1.2484,-1.1832,-1.0592,0.0,0.0,0.0,0.0,0.0,0.0,0.0,0.0,0.0,0.0,0.0,0.0,0.0,0.0,0.0,0.0,0.0,0.0,0.0,0.0,0.0,0.0,0.0,0.0,0.0,0.0,0.0,0.0,0.0,0.0,0.0,0.0,0.0,0.0,0.0,0.0,0.0,0.0,0.0,0.0,0.0,0.0,0.0,0.0,0.0,0.0,0.0,0.0,0.0,0.0,0.0,0.0,0.0,0.0,0.0,0.0,0.0,0.0,0.0,0.0,0.0,0.0,0.0,0.0,0.0,0.0,0.0,0.0,0.0,0.0,0.0,0.0,0.0,0.0,0.0,0.0,0.0,0.0,0.0,0.0,0.0,0.0,0.0,0.0,0.0,0.0,0.0,0.0,0.0,0.0,0.0,0.0,0.0,0.0,0.0,0.0,0.0,0.0,0.0,0.0,0.0,0.0,0.0,0.0,-0.9116,-1.1335,-1.2344,-1.3051,-1.3553,-1.326,-1.2346,-1.0696,0.0,0.0,0.0,0.0,0.0,0.0,0.0,0.0,0.0,0.0,0.0,0.0,0.0,0.0,0.0,0.0,0.0,0.0,0.0,0.0,0.0,0.0,0.0,0.0,0.0,0.0,0.0,0.0,0.0,0.0,0.0,0.0,0.0,0.0,0.0,0.0,0.0,0.0,0.0,0.0,0.0,0.0,0.0,0.0,0.0,0.0,0.0,0.0,0.0,0.0,0.0,0.0,0.0,0.0,0.0,0.0,0.0,0.0,0.0,0.0,0.0,0.0,0.0,0.0,0.0,0.0,0.0,0.0,0.0,0.0,0.0,0.0,0.0,0.0,0.0,0.0,0.0,0.0,0.0,0.0,0.0,0.0,0.0,0.0,0.0,0.0,0.0,0.0,0.0,0.0,0.0,0.0,0.0,0.0,0.0,0.0,0.0,0.0,0.0,0.0,0.0,0.0,0.0,-0.9326,-1.0573,-1.1714,-1.2865,-1.3718,-1.4133,-1.3608,-1.2623,-1.1129,-1.0184,0.0,0.0,0.0,0.0,0.0,0.0,0.0,0.0,0.0,0.0,0.0,0.0,0.0,0.0,0.0,0.0,0.0,0.0,0.0,0.0,0.0,0.0,0.0,0.0,0.0,0.0,0.0,0.0,0.0,0.0,0.0,0.0,0.0,0.0,0.0,0.0,0.0,0.0,0.0,0.0,0.0,0.0,0.0,0.0,0.0,0.0,0.0,0.0,0.0,0.0,0.0,0.0,0.0,0.0,0.0,0.0,0.0,0.0,0.0,0.0,0.0,0.0,0.0,0.0,0.0,0.0,0.0,0.0,0.0,0.0,0.0,0.0,0.0,0.0,0.0,0.0,0.0,0.0,0.0,0.0,0.0,0.0,0.0,0.0,0.0,0.0,0.0,0.0,0.0,0.0,0.0,0.0,0.0,0.0,0.0,0.0,0.0,0.0,0.0,0.0,0.0,0.0,-1.0292,-1.1657,-1.1823,-1.3126,-1.4137,-1.4547,-1.3792,-1.2786,-1.1554,-1.0394,0.0,0.0,0.0,0.0,0.0,0.0,0.0,0.0,0.0,0.0,0.0,0.0,0.0,0.0,0.0,0.0,0.0,0.0,0.0,0.0,0.0,0.0,0.0,0.0,0.0,0.0,0.0,0.0,0.0,0.0,0.0,0.0,0.0,0.0,0.0,0.0,0.0,0.0,0.0,0.0,0.0,0.0,0.0,0.0,0.0,0.0,0.0,0.0,0.0,0.0,0.0,0.0,0.0,0.0,0.0,0.0,0.0,0.0,0.0,0.0,0.0,0.0,0.0,0.0,0.0,0.0,0.0,0.0,0.0,0.0,0.0,0.0,0.0,0.0,0.0,0.0,0.0,0.0,0.0,0.0,0.0,0.0,0.0,0.0,0.0,0.0,0.0,0.0,0.0,0.0,0.0,0.0,0.0,0.0,0.0,0.0,0.0,0.0,0.0,0.0,0.0,0.0,-1.0233,-1.1701,-1.1963,-1.3145,-1.4131,-1.4739,-1.3863,-1.2836,-1.1752,-1.0547,0.0,0.0,0.0,0.0,0.0,0.0,0.0,0.0,0.0,0.0,0.0,0.0,0.0,0.0,0.0,0.0,0.0,0.0,0.0,0.0,0.0,0.0,0.0,0.0,0.0,0.0,0.0,0.0,0.0,0.0,0.0,0.0,0.0,0.0,0.0,0.0,0.0,0.0,0.0,0.0,0.0,0.0,0.0,0.0,0.0,0.0,0.0,0.0,0.0,0.0,0.0,0.0,0.0,0.0,0.0,0.0,0.0,0.0,0.0,0.0,0.0,0.0,0.0,0.0,0.0,0.0,0.0,0.0,0.0,0.0,0.0,0.0,0.0,0.0,0.0,0.0,0.0,0.0,0.0,0.0,0.0,0.0,0.0,0.0,0.0,0.0,0.0,0.0,0.0,0.0,0.0,0.0,0.0,0.0,0.0,0.0,0.0,0.0,0.0,0.0,0.0,0.0,-1.026,-1.1672,-1.1852,-1.3126,-1.4192,-1.4754,-1.3997,-1.3011,-1.1899,0.0,0.0,0.0,0.0,0.0,0.0,0.0,0.0,0.0,0.0,0.0,0.0,0.0,0.0,0.0,0.0,0.0,0.0,0.0,0.0,0.0,0.0,0.0,0.0,0.0,0.0,0.0,0.0,0.0,0.0,0.0,0.0,0.0,0.0,0.0,0.0,0.0,0.0,0.0,0.0,0.0,0.0,0.0,0.0,0.0,0.0,0.0,0.0,0.0,0.0,0.0,0.0,0.0,0.0,0.0,0.0,0.0,0.0,0.0,0.0,0.0,0.0,0.0,0.0,0.0,0.0,0.0,0.0,0.0,0.0,0.0,0.0,0.0,0.0,0.0,0.0,0.0,0.0,0.0,0.0,0.0,0.0,0.0,0.0,0.0,0.0,0.0,0.0,0.0,0.0,0.0,0.0,0.0,0.0,0.0,0.0,0.0,0.0,0.0,0.0,0.0,0.0,-0.8707,-1.042,-1.1756,-1.2088,-1.324,-1.4227,-1.478,-1.4094,-1.3163,-1.2059,0.0,0.0,0.0,0.0,0.0,0.0,0.0,0.0,0.0,0.0,0.0,0.0,0.0,0.0,0.0,0.0,0.0,0.0,0.0,0.0,0.0,0.0,0.0,0.0,0.0,0.0,0.0,0.0,0.0,0.0,0.0,0.0,0.0,0.0,0.0,0.0,0.0,0.0,0.0,0.0,0.0,0.0,0.0,0.0,0.0,0.0,0.0,0.0,0.0,0.0,0.0,0.0,0.0,0.0,0.0,0.0,0.0,0.0,0.0,0.0,0.0,0.0,0.0,0.0,0.0,0.0,0.0,0.0,0.0,0.0,0.0,0.0,0.0,0.0,0.0,0.0,0.0,0.0,0.0,0.0,0.0,0.0,0.0,0.0,0.0,0.0,0.0,0.0,0.0,0.0,0.0,0.0,0.0,0.0,0.0,0.0,0.0,0.0,0.0,0.0,0.0,0.0,-0.9335,-1.0743,-1.1987,-1.2724,-1.3525,-1.4246,-1.4845,-1.4168,-1.3273,0.0,0.0,0.0,0.0,0.0,0.0,0.0,0.0,0.0,0.0,0.0,0.0,0.0,0.0,0.0,0.0,0.0,0.0,0.0,0.0,0.0,0.0,0.0,0.0,0.0,0.0,0.0,0.0,0.0,0.0,0.0,0.0,0.0,0.0,0.0,0.0,0.0,0.0,0.0,0.0,0.0,0.0,0.0,0.0,0.0,0.0,0.0,0.0,0.0,0.0,0.0,0.0,0.0,0.0,0.0,0.0,0.0,0.0,0.0,0.0,0.0,0.0,0.0,0.0,0.0,0.0,0.0,0.0,0.0,0.0,0.0,0.0,0.0,0.0,0.0,0.0,0.0,0.0,0.0,0.0,0.0,0.0,0.0,0.0,0.0,0.0,0.0,0.0,0.0,0.0,0.0,0.0,0.0,0.0,0.0,0.0,0.0,0.0,0.0,0.0,0.0,0.0,0.0,-0.9476,-1.0884,-1.2116,-1.2796,-1.3751,-1.4582,-1.5128,-1.4528,-1.3674,-1.2619,0.0,0.0,0.0,0.0,0.0,0.0,0.0,0.0,0.0,0.0,0.0,0.0,0.0,0.0,0.0,0.0,0.0,0.0,0.0,0.0,0.0,0.0,0.0,0.0,0.0,0.0,0.0,0.0,0.0,0.0,0.0,0.0,0.0,0.0,0.0,0.0,0.0,0.0,0.0,0.0,0.0,0.0,0.0,0.0,0.0,0.0,0.0,0.0,0.0,0.0,0.0,0.0,0.0,0.0,0.0,0.0,0.0,0.0,0.0,0.0,0.0,0.0,0.0,0.0,0.0,0.0,0.0,0.0,0.0,0.0,0.0,0.0,0.0,0.0,0.0,0.0,0.0,0.0,0.0,0.0,0.0,0.0,0.0,0.0,0.0,0.0,0.0,0.0,0.0,0.0,0.0,0.0,0.0,0.0,0.0,0.0,0.0,0.0,0.0,0.0,0.0,0.0,-1.0028,-1.1249,-1.2433,-1.3407,-1.42,-1.4892,-1.5448,-1.4832,-1.3954,-1.2844,0.0,0.0,0.0,0.0,0.0,0.0,0.0,0.0,0.0,0.0,0.0,0.0,0.0,0.0,0.0,0.0,0.0,0.0,0.0,0.0,0.0,0.0,0.0,0.0,0.0,0.0,0.0,0.0,0.0,0.0,0.0,0.0,0.0,0.0,0.0,0.0,0.0,0.0,0.0,0.0,0.0,0.0,0.0,0.0,0.0,0.0,0.0,0.0,0.0,0.0,0.0,0.0,0.0,0.0,0.0,0.0,0.0,0.0,0.0,0.0,0.0,0.0,0.0,0.0,0.0,0.0,0.0,0.0,0.0,0.0,0.0,0.0,0.0,0.0,0.0,0.0,0.0,0.0,0.0,0.0,0.0,0.0,0.0,0.0,0.0,0.0,0.0,0.0,0.0,0.0,0.0,0.0,0.0,0.0,0.0,0.0,0.0,0.0,0.0,0.0,0.0,0.0,-1.0856,-1.179,-1.2885,-1.4308,-1.4751,-1.5204,-1.5808,-1.5104,-1.4173,-1.3087,0.0,0.0,0.0,0.0,0.0,0.0,0.0,0.0,0.0,0.0,0.0,0.0,0.0,0.0,0.0,0.0,0.0,0.0,0.0,0.0,0.0,0.0,0.0,0.0,0.0,0.0,0.0,0.0,0.0,0.0,0.0,0.0,0.0,0.0,0.0,0.0,0.0,0.0,0.0,0.0,0.0,0.0,0.0,0.0,0.0,0.0,0.0,0.0,0.0,0.0,0.0,0.0,0.0,0.0,0.0,0.0,0.0,0.0,0.0,0.0,-1.0008,-0.9507,0.0,0.0,0.0,0.0,0.0,0.0,0.0,0.0,0.0,0.0,0.0,0.0,0.0,0.0,0.0,0.0,0.0,0.0,0.0,0.0,0.0,0.0,0.0,0.0,0.0,0.0,0.0,0.0,0.0,0.0,0.0,0.0,0.0,0.0,0.0,0.0,0.0,0.0,0.0,0.0,-1.1627,-1.2336,-1.324,-1.4648,-1.5188,-1.5645,-1.6154,-1.5404,-1.463,-1.396,-1.213,0.0,0.0,0.0,0.0,0.0,0.0,0.0,0.0,0.0,0.0,0.0,0.0,0.0,0.0,0.0,0.0,0.0,0.0,0.0,0.0,0.0,0.0,0.0,0.0,0.0,0.0,0.0,0.0,0.0,0.0,0.0,0.0,0.0,0.0,0.0,0.0,0.0,0.0,0.0,0.0,0.0,0.0,0.0,0.0,0.0,0.0,0.0,0.0,0.0,0.0,0.0,0.0,0.0,0.0,0.0,0.0,0.0,0.0,0.0,-1.1649,-1.1149,0.0,0.0,0.0,0.0,0.0,0.0,0.0,0.0,0.0,0.0,0.0,0.0,0.0,0.0,0.0,0.0,0.0,0.0,0.0,0.0,0.0,0.0,0.0,0.0,0.0,0.0,0.0,0.0,0.0,0.0,0.0,0.0,0.0,0.0,0.0,0.0,0.0,0.0,0.0,0.0,-1.2183,-1.3033,-1.3956,-1.5064,-1.5514,-1.5922,-1.6394,-1.5903,-1.5197,-1.4302,-1.2967,0.0,0.0,0.0,0.0,0.0,0.0,0.0,0.0,0.0,0.0,0.0,0.0,0.0,0.0,0.0,0.0,0.0,0.0,0.0,0.0,0.0,0.0,0.0,0.0,0.0,0.0,0.0,0.0,0.0,0.0,0.0,0.0,0.0,0.0,0.0,0.0,0.0,0.0,0.0,0.0,0.0,0.0,0.0,0.0,0.0,0.0,0.0,0.0,0.0,0.0,0.0,0.0,0.0,-1.3504,-1.351,-1.3558,-1.4131,-1.4542,-1.4778,-1.3419,-1.3133,-1.3555,-1.2789,0.0,0.0,0.0,0.0,0.0,0.0,0.0,0.0,0.0,0.0,0.0,0.0,0.0,0.0,0.0,0.0,0.0,0.0,0.0,0.0,0.0,0.0,-1.447,-1.5149,-1.5306,-1.467,-1.2328,0.0,0.0,0.0,0.0,0.0,0.0,0.0,0.0,0.0,0.0,0.0,-1.2858,-1.378,-1.4658,-1.5477,-1.5818,-1.6153,-1.6602,-1.6382,-1.5714,-1.4558,-1.38,-1.2531,0.0,0.0,0.0,0.0,0.0,0.0,0.0,0.0,0.0,0.0,0.0,0.0,0.0,0.0,0.0,0.0,0.0,0.0,0.0,0.0,0.0,0.0,0.0,0.0,0.0,0.0,0.0,0.0,0.0,0.0,0.0,0.0,-0.8385,-0.8992,0.0,0.0,0.0,0.0,0.0,0.0,0.0,0.0,0.0,0.0,0.0,0.0,0.0,-1.3345,-1.3775,-1.3764,-1.4079,-1.4676,-1.4676,-1.4746,-1.4853,-1.4993,-1.5497,-1.6223,-1.5879,0.0,-1.5256,-1.4909,0.0,0.0,0.0,0.0,0.0,0.0,0.0,0.0,0.0,0.0,0.0,0.0,0.0,0.0,0.0,0.0,0.0,0.0,0.0,0.0,0.0,0.0,-1.6495,-1.7168,-1.7325,-1.7063,-1.6129,-1.4141,-1.2505,-1.243,-1.1408,-1.0553,0.0,0.0,0.0,0.0,0.0,0.0,-1.4197,-1.45,-1.4891,-1.5767,-1.6088,-1.6394,-1.6738,-1.6466,-1.5992,-1.5305,-1.4088,-1.3012,-1.2126,-1.083,0.0,0.0,0.0,0.0,0.0,0.0,0.0,0.0,0.0,0.0,0.0,0.0,0.0,0.0,0.0,0.0,0.0,0.0,0.0,0.0,0.0,0.0,0.0,0.0,0.0,0.0,0.0,0.0,0.0,-0.8446,-0.9183,-0.9793,-0.9952,-1.0187,0.0,0.0,0.0,0.0,0.0,0.0,0.0,0.0,0.0,-1.3316,-1.4088,-1.4661,-1.4991,-1.4991,-1.5273,-1.5793,-1.5874,-1.5982,-1.6125,-1.634,-1.6725,-1.7236,-1.7496,-1.7586,-1.7502,-1.6663,-1.5867,-1.5168,0.0,0.0,0.0,0.0,-1.4613,-1.5398,-1.5427,-1.6062,-1.6712,-1.5733,0.0,0.0,0.0,0.0,0.0,0.0,0.0,-1.5644,-1.663,-1.734,-1.79,-1.8184,-1.8259,-1.8184,-1.7893,-1.663,-1.5231,-1.4144,-1.3151,-1.237,-1.1992,-1.1703,0.0,0.0,0.0,-1.3769,-1.4643,-1.5062,-1.5441,-1.5918,-1.6199,-1.6477,-1.6763,-1.6869,-1.6661,-1.6065,-1.5186,-1.4195,-1.3065,-1.2101,-1.1051,0.0,0.0,0.0,0.0,0.0,0.0,0.0,0.0,0.0,0.0,0.0,0.0,0.0,0.0,0.0,0.0,0.0,0.0,0.0,0.0,0.0,0.0,0.0,0.0,0.0,0.0,0.0,0.0,-0.9574,-1.0236,-1.1004,-1.1201,-1.1537,0.0,0.0,0.0,0.0,0.0,0.0,-1.4118,-1.5066,-1.5372,-1.4884,-1.5364,-1.5802,-1.6141,-1.6126,-1.6424,-1.6992,-1.7115,-1.7296,-1.7506,-1.7833,-1.8157,-1.8501,-1.8973,-1.9374,-1.9574,-1.8155,-1.7364,-1.7055,-1.6923,-1.6613,-1.6219,-1.6271,-1.669,-1.7212,-1.7212,-1.7645,-1.8102,-1.7428,-1.7107,-1.6868,-1.6413,0.0,0.0,0.0,0.0,-1.7324,-1.7833,-1.8446,-1.8957,-1.8957,-1.8957,-1.8957,-1.8957,-1.8568,-1.7676,-1.5897,-1.5,-1.438,-1.3885,-1.3665,0.0,-1.3765,-1.4648,-1.5351,-1.5515,-1.5858,-1.6133,-1.6276,-1.6382,-1.6557,-1.6828,-1.7195,-1.7168,-1.6563,-1.6016,-1.5132,-1.3861,-1.3029,-1.2096,-1.1032,0.0,0.0,0.0,0.0,0.0,0.0,0.0,0.0,0.0,0.0,0.0,0.0,0.0,0.0,0.0,0.0,0.0,0.0,0.0,0.0,0.0,0.0,0.0,0.0,0.0,0.0,0.0,0.0,0.0,-1.3096,-1.3308,0.0,0.0,0.0,0.0,-1.5308,-1.5902,-1.603,-1.5531,-1.6443,-1.6731,-1.6132,-1.656,-1.6988,-1.7316,-1.7316,-1.7661,-1.8321,-1.8448,-1.8702,-1.9108,-1.9431,-1.9843,-2.0281,-2.0619,-2.0971,-2.1141,-1.929,-1.8554,-1.8528,-1.7884,-1.7623,-1.7593,-1.7593,-1.8027,-1.8605,-1.8605,-1.9039,-1.9498,-1.8822,-1.8162,-1.7646,-1.7616,-1.7601,0.0,0.0,-1.811,-1.862,-1.8642,-1.9144,-1.9655,-1.9655,-1.9655,-1.9655,-1.9655,-1.9625,-1.9181,-1.7826,-1.701,-1.6532,-1.6517,0.0,-1.5844,-1.642,-1.6554,-1.6838,-1.7466,-1.7134,-1.6909,-1.7036,-1.6772,-1.6707,-1.6968,-1.7296,-1.7232,-1.6631,-1.6023,-1.5383,-1.4667,-1.333,-1.263,-1.2676,-1.1272,0.0,0.0,0.0,0.0,0.0,0.0,0.0,0.0,0.0,0.0,0.0,0.0,0.0,0.0,0.0,0.0,0.0,0.0,0.0,0.0,0.0,0.0,0.0,0.0,0.0,0.0,0.0,0.0,-1.4706,-1.5263,0.0,-1.6463,-1.6591,-1.6688,-1.684,-1.777,-1.8092,-1.7565,-1.8534,-1.8739,-1.7968,-1.8063,-1.8096,-1.8036,-1.8036,-1.8246,-1.8664,-1.8878,-1.9181,-1.9541,-1.9954,-2.0351,-2.074,-2.1073,-2.1311,-2.1421,-2.0835,-2.0621,-2.061,-2.037,-2.0303,-2.0343,-2.0343,-2.0296,-2.023,-2.023,-2.0162,-2.005,-1.9813,-1.9569,-1.9362,-1.9279,-1.9237,-1.922,-1.9098,-1.9229,-1.9391,-1.9348,-1.9528,-1.97,-1.97,-1.97,-1.97,-1.97,-1.97,-1.9565,-1.9076,-1.8446,-1.7855,-1.7413,-1.7168,-1.7093,-1.7309,-1.7339,-1.746,-1.7788,-1.7695,-1.7517,-1.7253,-1.7319,-1.7287,-1.7072,-1.7332,-1.7444,-1.7325,-1.6296,-1.5605,-1.5415,-1.4141,-1.3243,-1.2807,-1.2368,-1.153,0.0,0.0,0.0,0.0,0.0,0.0,0.0,0.0,0.0,0.0,0.0,0.0,0.0,0.0,0.0,0.0,0.0,0.0,0.0,0.0,0.0,0.0,0.0,0.0,0.0,-1.4235,-1.5557,-1.6233,-1.6731,-1.7276,-1.7901,-1.8002,-1.8188,-1.8552,-1.9309,-1.9656,-1.9392,-1.9964,-1.9955,-1.9177,-1.9045,-1.8929,-1.8877,-1.893,-1.9162,-1.961,-1.9874,-2.022,-2.0628,-2.0999,-2.1377,-2.1713,-2.1979,-2.2153,-2.2228,-2.229,-2.2338,-2.2293,-2.1867,-2.1739,-2.1815,-2.1862,-2.1721,-2.1512,-2.1586,-2.1366,-2.1081,-2.1081,-2.1081,-2.1056,-2.0969,-2.077,-2.053,-2.0363,-2.0106,-1.9876,-1.9762,-1.9726,-1.9726,-1.9708,-1.97,-1.97,-1.97,-1.97,-1.97,-1.97,-1.9348,-1.8904,-1.8446,-1.8364,-1.8364,-1.8364,-1.8388,-1.8463,-1.8587,-1.853,-1.8376,-1.8142,-1.7999,-1.7837,-1.7596,-1.7576,-1.7618,-1.7726,-1.645,-1.5724,-1.5802,-1.4583,-1.3678,-1.3212,-1.3088,-1.2424,-1.1167,0.0,0.0,0.0,0.0,0.0,0.0,0.0,0.0,0.0,0.0,0.0,0.0,0.0,0.0,0.0,0.0,0.0,0.0,0.0,0.0,0.0,0.0,0.0,-1.4871,-1.5965,-1.7003,-1.7645,-1.7758,-1.8027,-1.8702,-1.8762,-1.9265,-2.0455,-2.0566,-2.0676,-2.0928,-2.0712,-2.0329,-1.9773,-1.9501,-1.9535,-1.9852,-1.9995,-2.0453,-2.1229,-2.1489,-2.1895,-2.2417,-2.2618,-2.2934,-2.3319,-2.3458,-2.3538,-2.3602,-2.3602,-2.3602,-2.3483,-2.2241,-2.1799,-2.1895,-2.2027,-2.2191,-2.2384,-2.2558,-2.2632,-2.2632,-2.2632,-2.2632,-2.2632,-2.2632,-2.2129,-2.1522,-2.1363,-2.0752,-2.0078,-1.9858,-1.9805,-1.978,-1.9726,-1.97,-1.97,-1.97,-1.97,-1.97,-1.97,-1.97,-1.97,-1.97,-1.97,-1.97,-1.97,-1.9762,0.0,-1.998,-1.9674,-1.9521,-1.9704,-1.8834,-1.8307,-1.8493,-1.8019,-1.7729,-1.78,-1.6504,-1.5759,-1.5793,-1.4599,-1.3955,-1.4014,-1.3407,-1.278,-1.2141,0.0,0.0,0.0,0.0,0.0,0.0,0.0,0.0,0.0,0.0,0.0,0.0,0.0,0.0,0.0,0.0,0.0,0.0,0.0,0.0,0.0,-1.5919,-1.6872,-1.6256,-1.7325,-1.8214,-1.8394,-1.8852,-1.9413,-2.0083,-2.0143,-2.0486,-2.1304,-2.1832,-2.2004,-2.1777,-2.2084,-2.1922,-2.1233,-2.1069,-2.0979,-2.0973,-2.0997,-2.1319,-2.1919,-2.2107,-2.2379,-2.2761,-2.3016,-2.3246,-2.3458,-2.353,-2.3581,-2.3602,-2.3602,-2.3602,-2.3565,-2.3213,-2.3239,-2.348,-2.3626,-2.3741,-2.3784,-2.3548,-2.3464,-2.3464,-2.3464,-2.3464,-2.3439,-2.3301,-2.3075,-2.2705,-2.1833,-2.1364,-2.0929,-2.0155,-1.9866,-1.978,-1.9726,-1.97,-1.97,-1.97,-1.97,-1.97,-1.97,-1.97,-1.97,-1.97,-1.97,-1.97,-1.97,-1.9762,-1.9894,-2.0183,-2.0246,-2.0224,-2.0075,-1.9514,-1.9009,-1.8672,-1.8061,-1.7729,-1.78,-1.7032,-1.6366,-1.5891,-1.5204,-1.4674,-1.4298,-1.3548,-1.3112,0.0,0.0,0.0,0.0,0.0,0.0,0.0,0.0,0.0,0.0,0.0,0.0,0.0,0.0,0.0,0.0,0.0,0.0,0.0,0.0,0.0,0.0,-1.7517,-1.8359,-1.8121,-1.8669,-1.9121,-1.9121,-1.9705,-2.0273,-2.0658,-2.0942,-2.1403,-2.2074,-2.2478,-2.2703,-2.27,-2.293,-2.2829,-2.228,-2.2133,-2.1992,-2.1851,-2.1921,-2.2133,-2.2487,-2.2632,-2.2859,-2.315,-2.3319,-2.3451,-2.353,-2.3581,-2.3602,-2.3602,-2.3602,-2.3602,-2.3602,0.0,0.0,0.0,0.0,-2.4864,-2.5013,-2.4863,-2.4809,-2.4809,-2.4809,-2.4809,-2.4775,-2.4594,-2.4275,-2.3775,-2.3004,-2.2207,-2.1408,-2.0684,-2.0185,-1.9841,-1.9726,-1.97,-1.97,-1.97,-1.97,-1.97,-1.97,-1.97,0.0,-1.97,-1.9726,-1.9744,-1.9744,-1.9914,-2.0143,-2.0384,-2.0696,-2.0887,-2.0838,-2.037,-1.9852,-1.9253,-1.8591,0.0,0.0,0.0,-1.6661,-1.6133,-1.5573,0.0,0.0,0.0,0.0,0.0,-1.434,0.0,0.0,-1.2096,-1.1678,0.0,0.0,0.0,0.0,0.0,0.0,0.0,0.0,0.0,0.0,0.0,0.0,0.0,0.0,0.0,0.0,-1.8909,-1.9536,-2.0041,-1.9964,-1.9849,-1.9838,-2.0419,-2.0849,-2.0932,-2.1463,-2.2096,-2.2748,-2.28,-2.3013,-2.348,-2.3392,0.0,0.0,0.0,-2.2809,-2.2688,-2.2859,-2.3032,-2.3175,-2.3295,-2.3445,-2.3621,-2.3621,-2.365,-2.3714,-2.3714,-2.3714,-2.3714,-2.3714,-2.3691,-2.3667,-2.3832,-2.4015,-2.4292,-2.515,-2.5669,-2.5972,-2.618,0.0,0.0,-2.6259,-2.6251,-2.6224,-2.6072,-2.5466,-2.4762,-2.4392,-2.3149,-2.1831,-2.1413,-2.0693,-2.0033,-1.9864,-1.976,-1.97,-1.97,-1.97,-1.97,-1.97,-1.97,-1.97,-1.97,-1.9762,-1.9805,-1.9823,-2.016,-2.0478,-2.0606,-2.1039,-2.1433,-2.1693,-2.1243,0.0,-1.9967,-1.9284,-1.8616,-1.7945,-1.7295,-1.6828,-1.6575,-1.5909,-1.5982,-1.6883,-1.6201,-1.6196,-1.6899,-1.6899,-1.6899,-1.6835,-1.4027,-1.3107,0.0,0.0,0.0,0.0,0.0,0.0,0.0,0.0,0.0,0.0,0.0,0.0,0.0,0.0,0.0,-1.9123,-1.9807,-2.0405,-2.0826,-2.0845,-2.0772,-2.0613,-2.1189,-2.1774,-2.2269,-2.2433,-2.277,-2.337,-2.3423,-2.3439,-2.3502,-2.3487,-2.3341,-2.3083,-2.3564,-2.3826,-2.3795,-2.4352,-2.4727,-2.4932,-2.4948,0.0,-2.4395,-2.4395,-2.4388,-2.441,-2.441,-2.441,-2.441,-2.441,-2.4257,-2.4029,-2.4268,-2.452,-2.4851,-2.5599,-2.6036,-2.626,-2.6513,-2.6607,-2.6607,-2.6607,-2.6564,-2.6486,-2.6304,-2.5973,0.0,-2.4488,-2.3739,-2.304,-2.2141,-2.1288,-2.0621,-2.0531,-2.0086,-1.97,-1.97,-1.97,-1.97,-1.97,-1.97,-1.97,-1.97,-1.9762,-1.9841,-1.9945,-2.0262,-2.057,-2.0812,-2.1206,-2.1554,-2.1832,-2.1331,-2.0703,-2.0035,-1.9321,-1.8616,-1.7945,-1.7476,-1.7311,-1.7519,-1.6888,-1.6654,-1.6902,-1.6746,-1.6737,-1.6899,-1.6899,-1.6899,-1.689,-1.627,-1.6066,0.0,0.0,0.0,0.0,0.0,0.0,0.0,0.0,0.0,0.0,0.0,-1.6324,-1.7864,0.0,-1.9716,-2.0653,-2.1137,-2.1537,-2.1939,-2.2263,-2.2151,-2.1394,-2.1886,-2.2415,-2.2658,-2.2972,-2.3287,-2.358,-2.3602,-2.373,-2.4022,-2.4045,-2.4142,-2.4348,-2.4688,-2.4843,-2.4843,-2.5192,-2.5395,-2.5506,-2.5506,-2.5358,-2.5098,-2.5098,-2.5098,-2.5098,-2.5098,-2.5098,-2.5098,-2.5098,-2.4889,-2.4617,-2.4936,-2.513,-2.5307,-2.582,-2.6197,-2.6461,-2.6632,-2.6674,-2.6657,-2.6657,-2.6555,-2.6417,-2.6207,-2.5956,-2.5588,-2.4788,-2.4072,-2.3409,-2.2722,-2.1932,-2.1212,-2.0808,-2.0453,-2.0109,-1.9775,-1.97,-1.97,-1.97,-1.97,-1.97,-1.97,-1.9843,-1.9993,-2.0131,-2.0553,-2.0918,-2.1127,-2.15,-2.1832,-2.2034,-2.1813,-2.1368,-2.0661,-1.9644,-1.8793,-1.8192,-1.8087,-1.8164,-1.8439,-1.7816,-1.766,-1.8089,-1.7713,-1.7704,-1.8098,-1.8098,-1.8098,-1.8098,-1.8098,-1.7887,0.0,0.0,0.0,0.0,0.0,0.0,0.0,0.0,-1.6596,-1.7404,-1.7781,-1.8365,-1.9662,-2.0292,-2.0963,-2.2036,-2.2425,-2.2738,-2.3124,-2.3581,-2.3475,-2.2455,-2.2776,-2.3026,-2.2966,-2.3374,-2.3698,-2.3811,-2.3804,-2.4096,-2.4761,-2.4799,-2.5038,-2.5569,-2.5734,-2.5802,-2.5802,-2.5929,-2.5989,-2.5989,-2.5989,-2.5929,-2.5802,-2.5802,-2.5802,-2.5802,-2.5802,-2.5802,-2.5787,-2.5659,-2.5485,-2.5334,-2.5654,-2.5884,-2.6005,-2.6026,-2.6277,-2.6606,-2.6674,-2.6649,-2.6597,-2.6572,-2.6417,-2.6171,-2.5974,-2.5698,-2.537,-2.4938,-2.4224,-2.3537,-2.3239,-2.2576,-2.1806,-2.109,-2.0842,-2.0565,-1.9868,-1.9726,-1.9726,-1.97,-1.97,-1.97,-1.9726,-1.995,-2.0185,-2.0296,-2.0828,-2.1261,-2.1425,-2.1796,-2.2075,-2.2191,-2.2262,-2.2006,-2.1285,-1.9991,-1.9047,-1.8658,-1.8747,-1.8896,-1.9086,-1.8609,-1.8639,-1.9288,-1.8656,-1.8647,-1.9297,-1.9297,-1.9297,-1.9297,-1.9297,-1.8957,-1.3595,-1.4012,-1.4631,-1.5304,-1.6007,-1.6593,0.0,0.0,-1.813,-1.8465,-1.9126,-1.9753,-2.0164,-2.144,-2.2457,-2.2605,-2.3203,-2.3765,-2.418,-2.4146,-2.4117,-2.4281,-2.4135,-2.3989,-2.3876,-2.3802,-2.4016,-2.4619,-2.4567,-2.4784,-2.5442,-2.5502,-2.5509,-2.5607,-2.6176,-2.6482,-2.6482,-2.7083,-2.7375,-2.7375,-2.7375,-2.7068,-2.6482,-2.6482,-2.6482,-2.6482,-2.6482,-2.6482,-2.643,-2.5854,-2.5756,-2.6008,-2.6293,-2.6827,-2.7348,-2.6496,-2.6355,-2.6606,-2.6674,-2.6649,-2.6572,-2.6452,-2.6207,-2.5899,-2.5706,-2.5285,-2.4835,-2.4605,-2.4243,-2.391,-2.3747,-2.3207,-2.2531,-2.1848,-2.1303,-2.0755,-1.9966,-1.9787,-1.9762,-1.9708,-1.97,-1.9726,-1.978,-2.0071,-2.0296,-2.0384,-2.0893,-2.1364,-2.155,-2.1919,-2.2183,-2.22,-2.2262,-2.2033,-2.1342,-2.0064,-1.934,-1.9453,-1.9052,-1.8886,-1.9091,-1.9142,-1.9205,-1.9297,-1.9214,-1.9214,-1.9297,-1.9297,-1.9297,-1.9297,-1.9297,-1.9251,-1.5551,-1.5846,-1.6194,-1.6902,-1.7613,-1.8161,-1.8353,-1.9036,-1.975,-2.0075,-2.0484,-2.0847,-2.1061,-2.208,-2.3023,-2.3438,-2.4199,-2.487,-2.5262,-2.5238,-2.514,-2.5067,-2.4851,-2.4549,-2.4107,-2.3967,-2.4155,-2.4754,-2.468,-2.506,-2.6131,-2.6183,-2.6355,-2.6761,-2.7046,-2.7188,-2.7188,-2.7458,-2.76,-2.76,-2.76,-2.745,-2.7188,-2.7188,-2.7188,-2.7188,-2.7188,-2.7188,-2.7165,-2.6888,-2.6729,-2.6711,-2.698,-2.729,-2.7558,-2.7319,-2.7248,-2.7237,-2.7273,-2.6908,-2.6408,-2.6313,-2.5956,-2.5508,-2.5266,-2.4867,-2.4467,-2.4263,-2.4046,-2.3861,-2.3811,-2.3657,-2.3349,-2.2758,-2.2113,-2.1428,-2.0652,-2.0122,-1.978,-1.9708,-1.9726,-1.9787,-1.9902,-2.0193,-2.0477,-2.0655,-2.1103,-2.1501,-2.1744,-2.2065,-2.2262,-2.2262,-2.2282,-2.2061,-2.1464,-2.0938,-2.0587,-2.048,-1.9934,-1.9704,-1.9918,-1.9518,-1.93,-1.9297,-1.9297,-1.9297,-1.9297,-1.9297,-1.9297,-1.9297,-1.9297,-1.9297,-1.7076,-1.7356,-1.7635,-1.8359,-1.8955,-1.9421,-1.9673,-2.0277,-2.0909,-2.1254,-2.1449,-2.1601,-2.1799,-2.269,-2.3559,-2.4118,-2.507,-2.5823,-2.6079,-2.6036,-2.5881,-2.5605,-2.5389,-2.5064,-2.4558,-2.4281,-2.4454,-2.5204,-2.507,-2.5526,-2.687,-2.6888,-2.7106,-2.7577,-2.76,-2.76,-2.76,-2.76,-2.76,-2.76,-2.76,-2.76,-2.76,-2.76,-2.76,-2.76,-2.76,-2.76,-2.76,-2.76,-2.7472,-2.7333,-2.7595,-2.7778,-2.7985,-2.8313,-2.8235,-2.7915,-2.7767,-2.7214,-2.6544,-2.6238,-2.5717,-2.5146,-2.4879,-2.4505,-2.4135,-2.3996,-2.3861,-2.3789,-2.3789,-2.3953,-2.3941,-2.3358,-2.2716,-2.1999,-2.1225,-2.0427,-1.9823,-1.9726,-1.9744,-1.9858,-2.0051,-2.0323,-2.0646,-2.0999,-2.1354,-2.166,-2.1876,-2.2135,-2.2296,-2.2296,-2.2296,-2.2173,-2.1833,-2.1702,-2.1569,-2.1442,-2.0881,-2.0635,-2.0818,-2.0063,-1.9629,-1.9629,-1.9416,-1.9297,-1.9297,-1.9297,-1.9297,-1.9297,-1.9297,-1.9299,-1.7789,-1.8401,-1.901,-1.976,-2.011,-2.0317,-2.0523,-2.0934,-2.1364,-2.1625,-2.1789,-2.1951,-2.2154,-2.3375,-2.4389,-2.4475,-2.5662,-2.6521,-2.6401,-2.6278,-2.6144,-2.6,-2.5793,-2.5645,-2.5567,-2.4906,-2.5035,-2.6352,-2.6032,-2.6343,-2.7685,-2.7653,-2.7577,-2.76,-2.76,-2.76,-2.76,-2.76,-2.76,-2.76,-2.76,-2.76,-2.76,-2.76,-2.76,-2.76,-2.76,-2.76,-2.76,-2.76,-2.7668,-2.781,-2.8074,-2.8551,-2.9088,-2.9427,-2.9148,-2.85,-2.7908,-2.7549,-2.7216,-2.6295,-2.5505,-2.4871,-2.4675,-2.4232,-2.3811,-2.3811,-2.3789,-2.3789,-2.3789,-2.4051,-2.412,-2.3463,-2.2871,-2.2245,-2.1381,-2.0556,-1.9945,-1.9744,-1.9744,-1.9904,-2.0235,-2.0461,-2.0779,-2.1308,-2.1616,-2.1819,-2.189,-2.2135,-2.2296,-2.2296,-2.2296,-2.2377,-2.2553,-2.2034,-2.1861,-2.2242,-2.1756,-2.1525,-2.166,-2.0889,-2.0457,-2.0457,-1.9702,-1.9297,-1.9297,-1.9297,-1.9297,-1.9297,-1.9297,-1.9301,-1.8754,-1.9004,-1.9293,-2.0066,-2.0375,-2.0579,-2.0925,-2.1293,-2.1632,-2.1846,-2.2011,-2.2123,-2.2248,-2.3061,-2.3902,-2.4415,-2.5314,-2.6084,-2.6471,-2.6495,-2.6434,-2.6346,-2.6637,-2.6827,-2.679,-2.5998,-2.579,-2.6509,-2.6589,-2.6937,-2.777,-2.7675,-2.76,-2.76,-2.76,-2.76,-2.76,-2.76,-2.76,-2.76,-2.76,-2.76,-2.76,-2.76,-2.76,-2.76,-2.76,-2.76,-2.76,-2.76,-2.7683,-2.7848,-2.8194,-2.8581,-2.9044,-2.9641,-2.9861,-2.9782,-2.9217,-2.8304,-2.7324,-2.6828,-2.5858,-2.4831,-2.45,-2.4114,-2.3789,-2.3789,-2.3861,-2.3953,-2.4094,-2.4323,-2.4453,-2.4221,-2.3344,-2.2447,-2.1975,-2.0868,-1.9945,-1.9805,-1.9879,-2.0108,-2.0444,-2.0778,-2.1175,-2.172,-2.1945,-2.2094,-2.2166,-2.2237,-2.2296,-2.2296,-2.2296,-2.2399,-2.2654,-2.2552,-2.2689,-2.3132,-2.2581,-2.2324,-2.2548,-2.1786,-2.1354,-2.1354,-2.0528,-2.0098,-2.0089,-1.9555,-1.9297,-1.9297,-1.9294,-1.9282,-1.9324,-1.9506,-1.9767,-2.0299,-2.057,-2.082,-2.1191,-2.1526,-2.1827,-2.2023,-2.2166,-2.2248,-2.2282,-2.2902,-2.3644,-2.4372,-2.5118,-2.5838,-2.6539,-2.6859,-2.701,-2.6967,-2.7524,-2.7895,-2.7895,-2.747,-2.7229,-2.7302,-2.7271,-2.7452,-2.7927,-2.7758,-2.765,-2.76,-2.76,-2.7625,-2.7675,-2.7675,-2.7725,-2.78,-2.785,-2.785,-2.78,-2.78,-2.775,-2.7675,-2.7675,-2.765,-2.76,-2.76,-2.765,-2.7758,-2.8169,-2.8526,-2.892,-2.9663,-3.0172,-3.0431,-2.9953,-2.9084,-2.8056,-2.7291,-2.6277,-2.5242,-2.4598,-2.417,-2.3917,-2.3917,-2.4038,-2.4213,-2.4372,-2.4569,-2.4718,-2.463,-2.3733,-2.2793,-2.2248,-2.1155,-2.0189,-1.9868,-2.001,-2.0281,-2.0605,-2.1103,-2.1587,-2.2017,-2.2166,-2.2248,-2.2296,-2.2296,-2.2296,-2.2296,-2.2296,-2.2413,-2.2681,-2.282,-2.31,-2.3575,-2.3234,-2.3152,-2.3428,-2.2657,-2.2226,-2.2226,-2.1089,-2.0494,-2.0502,-1.9693,-1.9297,-1.9297,-1.9297,-1.9252,-1.9535,-1.9943,-2.0449,-2.051,-2.0729,-2.1023,-2.1355,-2.1683,-2.1957,-2.2126,-2.2203,-2.2237,-2.2237,-2.2826,-2.3545,-2.4364,-2.5084,-2.5837,-2.6632,-2.735,-2.7824,-2.7866,-2.8452,-2.8878,-2.8878,-2.9184,-2.9198,-2.874,-2.8126,-2.7891,-2.8197,-2.7972,-2.7758,-2.7625,-2.7625,-2.7683,-2.7815,-2.7815,-2.7965,-2.8235,-2.8348,-2.8348,-2.8235,-2.8235,-2.808,-2.7823,-2.7815,-2.7733,-2.7625,-2.76,-2.76,-2.7643,-2.8056,-2.8422,-2.8779,-2.9542,-3.0113,-3.0439,-3.0093,-2.9805,-2.9343,-2.7706,-2.6742,-2.6029,-2.4934,-2.4398,-2.4141,-2.4141,-2.4323,-2.4531,-2.4617,-2.4819,-2.4954,-2.4678,-2.4043,-2.3219,-2.2216,-2.136,-2.0613,-1.9943,-2.0106,-2.045,-2.0786,-2.1432,-2.1988,-2.2177,-2.2262,-2.2296,-2.2296,-2.2296,-2.2296,-2.2296,-2.231,-2.2413,-2.2681,-2.282,-2.3109,-2.3575,-2.3724,-2.3936,-2.419,-2.3465,-2.3061,-2.3052,-2.1456,-2.063,-2.063,-1.9776,-1.9361,-1.9361,-1.9315,-1.9238,-2.0459,-2.0569,-2.0778,-2.0787,-2.1063,-2.1416,-2.1646,-2.1909,-2.2,-2.155,-2.1473,-2.1486,-2.1486,-2.163,-2.2358,-2.4195,-2.466,-2.5414,-2.7257,-2.768,-2.8018,-2.8611,-2.9337,-2.9764,-2.9764,-3.0258,-3.0409,-3.0029,-2.9138,-2.8529,-2.8364,-2.8079,-2.7898,-2.7758,-2.7848,-2.7905,-2.7955,-2.8152,-2.8308,-2.8439,-2.8574,-2.8614,-2.8566,-2.8479,-2.8358,-2.8226,-2.8029,-2.7873,-2.7733,-2.765,-2.76,-2.7643,-2.8137,-2.8502,-2.8803,-2.9744,-3.0266,-3.0535,-3.0785,-3.0406,-2.9621,-2.8444,-2.7421,-2.6412,-2.5183,-2.4667,-2.448,-2.448,-2.4634,-2.4827,-2.4934,-2.5096,-2.5111,-2.469,-2.4043,-2.3191,-2.2084,-2.1386,-2.0769,-2.014,-2.0579,-2.1143,-2.1494,-2.1865,-2.2168,-2.2254,-2.2282,-2.2296,-2.2296,-2.2296,-2.2296,-2.2296,-2.2344,-2.246,-2.2672,-2.291,-2.3206,-2.3575,-2.3816,-2.4018,-2.4191,-2.4054,-2.3953,-2.3897,-2.2885,-2.2362,-2.2364,-2.0896,-2.019,-2.0181,-1.948,-1.9401,-2.0941,-2.0974,-2.1087,-2.1111,-2.1378,-2.1683,-2.1855,-2.1789,-2.158,-2.127,-2.0928,-2.067,-2.067,-2.0962,-2.1817,0.0,0.0,0.0,-2.7486,-2.8094,-2.8611,-2.9389,-3.0133,-3.0581,-3.0581,-3.0847,-3.0903,-3.0601,-2.9845,-2.9182,-2.8724,-2.8438,-2.8235,-2.8079,-2.8135,-2.825,-2.8389,-2.874,-2.8982,-2.9066,-2.928,-2.9295,-2.9173,-2.9005,-2.8795,-2.851,-2.8267,-2.8062,-2.7898,-2.7858,-2.785,-2.79,-2.8421,-2.8756,-2.9082,-2.9941,-3.0384,-3.0651,-3.1052,-3.0872,-3.0314,-2.9326,-2.8296,-2.7207,-2.6087,-2.5369,-2.495,-2.495,-2.5072,-2.5219,-2.5235,-2.5278,-2.517,-2.4658,-2.4147,-2.3398,-2.2053,-2.1536,-2.1155,-2.0535,-2.0909,-2.1456,-2.1781,-2.2042,-2.222,-2.2282,-2.2296,-2.2296,-2.2296,-2.2296,-2.2296,-2.2296,-2.2358,-2.2487,-2.2685,-2.2957,-2.3242,-2.3575,-2.3856,-2.4066,-2.4238,-2.4312,-2.433,-2.4294,-2.3472,-2.3031,-2.3005,-2.1702,-2.107,-2.1052,-2.044,-2.0318,-2.1183,-2.1238,-2.1371,-2.1425,-2.1654,-2.1861,-2.1867,-2.1432,-2.1004,-2.0915,-2.034,-1.9849,-1.9849,-2.05,-2.1537,-2.3004,0.0,-2.5244,-2.7359,-2.8425,-2.9272,-3.0015,-3.0751,-3.119,-3.119,-3.1083,-3.0964,-3.0753,-3.0347,-2.9845,-2.9197,-2.8928,-2.8724,-2.8565,-2.8541,-2.8684,-2.8997,-2.9424,-2.9714,-2.9853,-3.0116,-3.0116,-2.9875,-2.9663,-2.9296,-2.8787,-2.8565,-2.8316,-2.8103,-2.821,-2.8252,-2.8317,-2.8771,-2.9106,-2.9411,-3.0075,-3.0502,-3.0753,-3.1092,-3.119,-3.1052,-3.0118,-2.9104,-2.8083,-2.7131,-2.6192,-2.5462,-2.5424,-2.5519,-2.5567,-2.5416,-2.5336,-2.5151,-2.4592,-2.4281,-2.3701,-2.2177,-2.1803,-2.1606,-2.0989,-2.1182,-2.1555,-2.1884,-2.2086,-2.2234,-2.2282,-2.2296,-2.2296,-2.2296,-2.2296,-2.2296,-2.2296,-2.2372,-2.2492,-2.2707,-2.297,-2.3265,-2.3617,-2.3877,-2.4124,-2.4312,-2.4403,-2.4438,-2.443,-2.3681,-2.3249,-2.317,-2.2362,-2.195,-2.1933,-2.1644,-2.1485,-2.1317,-2.1433,-2.1625,-2.1641,-2.1882,-2.1963,-2.1314,-2.1169,0.0,0.0,-1.919,-1.9088,-1.9088,-1.9701,-2.0707,-2.2237,-2.3613,-2.5058,-2.6666,-2.8113,-2.9272,0.0,-3.0751,-3.119,-3.119,-3.1171,-3.1103,-3.0955,-3.0814,-3.0363,-2.947,-2.938,-2.9342,-2.932,-2.932,-2.9349,-2.9477,-2.978,-3.0006,-3.0138,-3.0359,-3.0393,-3.0295,-3.0038,-2.9724,-2.9349,-2.8959,-2.8708,-2.8574,-2.8486,-2.8519,-2.8654,-2.9075,-2.932,-2.9546,-3.0207,-3.0551,-3.0753,-3.1092,-3.119,-3.1044,-3.0159,-2.9313,-2.8415,-2.7379,-2.6475,-2.5778,-2.56,-2.5584,-2.5557,-2.5363,-2.5232,-2.5009,-2.4467,-2.4211,-2.3823,-2.2823,-2.2145,-2.1625,-2.1287,-2.1487,-2.1812,-2.2103,-2.2225,-2.2291,-2.2296,-2.2296,-2.2296,-2.2296,-2.2296,-2.2296,-2.2296,-2.2413,-2.256,-2.2764,-2.3074,-2.3403,-2.3744,-2.4018,-2.4257,-2.4452,-2.4582,-2.4626,-2.4566,-2.4356,-2.4196,-2.4072,-2.3206,-2.2767,-2.2685,-2.1879,-2.1732,-2.1631,-2.1736,-2.1878,-2.194,-2.2103,-2.2051,-2.1275,0.0,0.0,0.0,-1.8335,-1.8208,-1.7831,-1.8983,0.0,-2.1541,-2.3289,-2.5015,-2.648,-2.8037,-2.9272,-3.0015,-3.0751,-3.119,-3.119,-3.119,-3.1143,-3.1015,-3.0964,-3.0683,-3.0057,-2.9913,-2.9856,-2.9856,-2.9897,-2.9984,-3.007,-3.0326,-3.0518,-3.063,-3.0785,-3.0794,-3.0638,-3.038,-3.0044,-2.9633,-2.9379,-2.9159,-2.9013,-2.912,-2.9204,-2.9317,-2.9683,-2.9897,-3.0087,-3.0539,-3.0773,-3.0903,-3.1112,-3.119,-3.1072,-3.0262,-2.9444,-2.864,-2.8104,-2.7056,-2.6007,-2.5805,-2.5677,-2.553,-2.5169,-2.4962,-2.4723,-2.424,-2.3826,-2.3351,-2.2728,-2.2209,-2.175,-2.1415,-2.1616,-2.193,-2.2162,-2.2262,-2.2296,-2.2296,-2.2296,-2.2296,-2.2296,-2.2296,-2.2296,-2.2296,-2.2427,-2.2574,-2.2782,-2.3139,-2.3495,-2.3836,-2.4144,-2.4383,-2.4603,-2.4701,-2.474,-2.4698,-2.4601,-2.4494,-2.4347,-2.386,-2.3584,-2.3508,-2.2922,-2.2755,-2.192,-2.1978,-2.2075,-2.216,-2.2248,-2.2065,-2.1143,-2.0331,0.0,-1.7879,-1.7447,-1.7202,-1.6773,0.0,-1.9845,0.0,-2.268,-2.4541,-2.6022,-2.7546,-2.8831,-2.9761,-3.0522,-3.103,-3.1173,-3.119,-3.1151,-3.1063,-3.1044,-3.0915,-3.0609,-3.0401,-3.0316,-3.0346,-3.0389,-3.0472,-3.058,-3.0802,-3.0944,-3.0995,-3.1131,-3.1092,-3.0903,-3.0692,-3.0363,-2.9932,-2.9815,-2.9669,-2.9522,-2.9802,-2.9924,-2.9976,-3.0267,-3.0431,-3.0539,-3.0802,-3.0932,-3.0955,-3.1112,-3.1041,-3.0833,-3.0275,-2.9536,-2.8794,-2.8542,-2.7414,-2.6177,-2.5907,-2.5669,-2.5389,-2.4938,-2.4647,-2.4418,-2.4101,-2.3663,-2.3162,-2.2604,-2.2408,-2.2162,-2.1588,-2.1736,-2.2026,-2.2183,-2.2276,-2.2296,-2.2296,-2.2296,-2.2296,-2.2296,-2.2296,-2.2296,-2.2296,-2.2432,-2.2592,-2.2795,-2.3194,-2.3569,-2.3918,-2.4238,-2.4522,-2.4727,-2.4808,-2.4844,-2.4847,-2.4734,-2.4574,-2.4424,-2.4293,-2.4182,-2.4045,-2.3806,-2.3602,-2.199,-2.2075,-2.2183,-2.22,-2.2248,-2.1916,-2.0454,0.0,-1.8581,-1.7103,-1.6274,-1.5994,-1.6597,-1.7405,-1.8459,-1.9887,0.0,-2.3021,-2.4491,-2.598,-2.747,-2.8934,0.0,-3.0463,-3.1131,-3.119,-3.119,-3.1171,-3.1171,-3.1092,-3.0863,-3.0741,-3.072,-3.0831,-3.0843,-3.0843,-3.0871,-3.0944,-3.0995,-3.0995,-3.1131,-3.1131,-3.0995,-3.0903,-3.072,-3.0426,-3.0288,-3.0238,-3.0217,-3.023,-3.0318,-3.0455,-3.0601,-3.0609,-3.0539,-3.0802,-3.0831,-3.0761,-3.0955,-3.0589,-3.0036,-3.0078,-2.9592,-2.8811,-2.7966,-2.7034,-2.6207,-2.5754,-2.5397,-2.506,-2.4645,-2.4343,-2.4141,-2.4099,-2.4235,-2.4061,-2.299,-2.3077,-2.3045,-2.1964,-2.1976,-2.2205,-2.2282,-2.2305,-2.2296,-2.2296,-2.2296,-2.2296,-2.2296,-2.2296,-2.2296,-2.2296,-2.2465,-2.2672,-2.2872,-2.3254,-2.3664,-2.4059,-2.4336,-2.4611,-2.4874,-2.4948,-2.4977,-2.498,-2.4912,-2.4751,-2.4486,-2.4429,-2.4219,-2.3917,-2.3774,-2.3502,-2.2065,-2.2223,-2.2268,-2.231,-2.2338,-2.1973,-2.0513,0.0,-1.9015,-1.6652,-1.6603,-1.6808,-1.6212,-1.7393,-1.8797,-1.9824,-2.129,-2.2651,-2.3695,-2.5482,-2.6919,-2.7546,-2.9085,-3.0226,-3.0514,-3.0937,-3.119,-3.119,-3.119,-3.1179,-3.1092,-3.1024,-3.1032,-3.1072,-3.1072,-3.1072,-3.1072,-3.1112,-3.1131,-3.1131,-3.1171,-3.1131,-3.0995,-3.0964,-3.0843,-3.063,-3.0663,-3.0613,-3.0543,-3.0667,-3.0757,-3.0814,-3.0855,-3.0855,-3.0814,-3.0892,-3.0871,-3.0776,-3.0443,-3.0149,-2.9772,-2.898,-2.8508,-2.8204,-2.7793,-2.7002,-2.6154,-2.5764,-2.5296,-2.4863,-2.4572,-2.431,-2.4141,-2.431,-2.4245,-2.3958,-2.3303,-2.3081,-2.28,-2.2061,-2.2063,-2.222,-2.2282,-2.2296,-2.2296,-2.2296,-2.2296,-2.2296,-2.2296,-2.2296,-2.2296,-2.2296,-2.2487,-2.2672,-2.2885,-2.3301,-2.3727,-2.4126,-2.4451,-2.4721,-2.4955,-2.5025,-2.5063,-2.506,-2.4916,-2.4749,-2.4564,-2.4411,-2.4191,-2.3896,-2.3714,-2.3457,-2.192,-2.2235,-2.2432,-2.2474,-2.2322,-2.1858,-2.0635,-1.9962,-1.8955,-1.6635,-1.6745,-1.7026,-1.6204,-1.7316,-1.8718,-1.9874,-2.0997,-2.2117,-2.3276,-2.4955,-2.6226,-2.664,-2.8518,-2.9863,-3.0072,-3.0768,-3.119,-3.119,-3.119,-3.119,-3.119,-3.119,-3.119,-3.119,-3.119,-3.119,-3.119,-3.119,-3.119,-3.119,-3.119,-3.1151,-3.1063,-3.1063,-3.0984,-3.0843,-3.0952,-3.0952,-3.0863,-3.1004,-3.1063,-3.1063,-3.1024,-3.0995,-3.0964,-3.0863,-3.0689,-3.0401,-2.9976,-2.9572,-2.9034,-2.8109,-2.7655,-2.7477,-2.7425,-2.6845,-2.6162,-2.5783,-2.5208,-2.467,-2.449,-2.4364,-2.4315,-2.434,-2.424,-2.394,-2.3333,-2.2998,-2.2675,-2.2166,-2.2143,-2.224,-2.2282,-2.2296,-2.2296,-2.2296,-2.2296,-2.2296,-2.2296,-2.2296,-2.2296,-2.2296,-2.2487,-2.2672,-2.2885,-2.3333,-2.3768,-2.4173,-2.451,-2.4799,-2.5016,-2.5084,-2.5115,-2.5097,-2.4918,-2.4738,-2.4564,-2.4384,-2.4153,-2.3876,-2.3658,-2.3342,-2.1506,-2.2091,-2.2707,-2.2707,-2.2151,-2.1415,-2.0674,-1.9323,-1.7988,-1.7153,-1.6364,-1.6032,-1.6764,-1.6955,-1.772,-1.9841,-2.0271,-2.1058,-2.3201,-2.4158,-2.5139,-2.6539,-2.807,-2.9306,-3.0032,-3.0768,-3.119,-3.119,-3.119,-3.119,-3.119,-3.119,-3.119,-3.119,-3.119,-3.119,-3.119,-3.119,-3.119,-3.119,-3.119,-3.119,-3.119,-3.119,-3.1199,-3.119,-3.1199,-3.1199,-3.119,-3.119,-3.119,-3.119,-3.1063,-3.0964,-3.0883,-3.0753,-3.0165,-2.9437,-2.9635,-2.8751,-2.7557,-2.7736,-2.73,-2.6708,-2.6708,-2.6513,-2.6207,-2.5727,-2.5076,-2.4477,-2.433,-2.4549,-2.4662,-2.4141,-2.4317,-2.425,-2.2973,-2.2914,-2.2914,-2.232,-2.2254,-2.2296,-2.2296,-2.2296,-2.2296,-2.2296,-2.2296,-2.2296,-2.2296,-2.2296,-2.2296,-2.2296,-2.2487,-2.2672,-2.2885,-2.3333,-2.3768,-2.4173,-2.4516,-2.4825,-2.5085,-2.5163,-2.5168,-2.5097,-2.4974,-2.4775,-2.4503,-2.4366,-2.4134,-2.3795,-2.3598,-2.3133,-2.0532,-2.0999,-2.1214,-2.1315,-2.1156,-2.0821,-2.0176,-1.957,-1.8789,-1.747,-1.7335,-1.7335,-1.7031,-1.7437,-1.8366,-2.0063,-2.0394,0.0,-2.3325,-2.4236,-2.5004,-2.5909,-2.7775,-2.9492,-3.0725,-3.1055,-3.119,-3.119,-3.119,-3.119,-3.119,-3.119,-3.119,-3.119,-3.119,-3.119,-3.119,-3.119,-3.119,-3.119,-3.119,-3.119,-3.119,-3.119,-3.119,-3.119,-3.119,-3.119,-3.119,-3.119,-3.119,-3.1171,-3.1004,-3.0932,-3.0804,-3.0077,-2.9684,-2.94,-2.8511,-2.7943,-2.7563,-2.719,-2.6886,-2.6691,-2.6691,-2.6513,-2.6155,-2.5505,-2.513,-2.489,-2.4739,-2.4966,-2.5078,-2.4541,-2.4269,-2.3918,-2.3145,-2.2709,-2.2446,-2.2304,-2.2291,-2.2296,-2.2296,-2.2296,-2.2296,-2.2296,-2.2296,-2.2296,-2.2296,-2.2296,-2.2296,-2.2296,-2.2399,-2.256,-2.2816,-2.3265,-2.3706,-2.4107,-2.4458,-2.4751,-2.5016,-2.5101,-2.5098,-2.5035,-2.4851,-2.465,-2.4429,-2.4247,-2.3936,-2.3515,-2.3178,-2.276,0.0,-2.0102,-2.0394,-2.0786,-2.0675,-2.0293,-1.9577,-1.9118,-1.8544,-1.7511,-1.7597,-1.7783,-1.7547,-1.8214,-1.9186,-2.0359,-2.0863,-2.1748,-2.3589,-2.4666,-2.5791,-2.7224,-2.8616,-2.9919,-3.108,-3.119,-3.119,-3.119,-3.119,-3.119,-3.119,-3.119,-3.119,-3.119,-3.119,-3.119,-3.119,-3.119,-3.119,-3.119,-3.119,-3.119,-3.119,-3.119,-3.119,-3.119,-3.119,-3.119,0.0,-3.119,-3.119,-3.1171,-3.1012,-3.0944,-3.0811,-2.9871,-2.9406,-2.9093,-2.7967,-2.7462,-2.7221,-2.6818,-2.6691,-2.67,-2.6674,-2.6469,-2.6154,-2.5607,-2.5381,-2.5274,-2.5211,-2.5411,-2.5409,-2.4602,-2.4249,-2.3838,-2.2946,-2.2496,-2.2248,-2.2282,-2.2296,-2.2296,-2.2296,-2.2296,-2.2296,-2.2296,-2.2296,-2.2296,-2.2296,-2.2296,-2.2296,-2.2296,-2.2358,-2.2501,-2.2738,-2.3152,-2.3575,-2.4029,-2.4354,-2.4666,-2.4945,-2.5031,-2.5034,-2.496,-2.4757,-2.4562,-2.4367,-2.4065,-2.3702,-2.3277,-2.2932,-2.2553,0.0,-1.9255,-2.0025,-2.0779,-2.0448,-1.9731,-1.8923,-1.8101,0.0,-1.7336,-1.7316,-1.7514,-1.819,-1.9137,-2.0022,-2.0705,-2.154,-2.2594,-2.3999,-2.5441,-2.7303,-2.9896,-3.0207,-3.0467,-3.1134,-3.119,-3.119,-3.119,-3.119,-3.119,-3.119,-3.119,-3.119,-3.119,-3.119,-3.119,-3.119,-3.119,-3.119,-3.119,-3.119,-3.119,-3.119,-3.119,-3.119,-3.119,-3.119,-3.119,-3.119,-3.119,-3.119,-3.1199,-3.1063,-3.097,-3.0827,-2.9953,-2.9206,-2.8523,-2.7867,-2.7178,-2.6623,-2.6691,-2.6691,-2.6683,-2.6632,-2.6425,-2.6162,-2.5972,-2.5789,-2.5661,-2.5719,-2.5885,-2.5701,-2.4439,-2.4267,-2.3998,-2.2534,-2.2262,-2.2296,-2.2296,-2.2296,-2.2296,-2.2296,-2.2296,-2.2296,-2.2296,-2.2296,-2.2296,-2.2296,-2.2296,-2.2296,-2.2296,-2.2366,-2.2474,-2.2672,-2.2998,-2.3422,-2.3966,-2.4238,-2.4536,-2.4877,-2.4946,-2.4946,-2.4877,-2.4671,-2.4469,-2.4257,-2.3812,-2.3421,-2.3095,-2.2829,-2.2511,-1.6141,0.0,-1.8441,-1.8628,-1.8546,-1.8357,0.0,-1.737,-1.683,0.0,0.0,-1.7544,-1.8306,-1.9189,-2.0045,-2.0829,-2.1602,-2.2803,-2.4804,-2.6696,-2.8466,-3.0023,-3.0207,-3.0467,-3.1134,-3.119,-3.119,-3.119,-3.119,-3.119,-3.119,-3.119,-3.119,-3.119,-3.119,-3.119,-3.119,-3.119,-3.119,-3.119,-3.119,-3.119,-3.119,-3.119,-3.119,-3.119,-3.119,-3.119,-3.119,-3.119,-3.119,-3.1199,-3.1063,-3.067,-3.0053,-2.9246,-2.8508,-2.7834,-2.7102,-2.6775,-2.6691,-2.6691,-2.6691,-2.67,-2.6691,-2.6538,-2.6339,-2.6234,-2.6144,-2.6064,-2.6145,-2.6226,-2.5972,-2.4642,-2.44,-2.4064,-2.2603,-2.2282,-2.2296,-2.2296,-2.2296,-2.2296,-2.2296,-2.2296,-2.2296,-2.2296,-2.2296,-2.2296,-2.2296,-2.2296,-2.2296,-2.2296,-2.2302,-2.2427,-2.2672,-2.2961,-2.3348,-2.3886,-2.4182,-2.4469,-2.4811,-2.4841,-2.4793,-2.467,-2.4365,-2.4115,-2.3918,-2.3596,-2.3304,-2.302,-2.2751,-2.2421,-1.5481,-1.6554,-1.7533,-1.7901,-1.8219,-1.8262,-1.752,0.0,0.0,0.0,0.0,-1.7734,-1.889,-1.9806,-2.0656,-2.1418,-2.2457,-2.4019,-2.6516,-2.8078,-2.942,-3.065,-3.0791,-3.0896,-3.1168,-3.119,-3.119,-3.119,-3.119,-3.119,-3.119,-3.119,-3.119,-3.119,-3.119,-3.119,-3.119,-3.119,-3.119,-3.119,-3.119,-3.119,-3.119,-3.119,-3.119,-3.119,-3.119,-3.119,-3.119,-3.119,-3.119,-3.1157,-3.074,-3.0333,-2.9844,-2.8701,-2.8063,-2.7635,-2.6893,-2.6674,-2.6691,-2.6691,-2.6691,-2.6691,-2.6691,-2.6624,-2.6521,-2.6461,-2.639,-2.6346,-2.6417,-2.6461,-2.6143,-2.477,-2.4477,-2.4101,-2.2623,-2.2296,-2.2296,-2.2296,-2.2296,-2.2296,-2.2296,-2.2296,-2.2296,-2.2296,-2.2296,-2.2296,-2.2296,-2.2296,-2.2296,-2.2296,-2.2338,-2.2432,-2.2672,-2.2957,-2.3301,-2.3774,-2.4058,-2.4347,-2.4654,-2.472,-2.4681,-2.4513,-2.4266,-2.4045,-2.3846,-2.3582,-2.3316,-2.3036,-2.2738,-2.2421,-1.5481,-1.6281,-1.7107,-1.8043,-1.8597,-1.8563,-1.7319,0.0,0.0,0.0,0.0,0.0,0.0,-2.0574,0.0,-2.2238,-2.3666,-2.5546,-2.8025,-2.9063,-3.0006,-3.1167,-3.1402,-3.1413,-3.1218,-3.119,-3.119,-3.119,-3.119,-3.119,-3.119,-3.119,-3.119,-3.119,-3.119,-3.119,-3.119,-3.119,-3.119,-3.119,-3.119,-3.119,-3.119,-3.119,-3.119,-3.119,-3.119,-3.119,-3.119,-3.1072,-3.103,-3.0962,-3.0218,-2.9871,-2.9582,-2.828,-2.7731,-2.7536,-2.6919,-2.6691,-2.6691,-2.6691,-2.6691,-2.6691,-2.6691,-2.6691,-2.6683,-2.6632,-2.6572,-2.6546,-2.6606,-2.6623,-2.6286,-2.4991,-2.4575,-2.4135,-2.2767,-2.2372,-2.2296,-2.2296,-2.2296,-2.2296,-2.2296,-2.2296,-2.2296,-2.2296,-2.2296,-2.2296,-2.2296,-2.2296,-2.231,-2.2302,-2.238,-2.2501,-2.2712,-2.297,-2.3277,-2.368,-2.395,-2.422,-2.4469,-2.4582,-2.455,-2.4376,-2.4247,-2.4094,-2.3896,-2.3631,-2.3357,-2.3086,-2.2764,-2.2465,-1.5481,-1.6255,-1.7169,-1.8657,-1.8506,-1.81,-1.8483,0.0,0.0,0.0,0.0,0.0,0.0,-2.0894,-2.212,-2.2923,-2.4703,-2.6323,-2.7218,-2.8535,-2.9667,-3.0313,-3.0949,-3.1301,-3.121,-3.119,-3.119,-3.119,-3.119,-3.119,-3.119,-3.119,-3.119,-3.119,-3.119,-3.119,-3.119,-3.119,-3.119,-3.119,-3.119,-3.119,-3.119,-3.119,-3.119,-3.119,-3.119,-3.119,-3.114,-3.0531,-3.0277,-3.0209,-2.9448,-2.8746,-2.812,-2.7891,-2.7393,-2.6852,-2.6733,-2.6691,-2.6691,-2.6691,-2.6691,-2.6691,-2.6691,-2.6691,-2.67,-2.6683,-2.6691,-2.6666,-2.6683,-2.6683,-2.6471,-2.5634,-2.494,-2.4271,-2.341,-2.2742,-2.2296,-2.2296,-2.2296,-2.2296,-2.2296,-2.2296,-2.2296,-2.2296,-2.2296,-2.2296,-2.2296,-2.2296,-2.2324,-2.2386,-2.2446,-2.2587,-2.2855,-2.3061,-2.3324,-2.3671,-2.3947,-2.4191,-2.4411,-2.4384,-2.4321,-2.4238,-2.4153,-2.4045,-2.3896,-2.3631,-2.3357,-2.3086,-2.2764,-2.2465,-1.6007,-1.657,-1.7391,-1.9825,-1.9713,-1.9067,-1.937,0.0,0.0,0.0,0.0,0.0,0.0,0.0,-2.2335,-2.3819,-2.5224,-2.6494,-2.7509,-2.8254,-2.8912,-2.952,-3.0258,-3.0679,-3.0607,-3.0962,-3.119,-3.119,-3.119,-3.103,-3.0632,-3.0615,-3.0421,-3.0025,-3.0017,-3.0017,-3.0017,-3.0017,-3.0415,-3.119,-3.119,-3.119,-3.119,-3.119,-3.0979,-3.0615,-3.0615,-3.0378,-2.9983,-2.9643,-2.9499,-2.9423,-2.8653,-2.8137,-2.7756,-2.7342,-2.6996,-2.6691,-2.6691,-2.6691,-2.6691,-2.6691,-2.6691,-2.6691,-2.6691,-2.6691,-2.6691,-2.6691,-2.6691,-2.6691,-2.6691,-2.6691,-2.6505,-2.5786,-2.5033,-2.4296,-2.3553,-2.2826,-2.2296,-2.2296,-2.2296,-2.2296,-2.2296,-2.2296,-2.2296,-2.2296,-2.2296,-2.2296,-2.2296,-2.2296,-2.2324,-2.2391,-2.252,-2.2699,-2.2936,-2.3235,-2.354,-2.3846,-2.4047,-2.421,-2.4339,-2.4275,-2.4229,-2.4201,-2.4171,-2.4084,-2.3957,-2.3678,-2.3431,-2.3205,-2.279,-2.2448,-1.6236,-1.6714,-1.7534,-2.0498,-2.0625,-2.0085,-2.0365,-2.0677,0.0,0.0,0.0,0.0,0.0,-2.2195,-2.2967,-2.4501,-2.5576,-2.6579,-2.7615,-2.793,-2.8211,-2.8719,-2.9467,-2.9895,-2.9846,-3.0345,-3.0674,-3.0674,-3.0674,-3.0438,-2.9871,-2.9846,-2.9575,-2.9018,-2.9001,-2.9001,-2.9001,-2.9001,-2.9577,-3.0674,-3.0674,-3.0674,-3.0674,-3.0674,-3.0378,-2.9846,-2.9846,-2.9516,-2.8984,-2.8807,-2.873,-2.8636,-2.7841,-2.7536,-2.7469,-2.6911,-2.6691,-2.6691,-2.6691,-2.6691,-2.6691,-2.6691,-2.6691,-2.6691,-2.6691,-2.6691,-2.6691,-2.6691,-2.6691,-2.6691,-2.6691,-2.6691,-2.6556,-2.5989,-2.5152,-2.4347,-2.3788,-2.2945,-2.2296,-2.2296,-2.2296,-2.2296,-2.2296,-2.2296,-2.2296,-2.2296,-2.2296,-2.2296,-2.2296,-2.2302,-2.2366,-2.2432,-2.2632,-2.2885,-2.3133,-2.3495,-2.3789,-2.4006,-2.4125,-2.4219,-2.4266,-2.421,-2.4182,-2.4182,-2.4152,-2.4055,-2.3936,-2.3678,-2.3422,-2.3205,-2.2756,-2.2371,-1.5551,-1.6327,-1.7475,-1.9877,-2.0237,0.0,-2.1724,-2.1406,0.0,-2.065,0.0,0.0,0.0,-2.3431,-2.4726,-2.4637,-2.5856,-2.6825,-2.6801,-2.7393,-2.7841,-2.79,-2.8604,-2.9069,-2.9077,-2.9128,-2.9162,-2.9162,-2.9162,-2.9137,-2.9077,-2.9077,-2.9052,-2.9001,-2.9001,-2.9001,-2.9001,-2.9001,-2.9052,-2.9162,-2.9162,-2.9162,-2.9162,-2.9162,-2.9128,-2.9077,-2.9077,-2.9052,-2.8942,-2.8179,-2.7891,-2.7815,-2.7072,-2.6776,-2.6767,-2.6716,-2.6691,-2.6691,-2.6691,-2.6691,-2.6691,-2.6691,-2.6691,-2.6691,-2.6691,-2.6691,-2.6691,-2.6691,-2.6691,-2.6691,-2.6691,-2.6691,-2.6699,-2.6623,-2.5532,-2.4482,-2.4423,-2.33,-2.2296,-2.2296,-2.2296,-2.2296,-2.2296,-2.2296,-2.2296,-2.2296,-2.2296,-2.2296,-2.2296,-2.2358,-2.2432,-2.2574,-2.2829,-2.3157,-2.3606,-2.3855,-2.4015,-2.4084,-2.4152,-2.4199,-2.4208,-2.4142,-2.4103,-2.4103,-2.3977,-2.3856,-2.3714,-2.3506,-2.3244,-2.2923,-2.2575,-2.2209,-1.6005,-1.6695,-1.759,-2.0492,-2.1071,0.0,0.0,-2.2758,-2.2405,-2.2327,-2.247,-2.2567,-2.2434,-2.3764,-2.4812,-2.4632,-2.5817,-2.6767,-2.6716,-2.6936,-2.7122,-2.7122,-2.7799,-2.8256,-2.8256,-2.8714,-2.9001,-2.9001,-2.9001,-2.879,-2.829,-2.8256,-2.8044,-2.7588,-2.758,-2.758,-2.758,-2.758,-2.758,-2.7588,-2.8544,-2.9001,-2.9001,-2.9001,-2.8739,-2.8256,-2.8256,-2.7994,-2.7554,-2.7241,-2.7122,-2.7097,-2.681,-2.6691,-2.6691,-2.6691,-2.6691,-2.6691,-2.6691,-2.6691,-2.6691,-2.6691,-2.6691,-2.6691,-2.6691,-2.6691,-2.6691,-2.6691,-2.6691,-2.6691,-2.6691,-2.6691,-2.6691,-2.6691,-2.5574,-2.4499,-2.4499,-2.3334,-2.2296,-2.2296,-2.2296,-2.2296,-2.2296,-2.2296,-2.2296,-2.2296,-2.2296,-2.2324,-2.2366,-2.2427,-2.2533,-2.272,-2.3114,-2.3506,-2.3804,-2.3967,-2.4094,-2.4161,-2.4189,-2.4199,-2.4199,-2.4141,-2.4084,-2.4035,-2.3907,-2.3773,-2.3631,-2.3444,-2.3168,-2.282,-2.2414,-2.1998,-1.6051,-1.68,-1.767,-2.0622,0.0,0.0,-2.3489,-2.3645,-2.3513,-2.3682,-2.3806,-2.3822,-2.3597,-2.4453,-2.5154,-2.498,-2.5936,-2.6691,-2.6691,-2.6742,-2.6767,-2.6767,-2.7241,-2.7538,-2.7521,-2.8012,-2.8326,-2.8282,-2.8273,-2.8027,-2.7477,-2.7443,-2.7224,-2.6716,-2.6691,-2.6691,-2.6691,-2.6691,-2.6691,-2.6708,-2.7774,-2.8273,-2.8273,-2.8273,-2.7968,-2.7443,-2.7443,-2.7173,-2.6691,-2.6691,-2.6691,-2.6691,-2.6691,-2.6691,-2.6691,-2.6691,-2.6691,-2.6691,-2.6691,-2.6691,-2.6691,-2.6691,-2.6691,-2.6691,-2.6691,-2.6691,-2.664,-2.642,-2.6344,-2.6302,-2.6073,-2.6352,-2.6632,-2.6404,-2.5405,-2.444,-2.4203,-2.3181,-2.2296,-2.2296,-2.2296,-2.2296,-2.2296,-2.2296,-2.2296,-2.2296,-2.2324,-2.2366,-2.2419,-2.2528,-2.2699,-2.2986,-2.3392,-2.3707,-2.3877,-2.4016,-2.4122,-2.417,-2.417,-2.417,-2.417,-2.4045,-2.3946,-2.3886,-2.3709,-2.3533,-2.3389,-2.3184,-2.288,-2.2513,-2.2104,-2.1688,-1.547,-1.6509,-1.7694,0.0,0.0,0.0,-2.3757,-2.3831,-2.3784,-2.4474,-2.5139,-2.5522,-2.5252,-2.5707,-2.6018,-2.5744,-2.6267,-2.6691,-2.6691,-2.6817,-2.6893,-2.6893,-2.695,-2.6967,-2.6909,-2.6893,-2.6842,-2.6716,-2.6691,-2.6691,-2.6691,-2.6691,-2.6691,-2.6691,-2.6691,-2.6691,-2.6691,-2.6691,-2.6691,-2.6691,-2.6691,-2.6691,-2.6691,-2.6691,-2.6691,-2.6691,-2.6691,-2.6691,-2.6691,-2.6691,-2.6691,-2.6691,-2.6691,-2.6691,-2.6691,-2.6691,-2.6691,-2.6691,-2.6691,-2.6691,-2.6691,-2.6691,-2.6691,-2.6691,-2.6691,-2.6691,-2.653,-2.5812,-2.5584,-2.5423,-2.4694,-2.5582,-2.6488,-2.5769,-2.5025,-2.4288,-2.3553,-2.2826,-2.2296,-2.2296,-2.2296,-2.2296,-2.2296,-2.2296,-2.2296,-2.2296,-2.2358,-2.2427,-2.2501,-2.2672,-2.2986,-2.345,-2.362,-2.3755,-2.3886,-2.4016,-2.4103,-2.4103,-2.4103,-2.4103,-2.4094,-2.3846,-2.3671,-2.3608,-2.3336,-2.3098,-2.2898,-2.2707,-2.2357,-2.189,-2.163,-2.1245,-1.6218,-1.7817,0.0,-2.113,0.0,0.0,0.0,-2.4024,0.0,0.0,-2.5449,-2.587,-2.56,-2.5965,-2.6248,-2.6024,-2.6495,-2.6917,-2.6917,-2.699,-2.7023,-2.6983,-2.7031,-2.7031,-2.6901,-2.6893,-2.6842,-2.6716,-2.6691,-2.6691,-2.6691,-2.6691,-2.6691,-2.6691,-2.6691,-2.6691,-2.6691,-2.6691,-2.6691,-2.6691,-2.6691,-2.6691,-2.6691,-2.6691,-2.6691,-2.6691,-2.6691,-2.6691,-2.6691,-2.6691,-2.6691,-2.6691,-2.6691,-2.6691,-2.6691,-2.6691,-2.6691,-2.6691,-2.6691,-2.6691,-2.6691,-2.6691,-2.6691,-2.6691,-2.6691,-2.6336,-2.5888,-2.5668,-2.5228,-2.4787,-2.4558,-2.4821,-2.51,-2.4888,-2.4255,-2.3663,-2.3444,-2.2826,-2.2296,-2.2296,-2.2296,-2.2296,-2.2296,-2.2296,-2.2324,-2.2358,-2.2427,-2.2574,-2.2885,-2.3098,-2.3313,-2.3548,-2.3689,-2.3788,-2.3828,-2.3873,-2.3896,-2.3896,-2.3842,-2.3882,-2.4016,-2.3765,-2.3604,-2.3522,-2.3214,-2.2961,-2.2764,-2.2557,-2.2209,-2.1753,-2.14,-2.0967,-1.6713,-1.8491,0.0,-2.1689,-2.2686,-2.345,-2.4091,0.0,0.0,-2.5405,-2.6129,-2.6645,-2.6718,-2.6865,-2.6883,-2.6695,-2.6938,-2.716,-2.716,-2.7239,-2.7277,-2.7231,-2.7293,-2.7284,-2.7144,-2.7137,-2.7071,-2.6907,-2.6907,-2.6891,-2.6858,-2.6858,-2.6833,-2.6784,-2.6784,-2.6742,-2.6691,-2.6691,-2.6691,-2.6691,-2.6691,-2.6691,-2.6691,-2.6691,-2.6691,-2.6691,-2.6691,-2.6691,-2.6691,-2.6691,-2.6691,-2.6691,-2.6691,-2.6691,-2.6691,-2.6691,-2.6691,-2.6691,-2.6691,-2.6691,-2.6691,-2.6691,-2.6497,-2.626,-2.626,-2.5744,-2.5101,-2.4814,-2.4408,-2.4,-2.3704,-2.3636,-2.3704,-2.3991,-2.3714,-2.3317,-2.3029,-2.2615,-2.2296,-2.2296,-2.2296,-2.2296,-2.2296,-2.2296,-2.2316,-2.2386,-2.2574,-2.2833,-2.3211,-2.3409,-2.3553,-2.3629,-2.3687,-2.37,-2.3643,-2.3671,-2.3676,-2.3676,-2.364,-2.3649,-2.3718,-2.3524,-2.3342,-2.3226,-2.2914,-2.2615,-2.2335,-2.2144,-2.1771,-2.1253,-2.091,-2.0482,-1.6971,0.0,0.0,-2.1882,-2.2865,0.0,-2.419,-2.4732,-2.5339,-2.6133,-2.6852,-2.7495,-2.8106,-2.7961,-2.7695,-2.7569,-2.7487,-2.745,-2.745,-2.7563,-2.7638,-2.7623,-2.7695,-2.768,-2.7533,-2.7518,-2.7441,-2.7237,-2.7237,-2.7205,-2.7142,-2.7126,-2.7063,-2.6934,-2.6926,-2.6842,-2.6716,-2.6716,-2.6691,-2.6691,-2.6691,-2.6691,-2.6691,-2.6691,-2.6691,-2.6691,-2.6691,-2.6691,-2.6691,-2.6691,-2.6691,-2.6691,-2.6691,-2.6691,-2.6691,-2.6691,-2.6691,-2.6691,-2.6691,-2.6691,-2.6699,-2.6615,-2.615,-2.56,-2.5524,-2.4974,-2.4262,-2.3594,-2.3342,-2.3148,-2.2465,-2.2296,-2.2465,-2.3139,-2.33,-2.3122,-2.244,-2.2296,-2.2296,-2.2296,-2.2296,-2.2296,-2.2296,-2.2296,-2.2338,-2.2419,-2.2777,-2.316,-2.347,-2.3625,-2.37,-2.3678,-2.3623,-2.3513,-2.338,-2.3412,-2.3438,-2.3447,-2.3426,-2.3359,-2.3212,-2.3126,-2.2974,-2.2777,-2.2506,-2.2155,-2.1774,-2.1569,-2.1174,-2.058,-2.0294,-1.9869,-1.7033,-1.9672,0.0,0.0,-2.3359,-2.436,-2.4441,-2.4478,-2.4707,-2.5455,-2.6188,-2.6882,-2.748,-2.745,-2.7473,-2.7899,-2.7861,-2.7791,-2.7791,-2.7908,-2.7959,-2.7844,-2.7941,-2.7916,-2.7672,-2.7665,-2.76,-2.7457,-2.745,-2.7426,-2.741,-2.7364,-2.7261,-2.7151,-2.7031,-2.6934,-2.6859,-2.6742,-2.6691,-2.6691,-2.6691,-2.6691,-2.6691,-2.6691,-2.6691,-2.6691,-2.6691,-2.6691,-2.6691,-2.6691,-2.6691,-2.6691,-2.6691,-2.6691,-2.6691,-2.6691,-2.6691,-2.6691,-2.6691,-2.6691,-2.6598,-2.6023,-2.5735,-2.5499,-2.4914,-2.4228,-2.3596,-2.3435,-2.2978,-2.2491,-2.2338,-2.2296,-2.2338,-2.2491,-2.2533,-2.2491,-2.233,-2.2296,-2.2296,-2.2296,-2.2296,-2.2296,-2.2296,-2.2296,-2.2391,-2.2672,-2.3057,-2.338,-2.3562,-2.3707,-2.372,-2.3564,-2.3439,-2.3289,-2.3098,-2.3052,-2.3011,-2.2952,-2.2902,-2.276,-2.2524,-2.2743,-2.2769,-2.2575,-2.22,-2.1861,-2.1561,-2.1363,-2.0982,-2.0436,-2.006,-1.9558,-1.71,0.0,0.0,-2.3357,0.0,-2.4671,-2.4571,-2.4436,-2.4441,-2.4762,-2.5407,-2.6127,-2.6795,-2.6811,-2.6948,-2.7606,-2.7652,-2.7745,-2.8125,-2.8282,-2.8318,-2.8242,-2.8304,-2.8264,-2.8101,-2.8078,-2.8045,-2.7933,-2.7933,-2.7899,-2.7836,-2.7701,-2.7377,-2.6786,-2.6602,-2.6469,-2.6332,-2.6217,-2.6167,-2.6167,-2.6167,-2.6167,-2.6192,-2.653,-2.6691,-2.6691,-2.6691,-2.6691,-2.6691,-2.6691,-2.6691,-2.6691,-2.6691,-2.6691,-2.6691,-2.6691,-2.648,-2.6167,-2.6167,-2.5938,-2.5582,-2.521,-2.4831,-2.4467,-2.4093,-2.3452,-2.2868,-2.2868,-2.2606,-2.2296,-2.2296,-2.2296,-2.2296,-2.2296,-2.2296,-2.2296,-2.2296,-2.2296,-2.2296,-2.2296,-2.2296,-2.2296,-2.2296,-2.2386,-2.2569,-2.2898,-2.3223,-2.3513,-2.3671,-2.3736,-2.3693,-2.3522,-2.3292,-2.3074,-2.2872,-2.2795,-2.2725,-2.2659,-2.2597,-2.2422,-2.2124,-2.2153,-2.2127,-2.2019,-2.1758,-2.1432,-2.1071,-2.0926,-2.0571,-1.997,-1.9624,-1.9121,-1.6905,0.0,-2.2033,-2.4239,-2.4806,0.0,-2.4654,-2.4497,-2.4375,-2.4248,-2.4694,-2.5335,-2.6065,-2.612,-2.6292,-2.7019,-2.7133,-2.738,-2.8034,-2.8192,-2.8217,-2.8217,-2.8217,-2.8183,-2.8133,-2.8112,-2.8086,-2.8035,-2.8,-2.7949,-2.7826,-2.7628,-2.7095,-2.6164,-2.5932,-2.5728,-2.5524,-2.5453,-2.5414,-2.5414,-2.5414,-2.5414,-2.5431,-2.6031,-2.6454,-2.6691,-2.6691,-2.6691,-2.6691,-2.6691,-2.6691,-2.6691,-2.6691,-2.6615,-2.6505,-2.6505,-2.604,-2.5414,-2.5414,-2.5015,-2.4474,-2.4347,-2.3907,-2.3376,-2.3249,-2.2784,-2.2296,-2.2296,-2.2296,-2.2296,-2.2296,-2.2296,-2.2296,-2.2296,-2.2296,-2.2296,-2.2296,-2.2296,-2.231,-2.2324,-2.2338,-2.2344,-2.2344,-2.2533,-2.2764,-2.3057,-2.3342,-2.3573,-2.373,-2.37,-2.3602,-2.3426,-2.3139,-2.2868,-2.2667,-2.2587,-2.2506,-2.2415,-2.2329,-2.2144,-2.1802,-2.1524,-2.137,-2.1315,-2.1222,-2.0974,-2.0554,-2.0461,-2.0093,-1.9475,-1.9206,-1.8681,0.0,0.0,-2.2601,0.0,-2.4435,-2.4849,0.0,-2.4536,-2.4382,-2.4293,-2.432,-2.4573,-2.5318,-2.5424,-2.5657,-2.6404,-2.6529,-2.6565,-2.6675,-2.6684,-2.6695,-2.6695,-2.6695,-2.6672,-2.6597,-2.6597,-2.6571,-2.6498,-2.6441,-2.6372,-2.6302,-2.61,-2.5848,-2.5532,-2.5279,-2.5047,-2.4848,-2.4705,-2.4651,-2.4651,-2.4651,-2.4651,-2.4651,-2.4745,-2.5498,-2.6691,-2.6691,-2.6691,-2.6691,-2.6691,-2.6691,-2.6691,-2.6691,-2.6311,-2.5752,-2.5752,-2.5279,-2.4651,-2.4651,-2.4575,-2.4389,-2.3754,-2.3469,-2.3274,-2.2634,-2.2372,-2.2296,-2.2296,-2.2296,-2.2296,-2.2296,-2.2296,-2.2296,-2.2296,-2.2296,-2.2296,-2.2296,-2.2296,-2.2324,-2.238,-2.2487,-2.256,-2.256,-2.2769,-2.2974,-2.3086,-2.3377,-2.358,-2.3544,-2.3526,-2.3415,-2.3102,-2.2872,-2.2659,-2.2468,-2.2386,-2.2271,-2.207,-2.1957,-2.173,-2.1394,-2.1063,-2.0778,-2.0547,-2.0647,-2.0579,-2.0348,-2.0212,-1.9897,-1.9413,-1.9091,-1.8537,-1.5998,-1.9213,-2.2029,0.0,-2.427,-2.4827,-2.4713,-2.4543,-2.4381,-2.4303,-2.4247,-2.4299,-2.4618,-2.4682,-2.4938,-2.5714,-2.5842,-2.5996,-2.6454,-2.6508,-2.6508,-2.6508,-2.6508,-2.6498,-2.6476,-2.6476,-2.6465,-2.6421,-2.6367,-2.6282,-2.6172,-2.59,-2.5466,-2.48,-2.449,-2.4236,-2.4036,-2.3926,-2.3881,-2.3881,-2.3881,-2.3881,-2.3907,-2.4313,-2.4846,-2.5472,-2.5472,-2.5472,-2.5472,-2.5472,-2.5472,-2.5472,-2.5472,-2.5269,-2.4974,-2.4974,-2.4525,-2.3881,-2.3881,-2.3604,-2.3207,-2.2894,-2.2784,-2.2725,-2.2389,-2.2296,-2.2296,-2.2296,-2.2296,-2.2296,-2.2296,-2.2296,-2.2296,-2.2296,-2.2296,-2.2296,-2.2296,-2.2338,-2.2399,-2.2533,-2.2654,-2.2738,-2.2816,-2.2948,-2.3086,-2.3205,-2.3407,-2.3519,-2.345,-2.3418,-2.3271,-2.2982,-2.2756,-2.2574,-2.2405,-2.2338,-2.2214,-2.2013,-2.1876,-2.1624,-2.127,-2.0982,-2.072,-2.0407,-2.035,-2.0222,-2.0018,-1.9957,-1.9682,-1.9221,-1.8966,-1.8454,0.0,0.0,-2.1095,-2.2594,-2.3736,-2.4534,0.0,-2.4586,-2.4426,-2.4339,-2.4257,-2.42,-2.4199,-2.4199,-2.4401,-2.4998,-2.5099,-2.5301,-2.5915,-2.5997,-2.5997,-2.5997,-2.5997,-2.5997,-2.5997,-2.5997,-2.5997,-2.5997,-2.5908,-2.5804,-2.5668,-2.538,-2.4843,-2.4021,-2.3683,-2.3433,-2.3249,-2.3157,-2.3122,-2.3122,-2.3137,-2.3151,-2.3168,-2.3746,-2.403,-2.4032,-2.4369,-2.4499,-2.4499,-2.4499,-2.4499,-2.4499,-2.4499,-2.4389,-2.422,-2.422,-2.3754,-2.3122,-2.3122,-2.2767,-2.2296,-2.2296,-2.2296,-2.2296,-2.2296,-2.2296,-2.2296,-2.2296,-2.2296,-2.2296,-2.2296,-2.2296,-2.2296,-2.2296,-2.2296,-2.231,-2.2324,-2.2386,-2.2515,-2.2712,-2.2855,-2.2961,-2.3074,-2.3156,-2.3217,-2.3232,-2.3313,-2.3316,-2.3208,-2.3105,-2.2981,-2.2795,-2.2619,-2.2479,-2.2386,-2.2338,-2.2237,-2.2058,-2.1884,-2.1639,-2.1285,-2.1039,-2.0778,-2.0517,-2.0306,-2.009,-1.9876,-1.9815,-1.9589,-1.9165,-1.8962,-1.8507,0.0,-1.7251,0.0,-2.0995,-2.246,-2.3858,-2.4618,-2.4687,-2.4548,-2.442,-2.4294,-2.4201,-2.4199,-2.4199,-2.4208,-2.4254,-2.4254,-2.4272,-2.4318,-2.4318,-2.4318,-2.4318,-2.4318,-2.4318,-2.4318,-2.4318,-2.4318,-2.4318,-2.4203,-2.4065,-2.3943,-2.373,-2.3478,-2.3172,-2.2894,-2.2692,-2.2552,-2.2417,-2.2355,-2.2355,-2.2417,-2.245,-2.2459,-2.2614,-2.2699,-2.2771,-2.3979,-2.4499,-2.4499,-2.4499,-2.4499,-2.4499,-2.4499,-2.4076,-2.3452,-2.3452,-2.2995,-2.2355,-2.2355,-2.233,-2.2296,-2.2296,-2.2296,-2.2296,-2.2296,-2.2296,-2.2296,-2.2296,-2.2296,-2.2296,-2.2296,-2.2296,-2.2296,-2.2296,-2.2296,-2.2324,-2.2386,-2.2501,-2.2646,-2.2846,-2.3098,-2.331,-2.3369,-2.3439,-2.3404,-2.3147,-2.3006,-2.2863,-2.2664,-2.247,-2.237,-2.2419,-2.2358,-2.2302,-2.231,-2.2296,-2.2268,-2.2191,-2.1947,-2.1706,-2.1485,-2.1119,-2.0853,-2.0778,-2.057,-2.035,-2.0083,-1.9887,-1.9669,-1.9376,-1.9183,-1.8784,0.0,0.0,0.0,-1.9762,-2.1563,-2.3039,-2.3846,-2.4362,-2.4629,-2.4497,-2.4393,-2.4303,-2.4219,-2.42,-2.4199,-2.4199,-2.4199,-2.4199,-2.4199,-2.4199,-2.4199,-2.4199,-2.4199,-2.4199,-2.4199,-2.4199,-2.4199,-2.4199,-2.4122,-2.4015,-2.3867,-2.3629,-2.3386,-2.3111,-2.2803,-2.2547,-2.2372,-2.2316,-2.2324,-2.2358,-2.2432,-2.2515,-2.2601,-2.2694,-2.2751,-2.2816,-2.3272,-2.3404,-2.3264,-2.3195,-2.3152,-2.3152,-2.3094,-2.2928,-2.2691,-2.2691,-2.2539,-2.2296,-2.2296,-2.2296,-2.2296,-2.2296,-2.2296,-2.2296,-2.2296,-2.2296,-2.2296,-2.2296,-2.2296,-2.2296,-2.2296,-2.2296,-2.2296,-2.2296,-2.2296,-2.2324,-2.2386,-2.2533,-2.2751,-2.3045,-2.3268,-2.345,-2.3517,-2.351,-2.3377,-2.3022,-2.2786,-2.256,-2.2306,-2.2223,-2.2181,-2.2206,-2.2271,-2.2296,-2.2296,-2.2296,-2.2268,-2.2205,-2.2032,-2.1861,-2.1706,-2.1509,-2.1355,-2.1245,-2.1087,-2.0786,-2.0291,-2.0222,-2.0005,-1.9649,-1.9588,-1.9328,-1.3039,0.0,0.0,0.0,-2.0499,-2.1881,-2.2978,-2.3615,-2.3991,-2.4109,-2.4104,-2.4113,-2.4238,-2.4275,-2.4247,-2.4208,-2.4199,-2.4199,-2.4199,-2.4199,-2.4199,-2.4199,-2.4199,-2.4199,-2.4199,-2.4199,-2.4199,-2.4199,-2.4132,-2.4045,-2.3907,-2.3673,-2.3357,-2.2974,-2.272,-2.2487,-2.2296,-2.2324,-2.2366,-2.2432,-2.2555,-2.2672,-2.2803,-2.2936,-2.3036,-2.3093,-2.3093,-2.2936,-2.2659,-2.2555,-2.2465,-2.2427,-2.2358,-2.2324,-2.2296,-2.2296,-2.2296,-2.2296,-2.2296,-2.2296,-2.2296,-2.2296,-2.2296,-2.2296,-2.2296,-2.2296,-2.2296,-2.2296,-2.2296,-2.2296,-2.2296,-2.2296,-2.2296,-2.2296,-2.2296,-2.2324,-2.2386,-2.2533,-2.2764,-2.3098,-2.3348,-2.353,-2.3618,-2.3495,-2.3251,-2.2798,-2.2364,-2.2009,-2.1767,-2.1716,-2.1769,-2.1976,-2.211,-2.2243,-2.2358,-2.2352,-2.2302,-2.2268,-2.2149,-2.2032,-2.1947,-2.1835,-2.1744,-2.1667,-2.157,-2.1316,-2.0942,-2.0697,-2.0412,-2.0137,-2.0141,-2.0085,0.0,0.0,0.0,0.0,-1.9249,-2.0397,-2.2057,-2.2468,-2.2666,-2.3246,-2.3386,-2.3599,-2.4244,-2.4393,-2.4367,-2.4237,-2.4199,-2.4199,-2.4199,-2.4199,-2.4199,-2.4199,-2.4199,-2.4199,-2.4199,-2.4199,-2.4199,-2.4199,-2.4132,-2.4045,-2.3907,-2.3694,-2.331,-2.2712,-2.2569,-2.2432,-2.231,-2.2372,-2.2432,-2.2515,-2.2712,-2.2885,-2.3015,-2.3289,-2.3453,-2.3506,-2.3506,-2.325,-2.2829,-2.2738,-2.2627,-2.2501,-2.2419,-2.2358,-2.2296,-2.2305,-2.2305,-2.2305,-2.2296,-2.2296,-2.2296,-2.2296,-2.2296,-2.2296,-2.2296,-2.2296,-2.2296,-2.2296,-2.2296,-2.2296,-2.2296,-2.2296,-2.2296,-2.2296,-2.2296,-2.2324,-2.2386,-2.2515,-2.2699,-2.3024,-2.3319,-2.3538,-2.3667,-2.3405,-2.3,-2.2467,-2.1761,-2.1219,-2.1007,-2.0934,-2.1135,-2.1744,-2.1934,-2.2135,-2.2479,-2.2446,-2.2413,-2.2413,-2.2282,-2.2214,-2.2214,-2.2026,-2.1949,-2.2004,-2.1955,-2.1955,-2.2019,-2.1291,-2.0909,-2.0836,-2.0837,-2.1054,-1.3244,0.0,0.0,0.0,0.0,0.0,-2.0513,-2.17,-2.2608,-2.2723,-2.3171,-2.357,-2.3663,-2.4147,-2.4506,-2.4374,-2.4257,-2.42,-2.4199,-2.4199,-2.4199,-2.4199,-2.4199,-2.4199,-2.4199,-2.4199,-2.4199,-2.4199,-2.4132,-2.4045,-2.3907,-2.3474,-2.3052,-2.2632,-2.2501,-2.2413,-2.2372,-2.2432,-2.2547,-2.2725,-2.2974,-2.3182,-2.3373,-2.3591,-2.375,-2.3854,-2.3803,-2.3626,-2.335,-2.2985,-2.2738,-2.2569,-2.2386,-2.2229,-2.2087,-2.2189,-2.2234,-2.2234,-2.2282,-2.2296,-2.2296,-2.2296,-2.2296,-2.2296,-2.2296,-2.2296,-2.2296,-2.2296,-2.2296,-2.2296,-2.2296,-2.2296,-2.2296,-2.2296,-2.2338,-2.238,-2.2399,-2.2515,-2.2685,-2.2974,-2.3208,-2.3372,-2.3398,-2.3089,-2.2617,-2.1992,-2.1397,-2.0934,-2.073,-2.0828,-2.115,-2.1802,-2.2081,-2.2329,-2.2619,-2.2579,-2.2547,-2.2547,-2.2427,-2.2344,-2.2344,-2.2285,-2.229,-2.2352,-2.2385,-2.244,-2.2508,-2.1961,-2.1657,-2.1594,-2.1745,-2.1981,-1.4799,-1.4934,-1.5139,-1.6858,0.0,0.0,-1.9479,-2.0642,-2.1569,-2.1479,-2.2089,-2.271,-2.2948,-2.3637,-2.4144,-2.3994,-2.4201,-2.4347,-2.4284,-2.4238,-2.42,-2.42,-2.4199,-2.4199,-2.4199,-2.4199,-2.4199,-2.4199,-2.4132,-2.3986,-2.375,-2.3301,-2.2919,-2.2614,-2.2501,-2.2432,-2.2432,-2.256,-2.2738,-2.2974,-2.3242,-2.3493,-2.3727,-2.392,-2.4076,-2.4162,-2.4037,-2.3888,-2.3691,-2.3242,-2.2898,-2.2619,-2.2424,-2.2189,-2.1978,-2.2049,-2.21,-2.2129,-2.2225,-2.2276,-2.2296,-2.2296,-2.2296,-2.2296,-2.2296,-2.2296,-2.2296,-2.2296,-2.2296,-2.2296,-2.2296,-2.2296,-2.231,-2.2338,-2.2372,-2.2413,-2.2474,-2.2547,-2.2659,-2.2881,-2.3057,-2.3168,-2.3135,-2.2773,-2.226,-2.1599,-2.1023,-2.0655,-2.0538,-2.0779,-2.1213,-2.1903,-2.2304,-2.262,-2.2885,-2.2855,-2.2803,-2.2777,-2.2605,-2.2501,-2.2446,-2.2432,-2.2487,-2.2574,-2.2681,-2.2833,-2.3031,-2.2528,-2.2324,-2.2398,-2.2548,-2.2762,-1.6989,-1.6942,0.0,-1.8304,-1.8799,0.0,-1.8908,-1.959,-2.0182,-2.005,-2.0713,-2.151,-2.2158,-2.2937,-2.3452,-2.3319,-2.3979,-2.4483,-2.4411,-2.4294,-2.421,-2.421,-2.42,-2.4199,-2.4209,-2.4199,-2.4199,-2.4199,-2.4103,-2.3884,-2.3504,-2.3163,-2.2872,-2.2614,-2.2533,-2.252,-2.2533,-2.2738,-2.2986,-2.3256,-2.3518,-2.3799,-2.406,-2.4248,-2.4366,-2.442,-2.422,-2.4048,-2.3876,-2.3461,-2.3052,-2.2663,-2.2431,-2.2144,-2.1855,-2.1861,-2.1905,-2.1992,-2.2123,-2.2234,-2.2282,-2.2296,-2.2296,-2.2296,-2.2296,-2.2296,-2.2296,-2.2296,-2.2296,-2.2296,-2.231,-2.231,-2.2338,-2.2391,-2.2432,-2.2474,-2.2592,-2.2627,-2.2667,-2.2777,-2.2885,-2.2957,-2.2872,-2.2473,-2.1942,-2.1281,-2.0747,-2.0436,-2.0453,-2.0821,-2.1352,-2.2093,-2.2568,-2.2951,-2.322,-2.3184,-2.3111,-2.3036,-2.2833,-2.2659,-2.2533,-2.252,-2.2587,-2.2725,-2.2898,-2.3166,-2.354,-2.3051,-2.2926,-2.3165,-2.3236,-2.3412,-1.7387,-1.7412,-1.7437,-1.7821,-1.8455,0.0,-1.8977,-1.965,-2.0257,-2.0186,-2.0808,-2.1412,-2.1504,-2.2224,-2.277,-2.269,-2.3353,-2.3997,-2.4349,-2.433,-2.4275,-2.4275,-2.4229,-2.4219,-2.4284,-2.4229,-2.4201,-2.4201,-2.3948,-2.3655,-2.3351,-2.3074,-2.2829,-2.2614,-2.2587,-2.2627,-2.2738,-2.2986,-2.3262,-2.3538,-2.385,-2.4136,-2.4417,-2.4501,-2.4586,-2.4629,-2.4428,-2.4201,-2.3946,-2.3432,-2.2952,-2.2506,-2.2203,-2.1838,-2.1509,-2.1625,-2.1701,-2.1797,-2.1972,-2.212,-2.2234,-2.2282,-2.2296,-2.2296,-2.2296,-2.2296,-2.2296,-2.2296,-2.2296,-2.231,-2.2366,-2.2386,-2.2413,-2.2533,-2.2601,-2.2659,-2.2742,-2.2795,-2.2833,-2.2803,-2.2777,-2.2738,-2.2672,-2.2215,-2.172,-2.1197,-2.0797,-2.0639,-2.0861,-2.1226,-2.1763,-2.2503,-2.2906,-2.3233,-2.3504,-2.3458,-2.3365,-2.3253,-2.2999,-2.2803,-2.2667,-2.2659,-2.2751,-2.2936,-2.3342,-2.3638,-2.3824,-2.3608,-2.3533,-2.3586,-2.3712,-2.3795,-1.9335,-1.8878,-1.8402,-1.8837,-1.9294,0.0,0.0,-1.9671,-2.0169,-1.9702,-2.0243,-2.0787,-2.0756,-2.1464,-2.2037,-2.1958,-2.2631,-2.3212,-2.3382,-2.4015,-2.4446,-2.4401,-2.4312,-2.4257,-2.4303,-2.4238,-2.4173,-2.4105,-2.3849,-2.3602,-2.336,-2.3107,-2.2885,-2.2742,-2.2777,-2.2859,-2.2999,-2.3265,-2.3526,-2.3806,-2.4107,-2.4373,-2.4594,-2.4667,-2.47,-2.4675,-2.4374,-2.4077,-2.3755,-2.3153,-2.2587,-2.2082,-2.1878,-2.1584,-2.1262,-2.1341,-2.1442,-2.1579,-2.1825,-2.2034,-2.2205,-2.2282,-2.2296,-2.2296,-2.2296,-2.2296,-2.2296,-2.2296,-2.2316,-2.2366,-2.2432,-2.2501,-2.2579,-2.2725,-2.2777,-2.2829,-2.2923,-2.2923,-2.2898,-2.2898,-2.2829,-2.2694,-2.2479,-2.2126,-2.169,-2.1268,-2.1095,-2.1094,-2.1358,-2.1838,-2.2372,-2.2939,-2.3303,-2.3564,-2.3738,-2.3685,-2.3607,-2.351,-2.322,-2.2974,-2.2803,-2.2803,-2.2961,-2.3295,-2.3629,-2.3873,-2.3996,-2.3976,-2.3927,-2.3907,-2.3967,-2.4025,-2.1483,-2.0719,-1.985,-2.033,-2.0492,-2.0312,0.0,0.0,0.0,-1.9398,-1.9773,-2.0216,-2.0219,-2.0662,-2.0998,-2.0952,-2.1478,-2.1859,-2.1738,-2.2855,-2.3779,-2.4025,-2.4076,-2.409,-2.4108,-2.4035,-2.3869,-2.3579,-2.3518,-2.3399,-2.3199,-2.3105,-2.3033,-2.2961,-2.3045,-2.3135,-2.3289,-2.3538,-2.3806,-2.4037,-2.4311,-2.4536,-2.4715,-2.4774,-2.4757,-2.4667,-2.4257,-2.3882,-2.3491,-2.2801,-2.2158,-2.1595,-2.1521,-2.1292,-2.1022,-2.1022,-2.1175,-2.1394,-2.1685,-2.1947,-2.2183,-2.2268,-2.2296,-2.2296,-2.2296,-2.2296,-2.231,-2.2324,-2.2372,-2.2432,-2.2533,-2.2667,-2.2795,-2.2936,-2.297,-2.2995,-2.3107,-2.3024,-2.2948,-2.2986,-2.2923,-2.2751,-2.2413,-2.211,-2.1838,-2.1492,-2.1499,-2.164,-2.1941,-2.2468,-2.2956,-2.3335,-2.3651,-2.3876,-2.3927,-2.3886,-2.3803,-2.3712,-2.3398,-2.3135,-2.2957,-2.2986,-2.3202,-2.3607,-2.3833,-2.3996,-2.4122,-2.417,-2.417,-2.4122,-2.4122,-2.4151,-2.2608,-2.2516,-2.2197,-2.1519,-2.1356,-2.1148,-2.0337,0.0,-2.0269,-2.0173,0.0,-2.0285,-2.0294,0.0,0.0,-1.9273,-1.9356,-1.9376,-1.9309,-1.9952,-2.0938,-2.2304,-2.297,-2.3351,-2.3411,-2.3301,-2.2875,-2.2026,-2.2442,-2.2633,-2.2445,-2.2961,-2.3241,-2.3172,-2.3289,-2.3418,-2.3549,-2.3822,-2.4037,-2.4182,-2.4444,-2.4646,-2.4791,-2.4798,-2.4732,-2.4591,-2.4192,-2.3751,-2.3279,-2.2547,-2.1845,-2.1235,-2.111,-2.0934,-2.076,-2.076,-2.0949,-2.127,-2.1603,-2.1848,-2.205,-2.2237,-2.2296,-2.2296,-2.2296,-2.2296,-2.231,-2.2372,-2.2441,-2.2533,-2.2725,-2.2868,-2.3011,-2.3217,-2.3217,-2.3172,-2.3193,-2.3123,-2.3061,-2.3011,-2.3045,-2.2961,-2.2619,-2.229,-2.2068,-2.2025,-2.2016,-2.2155,-2.2543,-2.297,-2.3344,-2.3619,-2.3846,-2.4006,-2.4065,-2.4025,-2.3896,-2.3712,-2.344,-2.3229,-2.3086,-2.3307,-2.3508,-2.3691,-2.3946,-2.4103,-2.4189,-2.4199,-2.4199,-2.4189,-2.4189,-2.419,-2.3553,-2.3197,-2.2595,-2.1716,-2.1504,-2.1293,-2.0481,-2.0298,-2.0298,-2.0298,0.0,0.0,0.0,0.0,0.0,0.0,-1.8974,-1.8762,-1.8218,-1.835,-1.9274,-2.1315,-2.1739,-2.203,-2.2443,-2.2441,-2.2211,-2.1742,-2.1862,-2.2091,-2.24,-2.2657,-2.2995,-2.3482,-2.3578,-2.3716,-2.3893,-2.4075,-2.4182,-2.4201,-2.4391,-2.4486,-2.4514,-2.4514,-2.4418,-2.4229,-2.3784,-2.3351,-2.2889,-2.2166,-2.1567,-2.1111,-2.0828,-2.0637,-2.0542,-2.066,-2.0916,-2.1238,-2.1588,-2.1825,-2.2027,-2.2229,-2.2296,-2.2296,-2.2296,-2.2296,-2.2302,-2.2386,-2.2492,-2.2677,-2.2913,-2.3125,-2.3312,-2.3445,-2.3391,-2.3274,-2.3172,-2.3086,-2.3036,-2.3008,-2.3119,-2.316,-2.2974,-2.2673,-2.2422,-2.2335,-2.2404,-2.2576,-2.2934,-2.3268,-2.3585,-2.3855,-2.3977,-2.4084,-2.4142,-2.4103,-2.3967,-2.3765,-2.3429,-2.3232,-2.3217,-2.34,-2.3598,-2.3806,-2.4006,-2.4132,-2.4199,-2.4199,-2.4199,-2.4199,-2.4199,-2.4199,-2.4432,-2.3971,-2.3216,-2.2129,-2.186,-2.1581,-2.0538,-2.0298,-2.0298,-2.0298,-2.0298,0.0,0.0,0.0,-1.9658,-1.8788,0.0,-1.7911,-1.7039,-1.6862,-1.7629,-1.9828,-2.0186,-2.0422,-2.0865,-2.0908,-2.0855,-2.0716,-2.0832,-2.1198,-2.1891,-2.23,-2.2815,-2.346,-2.3779,-2.4027,-2.4181,-2.4303,-2.4303,-2.4201,-2.4302,-2.4302,-2.4219,-2.4182,-2.4058,-2.3862,-2.3408,-2.2996,-2.2565,-2.1882,-2.1393,-2.1047,-2.0729,-2.0578,-2.0552,-2.0677,-2.0957,-2.1294,-2.1625,-2.1878,-2.211,-2.2251,-2.2296,-2.2296,-2.2296,-2.2296,-2.2324,-2.2427,-2.2601,-2.2838,-2.3123,-2.3392,-2.3608,-2.3671,-2.3555,-2.3375,-2.3166,-2.3061,-2.3011,-2.3049,-2.3217,-2.3336,-2.3289,-2.2999,-2.2751,-2.2646,-2.2699,-2.2881,-2.3217,-2.3464,-2.3702,-2.3976,-2.4045,-2.4113,-2.419,-2.4132,-2.4005,-2.3762,-2.3449,-2.331,-2.3333,-2.3472,-2.3655,-2.3896,-2.4045,-2.4142,-2.4199,-2.4199,-2.4199,-2.4199,-2.4199,-2.4199,-2.526,-2.524,-2.4817,-2.3168,-2.2759,-2.2336,-2.0683,-2.0298,-2.0298,-2.0298,-2.0298,-2.0298,-2.0298,-1.9613,-1.8763,-1.7883,-1.7026,0.0,0.0,-1.512,-1.5685,-1.7326,-1.8157,-1.8531,-1.8431,-1.8417,-1.8361,-1.8232,-1.893,-1.9689,-2.0433,-2.1944,-2.2829,-2.2913,-2.3805,-2.4321,-2.4394,-2.4462,-2.4391,-2.4201,-2.4192,-2.4144,-2.4006,-2.3886,-2.3735,-2.3588,-2.3186,-2.2784,-2.2368,-2.1826,-2.1353,-2.0999,-2.0926,-2.0885,-2.0885,-2.0819,-2.1047,-2.1433,-2.17,-2.2011,-2.2296,-2.2296,-2.2296,-2.2296,-2.2296,-2.2296,-2.2338,-2.2533,-2.2738,-2.2981,-2.3387,-2.364,-2.3806,-2.3867,-2.3692,-2.3441,-2.3235,-2.3086,-2.3036,-2.3172,-2.3357,-2.3485,-2.3494,-2.3217,-2.2986,-2.2986,-2.2923,-2.3011,-2.3348,-2.3508,-2.3698,-2.3966,-2.4006,-2.4064,-2.4189,-2.4132,-2.3954,-2.3636,-2.3533,-2.3462,-2.3404,-2.3589,-2.3755,-2.3896,-2.4103,-2.4199,-2.4199,-2.4199,-2.4199,-2.4199,-2.4199,-2.4199,-2.5298,-2.5298,-2.5043,-2.3931,-2.3233,-2.2509,-2.1409,-2.0712,-2.0297,-2.0297,-2.0297,-2.0296,-2.0296,-2.0065,-1.9573,-1.8703,-1.7832,-1.6925,0.0,-1.5308,-1.5121,-1.5626,-1.6875,-1.7646,-1.752,-1.7507,-1.7668,-1.8076,-1.8346,-1.9084,-2.0401,-2.0986,-2.1842,-2.3067,-2.3447,-2.3947,-2.4596,-2.4581,-2.4418,-2.4135,-2.3999,-2.3764,-2.3472,-2.3417,-2.3324,-2.3185,-2.2964,-2.276,-2.2563,-2.2124,-2.1777,-2.1508,-2.137,-2.1276,-2.1222,-2.1214,-2.1379,-2.1632,-2.1955,-2.216,-2.2296,-2.2296,-2.2296,-2.2296,-2.2296,-2.2296,-2.2338,-2.2547,-2.2777,-2.3081,-2.3573,-2.3846,-2.3997,-2.397,-2.3798,-2.354,-2.3211,-2.3098,-2.3086,-2.3184,-2.3432,-2.3623,-2.3623,-2.3501,-2.3307,-2.3036,-2.3024,-2.3107,-2.3313,-2.3522,-2.3754,-2.3976,-2.4045,-2.4103,-2.419,-2.4064,-2.3905,-2.3741,-2.3634,-2.3578,-2.36,-2.371,-2.3856,-2.4035,-2.4142,-2.4199,-2.4199,-2.4199,-2.4199,-2.4199,-2.4199,-2.4199,-2.5332,-2.5346,-2.5139,-2.4342,-2.3708,-2.3078,-2.2255,-2.1649,-2.1246,-2.123,-2.0982,-2.0759,-2.0756,-2.051,-2.0009,-1.9108,-1.8229,-1.7213,0.0,-1.5252,-1.4878,-1.4837,-1.579,-1.6384,-1.6259,-1.6249,-1.6633,-1.7601,-1.7666,-1.8392,-2.0019,-2.04,-2.1138,-2.2342,-2.3047,-2.3701,-2.4296,-2.4503,-2.4426,-2.4059,-2.3789,-2.3482,-2.316,-2.3086,-2.3045,-2.3008,-2.291,-2.2833,-2.2742,-2.2388,-2.2096,-2.1855,-2.1646,-2.1494,-2.1379,-2.1441,-2.1609,-2.1857,-2.2131,-2.2254,-2.2296,-2.2296,-2.2296,-2.2296,-2.2296,-2.2296,-2.2338,-2.2547,-2.2795,-2.3126,-2.3626,-2.3917,-2.4065,-2.4038,-2.386,-2.3615,-2.3307,-2.3196,-2.3208,-2.3313,-2.3562,-2.3736,-2.3736,-2.3694,-2.3551,-2.3196,-2.316,-2.3229,-2.3386,-2.3582,-2.3789,-2.4006,-2.4065,-2.4132,-2.419,-2.4055,-2.3937,-2.3886,-2.3768,-2.3725,-2.3774,-2.3836,-2.3937,-2.4103,-2.417,-2.4199,-2.4199,-2.4199,-2.4199,-2.42,-2.42,-2.4209]},{"header":{"parameterUnit":"m.s-1","parameterCategory":1,"la1":30.6,"la2":29.2853,"lo1":-89.7004,"lo2":-87.6739,"dy":0.0162,"dx":0.0183,"nx":112,"ny":82,"refTime":"2024-07-04T06:00:00:Z","depth":0,"parameterNumber":3,"parameterNumberName":"V-component_of_WINDS"},"data":[0.0,0.0,0.0,0.0,0.0,0.0,0.0,0.0,0.0,0.0,0.0,0.0,0.0,0.0,0.0,0.0,0.0,0.0,0.0,0.0,0.0,0.0,0.0,0.0,0.0,0.0,0.0,0.0,0.0,0.0,0.0,0.0,0.0,0.0,0.0,0.0,0.0,0.0,0.0,0.0,0.0,0.0,0.0,0.0,0.0,0.0,0.0,0.0,0.0,0.0,0.0,0.0,0.0,0.0,0.0,0.0,0.0,0.0,0.0,0.0,0.0,0.0,0.0,0.0,0.0,0.0,0.0,0.0,0.0,0.0,0.0,0.0,0.0,0.0,0.0,0.0,0.0,0.0,0.0,0.0,0.0,0.0,0.0,0.0,0.0,0.0,0.0,0.0,0.0,0.0,-0.9797,-1.2,-1.3016,-1.3393,-1.3011,-1.2082,-1.0938,-0.9558,0.0,0.0,0.0,0.0,0.0,0.0,0.0,0.0,0.0,0.0,0.0,0.0,0.0,0.0,0.0,0.0,0.0,0.0,0.0,0.0,0.0,0.0,0.0,0.0,0.0,0.0,0.0,0.0,0.0,0.0,0.0,0.0,0.0,0.0,0.0,0.0,0.0,0.0,0.0,0.0,0.0,0.0,0.0,0.0,0.0,0.0,0.0,0.0,0.0,0.0,0.0,0.0,0.0,0.0,0.0,0.0,0.0,0.0,0.0,0.0,0.0,0.0,0.0,0.0,0.0,0.0,0.0,0.0,0.0,0.0,0.0,0.0,0.0,0.0,0.0,0.0,0.0,0.0,0.0,0.0,0.0,0.0,0.0,0.0,0.0,0.0,0.0,0.0,0.0,0.0,0.0,0.0,0.0,0.0,0.0,0.0,0.0,0.0,0.0,0.0,0.0,0.0,0.0,0.0,-1.0579,-1.3011,-1.38,-1.3934,-1.3377,-1.2556,-1.1288,-0.9442,0.0,0.0,0.0,0.0,0.0,0.0,0.0,0.0,0.0,0.0,0.0,0.0,0.0,0.0,0.0,0.0,0.0,0.0,0.0,0.0,0.0,0.0,0.0,0.0,0.0,0.0,0.0,0.0,0.0,0.0,0.0,0.0,0.0,0.0,0.0,0.0,0.0,0.0,0.0,0.0,0.0,0.0,0.0,0.0,0.0,0.0,0.0,0.0,0.0,0.0,0.0,0.0,0.0,0.0,0.0,0.0,0.0,0.0,0.0,0.0,0.0,0.0,0.0,0.0,0.0,0.0,0.0,0.0,0.0,0.0,0.0,0.0,0.0,0.0,0.0,0.0,0.0,0.0,0.0,0.0,0.0,0.0,0.0,0.0,0.0,0.0,0.0,0.0,0.0,0.0,0.0,0.0,0.0,0.0,0.0,0.0,0.0,0.0,0.0,0.0,0.0,0.0,0.0,-1.0823,-1.2379,-1.3445,-1.4225,-1.4487,-1.4041,-1.2857,-1.1491,-0.9999,-0.899,0.0,0.0,0.0,0.0,0.0,0.0,0.0,0.0,0.0,0.0,0.0,0.0,0.0,0.0,0.0,0.0,0.0,0.0,0.0,0.0,0.0,0.0,0.0,0.0,0.0,0.0,0.0,0.0,0.0,0.0,0.0,0.0,0.0,0.0,0.0,0.0,0.0,0.0,0.0,0.0,0.0,0.0,0.0,0.0,0.0,0.0,0.0,0.0,0.0,0.0,0.0,0.0,0.0,0.0,0.0,0.0,0.0,0.0,0.0,0.0,0.0,0.0,0.0,0.0,0.0,0.0,0.0,0.0,0.0,0.0,0.0,0.0,0.0,0.0,0.0,0.0,0.0,0.0,0.0,0.0,0.0,0.0,0.0,0.0,0.0,0.0,0.0,0.0,0.0,0.0,0.0,0.0,0.0,0.0,0.0,0.0,0.0,0.0,0.0,0.0,0.0,0.0,-1.2104,-1.3739,-1.357,-1.445,-1.4897,-1.4483,-1.3003,-1.1588,-1.0403,-0.9135,0.0,0.0,0.0,0.0,0.0,0.0,0.0,0.0,0.0,0.0,0.0,0.0,0.0,0.0,0.0,0.0,0.0,0.0,0.0,0.0,0.0,0.0,0.0,0.0,0.0,0.0,0.0,0.0,0.0,0.0,0.0,0.0,0.0,0.0,0.0,0.0,0.0,0.0,0.0,0.0,0.0,0.0,0.0,0.0,0.0,0.0,0.0,0.0,0.0,0.0,0.0,0.0,0.0,0.0,0.0,0.0,0.0,0.0,0.0,0.0,0.0,0.0,0.0,0.0,0.0,0.0,0.0,0.0,0.0,0.0,0.0,0.0,0.0,0.0,0.0,0.0,0.0,0.0,0.0,0.0,0.0,0.0,0.0,0.0,0.0,0.0,0.0,0.0,0.0,0.0,0.0,0.0,0.0,0.0,0.0,0.0,0.0,0.0,0.0,0.0,0.0,0.0,-1.2142,-1.3701,-1.3433,-1.4472,-1.4956,-1.4358,-1.2956,-1.1532,-1.0193,-0.8928,0.0,0.0,0.0,0.0,0.0,0.0,0.0,0.0,0.0,0.0,0.0,0.0,0.0,0.0,0.0,0.0,0.0,0.0,0.0,0.0,0.0,0.0,0.0,0.0,0.0,0.0,0.0,0.0,0.0,0.0,0.0,0.0,0.0,0.0,0.0,0.0,0.0,0.0,0.0,0.0,0.0,0.0,0.0,0.0,0.0,0.0,0.0,0.0,0.0,0.0,0.0,0.0,0.0,0.0,0.0,0.0,0.0,0.0,0.0,0.0,0.0,0.0,0.0,0.0,0.0,0.0,0.0,0.0,0.0,0.0,0.0,0.0,0.0,0.0,0.0,0.0,0.0,0.0,0.0,0.0,0.0,0.0,0.0,0.0,0.0,0.0,0.0,0.0,0.0,0.0,0.0,0.0,0.0,0.0,0.0,0.0,0.0,0.0,0.0,0.0,0.0,0.0,-1.2119,-1.3726,-1.3545,-1.445,-1.4858,-1.4342,-1.2826,-1.1335,-1.0006,0.0,0.0,0.0,0.0,0.0,0.0,0.0,0.0,0.0,0.0,0.0,0.0,0.0,0.0,0.0,0.0,0.0,0.0,0.0,0.0,0.0,0.0,0.0,0.0,0.0,0.0,0.0,0.0,0.0,0.0,0.0,0.0,0.0,0.0,0.0,0.0,0.0,0.0,0.0,0.0,0.0,0.0,0.0,0.0,0.0,0.0,0.0,0.0,0.0,0.0,0.0,0.0,0.0,0.0,0.0,0.0,0.0,0.0,0.0,0.0,0.0,0.0,0.0,0.0,0.0,0.0,0.0,0.0,0.0,0.0,0.0,0.0,0.0,0.0,0.0,0.0,0.0,0.0,0.0,0.0,0.0,0.0,0.0,0.0,0.0,0.0,0.0,0.0,0.0,0.0,0.0,0.0,0.0,0.0,0.0,0.0,0.0,0.0,0.0,0.0,0.0,0.0,-0.9951,-1.2201,-1.3795,-1.3844,-1.4544,-1.4797,-1.4273,-1.269,-1.1143,-0.9766,0.0,0.0,0.0,0.0,0.0,0.0,0.0,0.0,0.0,0.0,0.0,0.0,0.0,0.0,0.0,0.0,0.0,0.0,0.0,0.0,0.0,0.0,0.0,0.0,0.0,0.0,0.0,0.0,0.0,0.0,0.0,0.0,0.0,0.0,0.0,0.0,0.0,0.0,0.0,0.0,0.0,0.0,0.0,0.0,0.0,0.0,0.0,0.0,0.0,0.0,0.0,0.0,0.0,0.0,0.0,0.0,0.0,0.0,0.0,0.0,0.0,0.0,0.0,0.0,0.0,0.0,0.0,0.0,0.0,0.0,0.0,0.0,0.0,0.0,0.0,0.0,0.0,0.0,0.0,0.0,0.0,0.0,0.0,0.0,0.0,0.0,0.0,0.0,0.0,0.0,0.0,0.0,0.0,0.0,0.0,0.0,0.0,0.0,0.0,0.0,0.0,0.0,-1.0505,-1.2413,-1.3881,-1.4351,-1.476,-1.4752,-1.4149,-1.2563,-1.0966,0.0,0.0,0.0,0.0,0.0,0.0,0.0,0.0,0.0,0.0,0.0,0.0,0.0,0.0,0.0,0.0,0.0,0.0,0.0,0.0,0.0,0.0,0.0,0.0,0.0,0.0,0.0,0.0,0.0,0.0,0.0,0.0,0.0,0.0,0.0,0.0,0.0,0.0,0.0,0.0,0.0,0.0,0.0,0.0,0.0,0.0,0.0,0.0,0.0,0.0,0.0,0.0,0.0,0.0,0.0,0.0,0.0,0.0,0.0,0.0,0.0,0.0,0.0,0.0,0.0,0.0,0.0,0.0,0.0,0.0,0.0,0.0,0.0,0.0,0.0,0.0,0.0,0.0,0.0,0.0,0.0,0.0,0.0,0.0,0.0,0.0,0.0,0.0,0.0,0.0,0.0,0.0,0.0,0.0,0.0,0.0,0.0,0.0,0.0,0.0,0.0,0.0,0.0,-1.0364,-1.2276,-1.3755,-1.4274,-1.4522,-1.4392,-1.3802,-1.2083,-1.0445,-0.9064,0.0,0.0,0.0,0.0,0.0,0.0,0.0,0.0,0.0,0.0,0.0,0.0,0.0,0.0,0.0,0.0,0.0,0.0,0.0,0.0,0.0,0.0,0.0,0.0,0.0,0.0,0.0,0.0,0.0,0.0,0.0,0.0,0.0,0.0,0.0,0.0,0.0,0.0,0.0,0.0,0.0,0.0,0.0,0.0,0.0,0.0,0.0,0.0,0.0,0.0,0.0,0.0,0.0,0.0,0.0,0.0,0.0,0.0,0.0,0.0,0.0,0.0,0.0,0.0,0.0,0.0,0.0,0.0,0.0,0.0,0.0,0.0,0.0,0.0,0.0,0.0,0.0,0.0,0.0,0.0,0.0,0.0,0.0,0.0,0.0,0.0,0.0,0.0,0.0,0.0,0.0,0.0,0.0,0.0,0.0,0.0,0.0,0.0,0.0,0.0,0.0,0.0,-1.0476,-1.2196,-1.3628,-1.4377,-1.4387,-1.4071,-1.3429,-1.1693,-1.0068,-0.8725,0.0,0.0,0.0,0.0,0.0,0.0,0.0,0.0,0.0,0.0,0.0,0.0,0.0,0.0,0.0,0.0,0.0,0.0,0.0,0.0,0.0,0.0,0.0,0.0,0.0,0.0,0.0,0.0,0.0,0.0,0.0,0.0,0.0,0.0,0.0,0.0,0.0,0.0,0.0,0.0,0.0,0.0,0.0,0.0,0.0,0.0,0.0,0.0,0.0,0.0,0.0,0.0,0.0,0.0,0.0,0.0,0.0,0.0,0.0,0.0,0.0,0.0,0.0,0.0,0.0,0.0,0.0,0.0,0.0,0.0,0.0,0.0,0.0,0.0,0.0,0.0,0.0,0.0,0.0,0.0,0.0,0.0,0.0,0.0,0.0,0.0,0.0,0.0,0.0,0.0,0.0,0.0,0.0,0.0,0.0,0.0,0.0,0.0,0.0,0.0,0.0,0.0,-1.0785,-1.2182,-1.346,-1.4528,-1.4276,-1.3719,-1.3002,-1.1356,-0.9809,-0.8519,0.0,0.0,0.0,0.0,0.0,0.0,0.0,0.0,0.0,0.0,0.0,0.0,0.0,0.0,0.0,0.0,0.0,0.0,0.0,0.0,0.0,0.0,0.0,0.0,0.0,0.0,0.0,0.0,0.0,0.0,0.0,0.0,0.0,0.0,0.0,0.0,0.0,0.0,0.0,0.0,0.0,0.0,0.0,0.0,0.0,0.0,0.0,0.0,0.0,0.0,0.0,0.0,0.0,0.0,0.0,0.0,0.0,0.0,0.0,0.0,-1.1641,-1.0912,0.0,0.0,0.0,0.0,0.0,0.0,0.0,0.0,0.0,0.0,0.0,0.0,0.0,0.0,0.0,0.0,0.0,0.0,0.0,0.0,0.0,0.0,0.0,0.0,0.0,0.0,0.0,0.0,0.0,0.0,0.0,0.0,0.0,0.0,0.0,0.0,0.0,0.0,0.0,0.0,-1.1155,-1.2149,-1.3096,-1.4115,-1.3766,-1.3244,-1.2649,-1.1013,-0.9638,-0.8766,-0.7343,0.0,0.0,0.0,0.0,0.0,0.0,0.0,0.0,0.0,0.0,0.0,0.0,0.0,0.0,0.0,0.0,0.0,0.0,0.0,0.0,0.0,0.0,0.0,0.0,0.0,0.0,0.0,0.0,0.0,0.0,0.0,0.0,0.0,0.0,0.0,0.0,0.0,0.0,0.0,0.0,0.0,0.0,0.0,0.0,0.0,0.0,0.0,0.0,0.0,0.0,0.0,0.0,0.0,0.0,0.0,0.0,0.0,0.0,0.0,-1.3138,-1.2328,0.0,0.0,0.0,0.0,0.0,0.0,0.0,0.0,0.0,0.0,0.0,0.0,0.0,0.0,0.0,0.0,0.0,0.0,0.0,0.0,0.0,0.0,0.0,0.0,0.0,0.0,0.0,0.0,0.0,0.0,0.0,0.0,0.0,0.0,0.0,0.0,0.0,0.0,0.0,0.0,-1.109,-1.2127,-1.3014,-1.3743,-1.3397,-1.2894,-1.2354,-1.0981,-0.9752,-0.8808,-0.7695,0.0,0.0,0.0,0.0,0.0,0.0,0.0,0.0,0.0,0.0,0.0,0.0,0.0,0.0,0.0,0.0,0.0,0.0,0.0,0.0,0.0,0.0,0.0,0.0,0.0,0.0,0.0,0.0,0.0,0.0,0.0,0.0,0.0,0.0,0.0,0.0,0.0,0.0,0.0,0.0,0.0,0.0,0.0,0.0,0.0,0.0,0.0,0.0,0.0,0.0,0.0,0.0,0.0,-1.6129,-1.6136,-1.6121,-1.6545,-1.6692,-1.6484,-1.4645,-1.3991,-1.4129,-1.2678,0.0,0.0,0.0,0.0,0.0,0.0,0.0,0.0,0.0,0.0,0.0,0.0,0.0,0.0,0.0,0.0,0.0,0.0,0.0,0.0,0.0,0.0,-1.2168,-1.2711,-1.2843,-1.231,-1.0391,0.0,0.0,0.0,0.0,0.0,0.0,0.0,0.0,0.0,0.0,0.0,-1.1153,-1.2191,-1.2997,-1.3395,-1.3068,-1.262,-1.2089,-1.1024,-0.9939,-0.8877,-0.8109,-0.7144,0.0,0.0,0.0,0.0,0.0,0.0,0.0,0.0,0.0,0.0,0.0,0.0,0.0,0.0,0.0,0.0,0.0,0.0,0.0,0.0,0.0,0.0,0.0,0.0,0.0,0.0,0.0,0.0,0.0,0.0,0.0,0.0,-0.7905,-0.857,0.0,0.0,0.0,0.0,0.0,0.0,0.0,0.0,0.0,0.0,0.0,0.0,0.0,-1.5352,-1.6308,-1.6331,-1.6704,-1.7452,-1.7452,-1.7419,-1.7353,-1.7323,-1.7478,-1.7705,-1.6515,0.0,-1.5058,-1.4025,0.0,0.0,0.0,0.0,0.0,0.0,0.0,0.0,0.0,0.0,0.0,0.0,0.0,0.0,0.0,0.0,0.0,0.0,0.0,0.0,0.0,0.0,-1.3902,-1.4437,-1.4569,-1.4349,-1.3594,-1.1892,-1.0469,-1.0407,-0.9573,-0.8875,0.0,0.0,0.0,0.0,0.0,0.0,-1.2098,-1.2494,-1.2774,-1.3113,-1.2797,-1.2354,-1.1884,-1.0899,-0.9993,-0.9264,-0.8216,-0.7324,-0.6687,-0.5819,0.0,0.0,0.0,0.0,0.0,0.0,0.0,0.0,0.0,0.0,0.0,0.0,0.0,0.0,0.0,0.0,0.0,0.0,0.0,0.0,0.0,0.0,0.0,0.0,0.0,0.0,0.0,0.0,0.0,-0.7825,-0.8638,-0.9273,-0.926,-0.9294,0.0,0.0,0.0,0.0,0.0,0.0,0.0,0.0,0.0,-1.5118,-1.6065,-1.6977,-1.7826,-1.7826,-1.8162,-1.8822,-1.8793,-1.8713,-1.859,-1.8388,-1.8292,-1.8243,-1.7458,-1.6835,-1.6285,-1.5235,-1.4193,-1.3215,0.0,0.0,0.0,0.0,-1.2316,-1.3007,-1.3002,-1.3507,-1.4023,-1.326,0.0,0.0,0.0,0.0,0.0,0.0,0.0,-1.3185,-1.3954,-1.4582,-1.5053,-1.5292,-1.5355,-1.5292,-1.5047,-1.3985,-1.278,-1.1842,-1.1035,-1.0402,-1.0062,-0.9799,0.0,0.0,0.0,-1.1605,-1.2342,-1.2723,-1.2956,-1.2977,-1.2656,-1.2276,-1.1847,-1.1086,-1.036,-0.9725,-0.8834,-0.797,-0.7168,-0.6384,-0.5586,0.0,0.0,0.0,0.0,0.0,0.0,0.0,0.0,0.0,0.0,0.0,0.0,0.0,0.0,0.0,0.0,0.0,0.0,0.0,0.0,0.0,0.0,0.0,0.0,0.0,0.0,0.0,0.0,-0.8792,-0.9442,-1.0194,-1.0196,-1.0319,0.0,0.0,0.0,0.0,0.0,0.0,-1.4056,-1.5398,-1.6377,-1.686,-1.7596,-1.8379,-1.9193,-1.9218,-1.953,-2.0161,-2.0083,-1.9941,-1.9743,-1.9461,-1.9133,-1.8745,-1.8282,-1.787,-1.7432,-1.6133,-1.5228,-1.4631,-1.4454,-1.4095,-1.37,-1.3653,-1.4004,-1.4507,-1.4507,-1.4872,-1.5223,-1.4689,-1.4418,-1.4217,-1.3772,0.0,0.0,0.0,0.0,-1.4601,-1.4997,-1.5512,-1.5906,-1.5906,-1.5906,-1.5906,-1.5906,-1.558,-1.4865,-1.3339,-1.2615,-1.2093,-1.165,-1.1441,0.0,-1.155,-1.2291,-1.2881,-1.3019,-1.3248,-1.3299,-1.3092,-1.2627,-1.2168,-1.1756,-1.1193,-1.0598,-0.9977,-0.927,-0.8475,-0.7565,-0.6801,-0.6031,-0.5247,0.0,0.0,0.0,0.0,0.0,0.0,0.0,0.0,0.0,0.0,0.0,0.0,0.0,0.0,0.0,0.0,0.0,0.0,0.0,0.0,0.0,0.0,0.0,0.0,0.0,0.0,0.0,0.0,0.0,-1.174,-1.1825,0.0,0.0,0.0,0.0,-1.3336,-1.4007,-1.4625,-1.5196,-1.6551,-1.7592,-1.8194,-1.8924,-1.9716,-2.0591,-2.0591,-2.0862,-2.1404,-2.1268,-2.1046,-2.0717,-2.0387,-1.9973,-1.9542,-1.9185,-1.88,-1.8297,-1.6585,-1.5777,-1.5581,-1.5073,-1.4853,-1.4828,-1.4828,-1.516,-1.5611,-1.5611,-1.5975,-1.6325,-1.5793,-1.5273,-1.484,-1.4815,-1.4802,0.0,0.0,-1.5229,-1.5624,-1.5643,-1.6063,-1.6456,-1.6456,-1.6456,-1.6456,-1.6456,-1.6431,-1.6095,-1.4991,-1.4337,-1.3964,-1.3921,0.0,-1.3265,-1.3839,-1.3983,-1.4192,-1.4721,-1.425,-1.3785,-1.3581,-1.2696,-1.1944,-1.1553,-1.1019,-1.0456,-0.9845,-0.9181,-0.8527,-0.7902,-0.6921,-0.6228,-0.586,-0.5078,0.0,0.0,0.0,0.0,0.0,0.0,0.0,0.0,0.0,0.0,0.0,0.0,0.0,0.0,0.0,0.0,0.0,0.0,0.0,0.0,0.0,0.0,0.0,0.0,0.0,0.0,0.0,0.0,-1.2868,-1.321,0.0,-1.4091,-1.4076,-1.4158,-1.4446,-1.5447,-1.629,-1.6815,-1.8173,-1.9278,-1.9999,-2.0372,-2.0772,-2.121,-2.121,-2.1223,-2.1235,-2.1058,-2.0796,-2.0458,-2.0041,-1.9653,-1.9256,-1.8891,-1.8607,-1.8376,-1.7678,-1.7341,-1.7294,-1.7093,-1.6961,-1.6882,-1.6882,-1.6694,-1.6419,-1.6419,-1.6254,-1.602,-1.5831,-1.5636,-1.5505,-1.5577,-1.5613,-1.5634,-1.5813,-1.5992,-1.6163,-1.6199,-1.635,-1.6494,-1.6494,-1.6494,-1.6494,-1.6494,-1.6494,-1.6381,-1.6007,-1.5512,-1.5016,-1.4676,-1.4437,-1.4375,-1.4588,-1.4614,-1.4651,-1.4761,-1.449,-1.4059,-1.348,-1.2845,-1.2189,-1.1434,-1.0962,-1.0559,-1.0205,-0.9314,-0.865,-0.8305,-0.7244,-0.6441,-0.5972,-0.5474,-0.4879,0.0,0.0,0.0,0.0,0.0,0.0,0.0,0.0,0.0,0.0,0.0,0.0,0.0,0.0,0.0,0.0,0.0,0.0,0.0,0.0,0.0,0.0,0.0,0.0,0.0,-1.2158,-1.3317,-1.3895,-1.4258,-1.4658,-1.5188,-1.5206,-1.5363,-1.581,-1.6638,-1.7428,-1.8123,-1.9111,-1.9999,-2.0746,-2.0921,-2.1209,-2.162,-2.1586,-2.1564,-2.1542,-2.1312,-2.0984,-2.0583,-2.019,-1.9804,-1.9465,-1.9148,-1.8962,-1.8859,-1.8786,-1.8744,-1.8706,-1.8348,-1.812,-1.7983,-1.7941,-1.7511,-1.6959,-1.6865,-1.6543,-1.6176,-1.6176,-1.6176,-1.6193,-1.6273,-1.6227,-1.6185,-1.6379,-1.6355,-1.6312,-1.6436,-1.6479,-1.6479,-1.65,-1.6494,-1.6494,-1.6494,-1.6494,-1.6494,-1.6494,-1.6199,-1.5863,-1.5512,-1.5443,-1.5443,-1.5443,-1.5429,-1.5355,-1.522,-1.4872,-1.4389,-1.3702,-1.2957,-1.2202,-1.1454,-1.0903,-1.0534,-1.039,-0.9378,-0.8716,-0.8513,-0.741,-0.6597,-0.6143,-0.5657,-0.5067,-0.4399,0.0,0.0,0.0,0.0,0.0,0.0,0.0,0.0,0.0,0.0,0.0,0.0,0.0,0.0,0.0,0.0,0.0,0.0,0.0,0.0,0.0,0.0,0.0,-1.245,-1.3426,-1.433,-1.4872,-1.4934,-1.516,-1.5693,-1.5743,-1.6237,-1.7432,-1.7527,-1.8013,-1.9051,-1.9314,-1.9717,-2.0342,-2.055,-2.104,-2.1903,-2.1772,-2.1933,-2.237,-2.2107,-2.1705,-2.118,-2.0908,-2.056,-2.0182,-2.0035,-1.9926,-1.9805,-1.9805,-1.9805,-1.9704,-1.8662,-1.817,-1.8009,-1.7877,-1.7612,-1.7253,-1.696,-1.6862,-1.6862,-1.6862,-1.6862,-1.6862,-1.6862,-1.6637,-1.6403,-1.6467,-1.625,-1.6078,-1.6334,-1.6399,-1.6414,-1.6479,-1.6494,-1.6494,-1.6494,-1.6494,-1.6494,-1.6494,-1.6494,-1.6494,-1.6494,-1.6494,-1.6494,-1.6494,-1.6436,0.0,-1.6216,-1.544,-1.4743,-1.4316,-1.2975,-1.1974,-1.1612,-1.0854,-1.0365,-1.0303,-0.9362,-0.8713,-0.8508,-0.7399,-0.6675,-0.6386,-0.5605,-0.4938,-0.4419,0.0,0.0,0.0,0.0,0.0,0.0,0.0,0.0,0.0,0.0,0.0,0.0,0.0,0.0,0.0,0.0,0.0,0.0,0.0,0.0,0.0,-1.3006,-1.3939,-1.3671,-1.4569,-1.5317,-1.5468,-1.5819,-1.6289,-1.6889,-1.6939,-1.7228,-1.7955,-1.836,-1.8835,-1.9437,-1.9972,-2.0622,-2.1373,-2.1534,-2.1772,-2.2101,-2.2078,-2.1932,-2.1681,-2.1489,-2.1191,-2.0766,-2.0498,-2.0252,-2.0035,-1.992,-1.983,-1.9805,-1.9805,-1.9805,-1.9773,-1.9478,-1.9157,-1.8845,-1.8709,-1.789,-1.677,-1.5996,-1.5753,-1.5753,-1.5753,-1.5753,-1.5773,-1.5977,-1.6045,-1.6046,-1.6119,-1.6208,-1.6278,-1.6248,-1.634,-1.6414,-1.6479,-1.6494,-1.6494,-1.6494,-1.6494,-1.6494,-1.6494,-1.6494,-1.6494,-1.6494,-1.6494,-1.6494,-1.6494,-1.6436,-1.629,-1.5947,-1.55,-1.4829,-1.3894,-1.2947,-1.211,-1.1358,-1.0745,-1.0365,-1.0303,-0.9539,-0.8886,-0.845,-0.7477,-0.661,-0.5904,-0.5388,-0.5,0.0,0.0,0.0,0.0,0.0,0.0,0.0,0.0,0.0,0.0,0.0,0.0,0.0,0.0,0.0,0.0,0.0,0.0,0.0,0.0,0.0,0.0,-1.4027,-1.4866,-1.4971,-1.5596,-1.6045,-1.6045,-1.6534,-1.7011,-1.7373,-1.7612,-1.7959,-1.8481,-1.882,-1.922,-1.9733,-2.0197,-2.0691,-2.1282,-2.142,-2.1565,-2.1708,-2.1636,-2.142,-2.1062,-2.0921,-2.0673,-2.0346,-2.0182,-2.0029,-1.992,-1.983,-1.9805,-1.9805,-1.9805,-1.9805,-1.9805,0.0,0.0,0.0,0.0,-1.7694,-1.6634,-1.5954,-1.5729,-1.5729,-1.5729,-1.5729,-1.5746,-1.601,-1.6068,-1.6112,-1.6333,-1.632,-1.6279,-1.6416,-1.6382,-1.6355,-1.6479,-1.6494,-1.6494,-1.6494,-1.6494,-1.6494,-1.6494,-1.6494,0.0,-1.6494,-1.6479,-1.6457,-1.6457,-1.6235,-1.5951,-1.5641,-1.521,-1.4591,-1.3759,-1.3009,-1.2255,-1.1511,-1.0923,0.0,0.0,0.0,-0.8812,-0.7978,-0.7179,0.0,0.0,0.0,0.0,0.0,-0.5201,0.0,0.0,-0.4106,-0.3907,0.0,0.0,0.0,0.0,0.0,0.0,0.0,0.0,0.0,0.0,0.0,0.0,0.0,0.0,0.0,0.0,-1.4707,-1.5332,-1.6156,-1.6421,-1.6545,-1.6573,-1.7096,-1.7495,-1.7564,-1.8009,-1.85,-1.9045,-1.9089,-1.9353,-1.9965,-2.0112,0.0,0.0,0.0,-2.0901,-2.1018,-2.0992,-2.0875,-2.073,-2.061,-2.038,-2.0085,-2.0085,-2.0021,-1.9899,-1.9899,-1.9899,-1.9899,-1.9899,-1.9835,-1.9727,-1.9558,-1.9317,-1.8936,-1.7815,-1.7111,-1.6666,-1.6319,0.0,0.0,-1.621,-1.6205,-1.6267,-1.649,-1.6459,-1.6429,-1.6803,-1.655,-1.6302,-1.6768,-1.6608,-1.6368,-1.6557,-1.6544,-1.6494,-1.6494,-1.6494,-1.6494,-1.6494,-1.6494,-1.6494,-1.6494,-1.6436,-1.6399,-1.6377,-1.5929,-1.5501,-1.5282,-1.4731,-1.4186,-1.3787,-1.305,0.0,-1.182,-1.1246,-1.0667,-1.0127,-0.9488,-0.8574,-0.7358,-0.6733,-0.6376,-0.6291,-0.5997,-0.5955,-0.6193,-0.6193,-0.6193,-0.6169,-0.4916,-0.4497,0.0,0.0,0.0,0.0,0.0,0.0,0.0,0.0,0.0,0.0,0.0,0.0,0.0,0.0,0.0,-1.4443,-1.5061,-1.5693,-1.6566,-1.673,-1.6821,-1.703,-1.7545,-1.8109,-1.8644,-1.8782,-1.9064,-1.961,-1.9654,-1.9755,-1.9984,-2.0016,-2.0156,-2.0422,-2.0939,-2.1218,-2.1238,-2.164,-2.1733,-2.1482,-2.1449,0.0,-2.0561,-2.0561,-2.0555,-2.0528,-2.0528,-2.0528,-2.0528,-2.0528,-2.0041,-1.9285,-1.9046,-1.8688,-1.818,-1.7145,-1.6547,-1.6171,-1.5734,-1.5555,-1.5555,-1.5555,-1.5686,-1.5875,-1.6119,-1.6428,0.0,-1.687,-1.7168,-1.7441,-1.7454,-1.7239,-1.7036,-1.719,-1.6854,-1.6494,-1.6494,-1.6494,-1.6494,-1.6494,-1.6494,-1.6494,-1.6494,-1.6436,-1.6355,-1.6259,-1.583,-1.5395,-1.5017,-1.4438,-1.3931,-1.351,-1.2849,-1.2225,-1.1684,-1.1183,-1.0667,-1.0127,-0.917,-0.8257,-0.7414,-0.6845,-0.6455,-0.6214,-0.6157,-0.6154,-0.6193,-0.6193,-0.6193,-0.6189,-0.5922,-0.5828,0.0,0.0,0.0,0.0,0.0,0.0,0.0,0.0,0.0,0.0,0.0,-1.2301,-1.3159,0.0,-1.3998,-1.4903,-1.5217,-1.5647,-1.6532,-1.6929,-1.7267,-1.7557,-1.8081,-1.856,-1.897,-1.9233,-1.9497,-1.9786,-1.9805,-1.9956,-2.0336,-2.0355,-2.0528,-2.0933,-2.1226,-2.1406,-2.1406,-2.1659,-2.1737,-2.1592,-2.1592,-2.1419,-2.1106,-2.1106,-2.1106,-2.1106,-2.1106,-2.1106,-2.1106,-2.1106,-2.0517,-1.9581,-1.9221,-1.851,-1.7556,-1.6848,-1.6291,-1.586,-1.5531,-1.5478,-1.5546,-1.5546,-1.572,-1.5951,-1.6257,-1.6655,-1.7057,-1.7397,-1.769,-1.7922,-1.8074,-1.784,-1.7563,-1.7422,-1.7162,-1.6873,-1.6557,-1.6494,-1.6494,-1.6494,-1.6494,-1.6494,-1.6494,-1.6321,-1.6154,-1.6013,-1.5418,-1.4886,-1.4588,-1.3996,-1.351,-1.3272,-1.2881,-1.2461,-1.1929,-1.117,-1.0391,-0.9698,-0.8895,-0.8182,-0.7567,-0.6996,-0.6669,-0.6606,-0.6469,-0.6466,-0.661,-0.661,-0.661,-0.661,-0.661,-0.6533,0.0,0.0,0.0,0.0,0.0,0.0,0.0,0.0,-1.335,-1.3445,-1.3369,-1.3466,-1.4057,-1.4044,-1.424,-1.511,-1.5233,-1.5518,-1.6418,-1.7054,-1.7609,-1.8063,-1.8567,-1.8939,-1.9058,-1.9483,-1.9797,-1.9936,-1.9974,-2.0219,-2.0823,-2.0855,-2.1056,-2.1502,-2.1594,-2.165,-2.165,-2.1757,-2.1807,-2.1807,-2.1807,-2.1757,-2.165,-2.165,-2.165,-2.165,-2.165,-2.165,-2.1638,-2.1531,-2.0962,-2.0107,-1.9729,-1.8719,-1.7417,-1.6781,-1.6181,-1.5672,-1.5478,-1.5541,-1.5706,-1.573,-1.5951,-1.6314,-1.6627,-1.705,-1.7518,-1.8077,-1.8254,-1.8348,-1.8693,-1.8487,-1.8055,-1.7618,-1.7411,-1.718,-1.6598,-1.6479,-1.6479,-1.6494,-1.6494,-1.6494,-1.6479,-1.6191,-1.5913,-1.5786,-1.5028,-1.4408,-1.4181,-1.3586,-1.3166,-1.3104,-1.2983,-1.2705,-1.2196,-1.111,-1.0128,-0.9328,-0.8692,-0.8143,-0.7687,-0.7167,-0.6922,-0.6996,-0.679,-0.6787,-0.7,-0.7,-0.7,-0.7,-0.7,-0.6876,-1.1433,-1.1757,-1.225,-1.2785,-1.3283,-1.3617,0.0,0.0,-1.4006,-1.3726,-1.3832,-1.3928,-1.3729,-1.4124,-1.4549,-1.468,-1.5032,-1.5618,-1.6541,-1.6986,-1.7562,-1.8422,-1.8899,-1.921,-1.9334,-1.9534,-1.9841,-2.0385,-2.0523,-2.0842,-2.1395,-2.1399,-2.1452,-2.1487,-2.1964,-2.2221,-2.2221,-2.2675,-2.292,-2.292,-2.292,-2.2663,-2.2221,-2.2221,-2.2221,-2.2221,-2.2221,-2.2221,-2.2177,-2.1694,-2.1185,-2.0688,-2.0404,-1.9581,-1.836,-1.688,-1.6072,-1.5672,-1.5478,-1.5541,-1.573,-1.5855,-1.6257,-1.6779,-1.7055,-1.7623,-1.8251,-1.8625,-1.8983,-1.9276,-1.9446,-1.9088,-1.8573,-1.805,-1.7483,-1.6919,-1.6495,-1.642,-1.6436,-1.65,-1.6494,-1.6479,-1.6414,-1.6072,-1.5786,-1.5641,-1.4937,-1.4309,-1.4062,-1.3498,-1.3099,-1.3109,-1.2983,-1.2657,-1.2075,-1.0979,-1.0095,-0.9593,-0.8707,-0.8017,-0.7544,-0.7276,-0.7109,-0.7,-0.697,-0.697,-0.7,-0.7,-0.7,-0.7,-0.7,-0.6983,-1.2762,-1.3033,-1.3379,-1.384,-1.4359,-1.4707,-1.4403,-1.4607,-1.4715,-1.4319,-1.4177,-1.4062,-1.3775,-1.4033,-1.4386,-1.4681,-1.5011,-1.5578,-1.6523,-1.6824,-1.7197,-1.788,-1.8263,-1.8667,-1.9218,-1.9408,-1.978,-2.0451,-2.0617,-2.1075,-2.1926,-2.197,-2.2115,-2.2406,-2.2644,-2.2763,-2.2763,-2.2989,-2.3108,-2.3108,-2.3108,-2.2982,-2.2763,-2.2763,-2.2763,-2.2763,-2.2763,-2.2763,-2.2744,-2.2512,-2.1985,-2.1294,-2.0984,-2.0056,-1.8764,-1.7784,-1.682,-1.6044,-1.5945,-1.5929,-1.5946,-1.6085,-1.6655,-1.7368,-1.765,-1.8191,-1.8774,-1.9084,-1.9342,-1.9539,-1.9584,-1.9371,-1.8992,-1.8388,-1.7787,-1.7236,-1.6798,-1.6551,-1.6414,-1.65,-1.6479,-1.642,-1.6297,-1.5919,-1.5536,-1.5249,-1.4605,-1.403,-1.3687,-1.3258,-1.2983,-1.2983,-1.2929,-1.2609,-1.1898,-1.1251,-1.049,-0.955,-0.8745,-0.8086,-0.7571,-0.7249,-0.7048,-0.7,-0.7,-0.7,-0.7,-0.7,-0.7,-0.7,-0.7,-0.7,-1.3828,-1.4149,-1.444,-1.4866,-1.5247,-1.5414,-1.5027,-1.5004,-1.4915,-1.4471,-1.4163,-1.3894,-1.3655,-1.3904,-1.4261,-1.4563,-1.5026,-1.5593,-1.6296,-1.6547,-1.6807,-1.719,-1.749,-1.7919,-1.859,-1.9013,-1.9582,-2.041,-2.0712,-2.1325,-2.2397,-2.2512,-2.2694,-2.3089,-2.3108,-2.3108,-2.3108,-2.3108,-2.3108,-2.3108,-2.3108,-2.3108,-2.3108,-2.3108,-2.3108,-2.3108,-2.3108,-2.3108,-2.3108,-2.3108,-2.2696,-2.1986,-2.1656,-2.0743,-1.9504,-1.9008,-1.7858,-1.6567,-1.6356,-1.6312,-1.6306,-1.6355,-1.7022,-1.7854,-1.8159,-1.8676,-1.9198,-1.9388,-1.9539,-1.961,-1.961,-1.944,-1.9129,-1.8497,-1.7908,-1.7382,-1.6959,-1.6579,-1.6377,-1.6479,-1.6457,-1.6334,-1.6128,-1.5736,-1.5277,-1.4772,-1.4235,-1.3766,-1.3438,-1.3104,-1.2905,-1.2905,-1.2905,-1.2609,-1.1916,-1.1479,-1.0754,-0.9631,-0.8891,-0.8259,-0.7758,-0.7352,-0.7144,-0.7144,-0.7043,-0.7,-0.7,-0.7,-0.7,-0.7,-0.7,-0.7024,-1.4406,-1.5,-1.5566,-1.6037,-1.596,-1.5696,-1.536,-1.4829,-1.4309,-1.391,-1.3615,-1.3353,-1.3148,-1.3769,-1.4259,-1.4131,-1.5003,-1.5739,-1.5902,-1.6142,-1.6376,-1.6604,-1.687,-1.7095,-1.7245,-1.822,-1.9253,-2.0312,-2.0939,-2.1763,-2.2822,-2.2999,-2.3089,-2.3108,-2.3108,-2.3108,-2.3108,-2.3108,-2.3108,-2.3108,-2.3108,-2.3108,-2.3108,-2.3108,-2.3108,-2.3108,-2.3108,-2.3108,-2.3108,-2.3108,-2.3011,-2.2823,-2.2482,-2.1809,-2.0988,-2.0509,-1.902,-1.7167,-1.6521,-1.6513,-1.676,-1.6631,-1.7285,-1.8153,-1.8467,-1.906,-1.9584,-1.9584,-1.961,-1.961,-1.961,-1.9303,-1.8887,-1.8332,-1.7709,-1.7146,-1.6856,-1.6498,-1.6259,-1.6457,-1.6457,-1.6262,-1.5881,-1.5524,-1.5062,-1.4339,-1.3871,-1.3568,-1.3415,-1.3104,-1.2905,-1.2905,-1.2905,-1.2725,-1.2309,-1.1562,-1.0781,-1.0019,-0.9179,-0.8506,-0.8099,-0.7706,-0.7496,-0.7496,-0.7171,-0.7,-0.7,-0.7,-0.7,-0.7,-0.7,-0.7073,-1.462,-1.4982,-1.5278,-1.5748,-1.5669,-1.5367,-1.4926,-1.4396,-1.3881,-1.3486,-1.3291,-1.3162,-1.3007,-1.3415,-1.3835,-1.406,-1.4652,-1.525,-1.5709,-1.5841,-1.5961,-1.6105,-1.6564,-1.6886,-1.6944,-1.812,-1.9259,-2.0203,-2.1102,-2.2009,-2.2841,-2.3017,-2.3108,-2.3108,-2.3108,-2.3108,-2.3108,-2.3108,-2.3108,-2.3108,-2.3108,-2.3108,-2.3108,-2.3108,-2.3108,-2.3108,-2.3108,-2.3108,-2.3108,-2.3108,-2.3023,-2.2854,-2.2426,-2.1882,-2.1198,-2.0372,-1.9392,-1.8385,-1.7642,-1.7133,-1.6827,-1.705,-1.7565,-1.8207,-1.8715,-1.9225,-1.961,-1.961,-1.9539,-1.944,-1.9251,-1.896,-1.8679,-1.8501,-1.7751,-1.7107,-1.7285,-1.6748,-1.6259,-1.6399,-1.6278,-1.5994,-1.5546,-1.5131,-1.4553,-1.3671,-1.3382,-1.321,-1.3089,-1.2968,-1.2905,-1.2905,-1.2905,-1.2705,-1.2204,-1.1771,-1.1066,-1.0058,-0.9382,-0.8822,-0.8318,-0.7956,-0.7772,-0.7772,-0.7472,-0.734,-0.7337,-0.7118,-0.7,-0.7,-0.7094,-0.7209,-1.4728,-1.5069,-1.5305,-1.5576,-1.5395,-1.5023,-1.4564,-1.4046,-1.3573,-1.3233,-1.3089,-1.3007,-1.2929,-1.3223,-1.3617,-1.4036,-1.4502,-1.4993,-1.5516,-1.5742,-1.5871,-1.5964,-1.6497,-1.6885,-1.6885,-1.8053,-1.9154,-1.9973,-2.0926,-2.1837,-2.2665,-2.2933,-2.3047,-2.3108,-2.3108,-2.3078,-2.3017,-2.3017,-2.2957,-2.2866,-2.2805,-2.2805,-2.2866,-2.2866,-2.2927,-2.3017,-2.3017,-2.3047,-2.3108,-2.3108,-2.3047,-2.2933,-2.2457,-2.1938,-2.1351,-2.0339,-1.9594,-1.8969,-1.8087,-1.7562,-1.7277,-1.7303,-1.7766,-1.834,-1.8747,-1.9139,-1.9454,-1.9454,-1.9336,-1.9131,-1.8913,-1.864,-1.8458,-1.856,-1.7965,-1.7411,-1.7618,-1.7093,-1.6532,-1.6414,-1.6132,-1.5774,-1.5316,-1.464,-1.3952,-1.3262,-1.3089,-1.3007,-1.2905,-1.2905,-1.2905,-1.2905,-1.2905,-1.2681,-1.2155,-1.1848,-1.1204,-1.0068,-0.9594,-0.9091,-0.8556,-0.8247,-0.809,-0.809,-0.7702,-0.751,-0.7487,-0.7168,-0.7,-0.7,-0.7143,-0.7318,-1.4821,-1.5269,-1.562,-1.5491,-1.5164,-1.472,-1.4269,-1.3747,-1.3324,-1.3099,-1.2949,-1.2871,-1.2871,-1.3179,-1.3594,-1.4031,-1.4482,-1.4917,-1.5376,-1.5831,-1.6105,-1.6129,-1.6676,-1.701,-1.701,-1.8016,-1.8961,-1.9614,-2.0435,-2.1353,-2.2328,-2.2702,-2.2933,-2.3078,-2.3078,-2.3023,-2.2878,-2.2878,-2.2696,-2.2359,-2.2247,-2.2247,-2.2359,-2.2359,-2.2537,-2.2885,-2.2878,-2.2963,-2.3078,-2.3108,-2.3108,-2.3041,-2.2567,-2.2056,-2.1491,-2.0446,-1.9649,-1.8975,-1.7948,-1.782,-1.7981,-1.7397,-1.7826,-1.8567,-1.8577,-1.8848,-1.916,-1.916,-1.896,-1.8738,-1.8593,-1.8323,-1.8172,-1.8512,-1.8283,-1.7978,-1.783,-1.7491,-1.703,-1.6477,-1.6029,-1.5586,-1.5102,-1.4118,-1.331,-1.3128,-1.2983,-1.2905,-1.2905,-1.2905,-1.2905,-1.2905,-1.2881,-1.2681,-1.2155,-1.1848,-1.1209,-1.0068,-0.9736,-0.9338,-0.8804,-0.854,-0.8394,-0.8419,-0.7836,-0.7534,-0.7534,-0.7198,-0.7023,-0.7023,-0.715,-0.7409,-1.507,-1.5151,-1.5096,-1.5068,-1.4646,-1.4142,-1.3823,-1.3459,-1.3024,-1.2536,-1.2397,-1.2374,-1.2374,-1.2457,-1.2876,-1.3934,-1.4202,-1.4673,-1.5777,-1.6021,-1.6217,-1.6519,-1.698,-1.7314,-1.7314,-1.7957,-1.8634,-1.9223,-2.0497,-2.1547,-2.221,-2.2586,-2.2793,-2.2933,-2.2854,-2.28,-2.2739,-2.2494,-2.2266,-2.2019,-2.1827,-2.1759,-2.1821,-2.1951,-2.2155,-2.2402,-2.2647,-2.2824,-2.2963,-2.3047,-2.3108,-2.3041,-2.2482,-2.1969,-2.1459,-2.0204,-1.9468,-1.8988,-1.8179,-1.7821,-1.771,-1.7559,-1.768,-1.7983,-1.8171,-1.8462,-1.8741,-1.8741,-1.8521,-1.8246,-1.8116,-1.7942,-1.7953,-1.8479,-1.8283,-1.7997,-1.7963,-1.7474,-1.6856,-1.6236,-1.5367,-1.4599,-1.4059,-1.353,-1.3123,-1.2978,-1.2929,-1.2905,-1.2905,-1.2905,-1.2905,-1.2905,-1.2803,-1.2578,-1.215,-1.1673,-1.1006,-1.0068,-0.9562,-0.9099,-0.8656,-0.8488,-0.8453,-0.8551,-0.816,-0.8029,-0.8167,-0.7631,-0.7373,-0.737,-0.7405,-0.7716,-1.4937,-1.4857,-1.4663,-1.4611,-1.4217,-1.3747,-1.3491,-1.3092,-1.268,-1.228,-1.2052,-1.1934,-1.1934,-1.2072,-1.2564,0.0,0.0,0.0,-1.5909,-1.6261,-1.6519,-1.6968,-1.7397,-1.7656,-1.7656,-1.8035,-1.8477,-1.8936,-2.0036,-2.1008,-2.1694,-2.2068,-2.2359,-2.2586,-2.2531,-2.2371,-2.213,-2.1657,-2.1299,-2.1118,-2.0837,-2.0799,-2.0953,-2.1219,-2.1551,-2.1975,-2.2334,-2.2623,-2.2793,-2.2811,-2.2805,-2.2744,-2.2105,-2.162,-2.1129,-1.9911,-1.9264,-1.8875,-1.8245,-1.7914,-1.7767,-1.7708,-1.7724,-1.7795,-1.7887,-1.8012,-1.8127,-1.8127,-1.7925,-1.77,-1.7711,-1.77,-1.7871,-1.8539,-1.8613,-1.8446,-1.8139,-1.7753,-1.7093,-1.5829,-1.4915,-1.4134,-1.361,-1.3277,-1.3056,-1.2929,-1.2905,-1.2905,-1.2905,-1.2905,-1.2905,-1.2905,-1.2779,-1.2529,-1.2126,-1.1603,-1.093,-1.0068,-0.9488,-0.8998,-0.8524,-0.8371,-0.8348,-0.8424,-0.814,-0.8099,-0.826,-0.7872,-0.7669,-0.7688,-0.7846,-0.8209,-1.4558,-1.4494,-1.428,-1.4181,-1.3829,-1.3462,-1.3171,-1.2719,-1.2311,-1.2075,-1.1743,-1.1518,-1.1518,-1.1836,-1.2403,-1.3281,0.0,-1.4538,-1.5835,-1.6411,-1.6858,-1.7329,-1.7754,-1.8008,-1.8008,-1.8173,-1.8376,-1.8707,-1.9287,-2.0036,-2.097,-2.1356,-2.1694,-2.1968,-2.1999,-2.1763,-2.1262,-2.0651,-2.0231,-2.0042,-1.9698,-1.9698,-2.0009,-2.0339,-2.0848,-2.1496,-2.1919,-2.2272,-2.2555,-2.2389,-2.2322,-2.2223,-2.1583,-2.1146,-2.0737,-1.9671,-1.9059,-1.8707,-1.8178,-1.8008,-1.7973,-1.783,-1.7791,-1.7805,-1.7661,-1.7542,-1.7418,-1.7473,-1.7334,-1.7245,-1.7468,-1.7617,-1.7898,-1.8658,-1.9013,-1.9022,-1.8403,-1.8013,-1.7186,-1.5355,-1.4524,-1.3965,-1.3443,-1.3205,-1.3032,-1.2929,-1.2905,-1.2905,-1.2905,-1.2905,-1.2905,-1.2905,-1.2754,-1.25,-1.2105,-1.1578,-1.088,-0.9994,-0.9436,-0.887,-0.8342,-0.8165,-0.8088,-0.8115,-0.7952,-0.7949,-0.8148,-0.8001,-0.7962,-0.801,-0.8362,-0.8735,-1.4378,-1.4186,-1.391,-1.3886,-1.3541,-1.3067,-1.2649,-1.2376,0.0,0.0,-1.1079,-1.102,-1.102,-1.1403,-1.1985,-1.2871,-1.3633,-1.4431,-1.5395,-1.619,-1.6858,0.0,-1.7754,-1.8008,-1.8008,-1.8042,-1.8139,-1.8371,-1.8607,-1.9297,-2.0635,-2.0764,-2.0833,-2.0865,-2.0865,-2.079,-2.0592,-2.0134,-1.9813,-1.9665,-1.9341,-1.9269,-1.944,-1.9835,-2.0286,-2.079,-2.1331,-2.1683,-2.1876,-2.1957,-2.1883,-2.169,-2.1172,-2.0865,-2.0544,-1.9523,-1.8998,-1.8707,-1.8178,-1.8008,-1.7968,-1.7721,-1.7483,-1.7327,-1.7275,-1.7111,-1.6982,-1.7267,-1.7256,-1.7279,-1.7595,-1.775,-1.8045,-1.8774,-1.9087,-1.912,-1.8772,-1.7497,-1.6038,-1.4768,-1.4087,-1.3597,-1.3215,-1.3027,-1.2934,-1.2905,-1.2905,-1.2905,-1.2905,-1.2905,-1.2905,-1.2905,-1.2681,-1.2377,-1.1977,-1.1347,-1.0604,-0.9714,-0.907,-0.8441,-0.7857,-0.7574,-0.7499,-0.7628,-0.7709,-0.7949,-0.8348,-0.8161,-0.8202,-0.8482,-0.8618,-0.9085,-1.3847,-1.3681,-1.3472,-1.3445,-1.3215,-1.286,-1.2407,0.0,0.0,0.0,-1.0586,-1.0513,-1.0269,-1.0987,0.0,-1.2436,-1.3412,-1.4406,-1.5288,-1.6146,-1.6858,-1.7329,-1.7754,-1.8008,-1.8008,-1.8008,-1.8071,-1.8269,-1.8376,-1.8803,-1.9753,-1.9987,-2.0091,-2.0091,-1.9977,-1.9846,-1.9715,-1.932,-1.907,-1.8908,-1.8635,-1.864,-1.8913,-1.9308,-1.9791,-2.0366,-2.0715,-2.104,-2.1273,-2.106,-2.0927,-2.0767,-2.0258,-1.9977,-1.9726,-1.9037,-1.8674,-1.8477,-1.8144,-1.8008,-1.7939,-1.7604,-1.73,-1.7124,-1.718,-1.6907,-1.6648,-1.6959,-1.7117,-1.7301,-1.7788,-1.8094,-1.8419,-1.9066,-1.9037,-1.8741,-1.816,-1.6888,-1.5586,-1.4513,-1.3871,-1.3406,-1.3153,-1.2983,-1.2905,-1.2905,-1.2905,-1.2905,-1.2905,-1.2905,-1.2905,-1.2905,-1.2656,-1.2352,-1.1923,-1.1192,-1.0399,-0.954,-0.8788,-0.8099,-0.7405,-0.7141,-0.7006,-0.7082,-0.7345,-0.7694,-0.8146,-0.8274,-0.8526,-0.8818,-0.9116,-0.96,-1.3367,-1.3271,-1.3166,-1.3118,-1.3007,-1.2739,-1.2207,-1.1738,0.0,-1.0322,-1.0073,-0.9932,-0.9659,0.0,-1.1486,0.0,-1.3061,-1.4133,-1.4986,-1.5863,-1.6645,-1.7183,-1.7622,-1.7915,-1.7998,-1.8008,-1.8076,-1.8207,-1.824,-1.8438,-1.8942,-1.9274,-1.9407,-1.9379,-1.922,-1.9088,-1.897,-1.8645,-1.841,-1.8303,-1.811,-1.8178,-1.8477,-1.8808,-1.9297,-1.9906,-2.0063,-2.0296,-2.0528,-2.0101,-1.9901,-1.9841,-1.9375,-1.9154,-1.9037,-1.8645,-1.8448,-1.8371,-1.8144,-1.8012,-1.7846,-1.7523,-1.7182,-1.6961,-1.7023,-1.6717,-1.6397,-1.6784,-1.7111,-1.749,-1.8077,-1.8488,-1.8821,-1.9257,-1.8992,-1.8383,-1.7384,-1.6392,-1.5374,-1.4289,-1.3681,-1.3267,-1.3099,-1.2959,-1.2905,-1.2905,-1.2905,-1.2905,-1.2905,-1.2905,-1.2905,-1.2905,-1.2627,-1.2298,-1.1898,-1.1032,-1.0156,-0.9331,-0.8494,-0.7702,-0.6945,-0.6647,-0.6512,-0.6542,-0.6918,-0.7367,-0.7848,-0.8306,-0.8712,-0.911,-0.9588,-1.0079,-1.3213,-1.3166,-1.3099,-1.3109,-1.3007,-1.2685,-1.1839,0.0,-1.0728,-0.9849,-0.9372,-0.9211,-0.9534,-1.0049,-1.0684,-1.1511,0.0,-1.3291,-1.4104,-1.4962,-1.582,-1.6663,0.0,-1.7588,-1.7974,-1.8008,-1.8008,-1.8042,-1.8042,-1.8178,-1.8544,-1.8746,-1.8779,-1.8617,-1.8578,-1.8578,-1.8549,-1.841,-1.8303,-1.8303,-1.811,-1.811,-1.8303,-1.8477,-1.8779,-1.9198,-1.9342,-1.9403,-1.9436,-1.9398,-1.9314,-1.917,-1.8936,-1.8942,-1.9037,-1.8645,-1.8617,-1.8712,-1.8371,-1.7973,-1.7604,-1.7453,-1.7085,-1.6718,-1.6596,-1.6365,-1.6257,-1.6965,-1.7496,-1.7958,-1.8572,-1.8934,-1.916,-1.9212,-1.8977,-1.8421,-1.7051,-1.6196,-1.529,-1.3925,-1.3368,-1.308,-1.2929,-1.291,-1.2905,-1.2905,-1.2905,-1.2905,-1.2905,-1.2905,-1.2905,-1.2905,-1.2549,-1.215,-1.1748,-1.0812,-0.9832,-0.8906,-0.8054,-0.7173,-0.6317,-0.6018,-0.5939,-0.6055,-0.6327,-0.6893,-0.772,-0.8055,-0.8636,-0.9361,-0.9666,-1.031,-1.2933,-1.2992,-1.2954,-1.2881,-1.2832,-1.2527,-1.1517,0.0,-1.0676,-0.9278,-0.9346,-0.9558,-0.9243,-0.9991,-1.088,-1.1503,-1.2323,-1.3111,-1.3646,-1.4712,-1.5542,-1.5863,-1.6792,-1.7451,-1.7617,-1.7861,-1.8008,-1.8008,-1.8008,-1.8047,-1.8178,-1.8274,-1.8279,-1.8212,-1.8212,-1.8212,-1.8212,-1.8144,-1.811,-1.811,-1.8042,-1.811,-1.8303,-1.8376,-1.8578,-1.8908,-1.8836,-1.8898,-1.8993,-1.8793,-1.8664,-1.8607,-1.8539,-1.8539,-1.8607,-1.8516,-1.8549,-1.8538,-1.8067,-1.7759,-1.7493,-1.6816,-1.6501,-1.6325,-1.6371,-1.6305,-1.6343,-1.6932,-1.7589,-1.823,-1.8685,-1.8993,-1.916,-1.8993,-1.8437,-1.7647,-1.6469,-1.5605,-1.4701,-1.3585,-1.3224,-1.3056,-1.2929,-1.2905,-1.2905,-1.2905,-1.2905,-1.2905,-1.2905,-1.2905,-1.2905,-1.2905,-1.2529,-1.215,-1.1723,-1.0711,-0.9677,-0.8751,-0.7797,-0.6856,-0.5991,-0.5778,-0.57,-0.5757,-0.627,-0.6864,-0.7568,-0.8079,-0.8685,-0.9413,-0.9762,-1.0413,-1.2402,-1.258,-1.2627,-1.2554,-1.2405,-1.2054,-1.1175,-1.0839,-1.0319,-0.8985,-0.9211,-0.951,-0.9098,-0.9772,-1.0644,-1.1359,-1.1971,-1.2609,-1.3337,-1.4335,-1.5103,-1.5381,-1.6465,-1.7241,-1.7406,-1.7764,-1.8008,-1.8008,-1.8008,-1.8008,-1.8008,-1.8008,-1.8008,-1.8008,-1.8008,-1.8008,-1.8008,-1.8008,-1.8008,-1.8008,-1.8008,-1.8076,-1.8207,-1.8207,-1.8342,-1.8578,-1.8414,-1.8414,-1.8544,-1.8308,-1.8207,-1.8207,-1.8274,-1.8303,-1.8376,-1.8544,-1.8531,-1.8403,-1.7878,-1.7506,-1.7188,-1.6352,-1.6007,-1.5904,-1.5994,-1.613,-1.6348,-1.6904,-1.7733,-1.8506,-1.8792,-1.8907,-1.8827,-1.8425,-1.7692,-1.6802,-1.5738,-1.4935,-1.4169,-1.3319,-1.3109,-1.3002,-1.2929,-1.2905,-1.2905,-1.2905,-1.2905,-1.2905,-1.2905,-1.2905,-1.2905,-1.2905,-1.2529,-1.215,-1.1723,-1.0664,-0.9603,-0.8649,-0.761,-0.6645,-0.5775,-0.5561,-0.551,-0.5593,-0.6184,-0.6831,-0.7568,-0.8129,-0.8761,-0.9465,-0.9921,-1.0668,-1.1556,-1.1808,-1.2105,-1.2105,-1.1716,-1.1207,-1.0791,-1.0086,-0.9414,-0.9072,-0.8747,-0.8682,-0.9197,-0.9254,-0.9646,-1.0998,-1.115,-1.1643,-1.3093,-1.3703,-1.4368,-1.5284,-1.6166,-1.6877,-1.7339,-1.7764,-1.8008,-1.8008,-1.8008,-1.8008,-1.8008,-1.8008,-1.8008,-1.8008,-1.8008,-1.8008,-1.8008,-1.8008,-1.8008,-1.8008,-1.8008,-1.8008,-1.8008,-1.8008,-1.8013,-1.8008,-1.8013,-1.8013,-1.8008,-1.8008,-1.8008,-1.8008,-1.8207,-1.8376,-1.8511,-1.8707,-1.8621,-1.8349,-1.8027,-1.7318,-1.6558,-1.6216,-1.5801,-1.542,-1.542,-1.5734,-1.6257,-1.6988,-1.7969,-1.8825,-1.8966,-1.8667,-1.8124,-1.7379,-1.6791,-1.6089,-1.4883,-1.4284,-1.3836,-1.3213,-1.2978,-1.2905,-1.2905,-1.2905,-1.2905,-1.2905,-1.2905,-1.2905,-1.2905,-1.2905,-1.2905,-1.2905,-1.2529,-1.215,-1.1723,-1.0664,-0.9603,-0.8649,-0.7524,-0.6507,-0.5647,-0.5291,-0.5264,-0.5593,-0.5996,-0.6696,-0.7696,-0.8182,-0.8814,-0.9614,-1.0138,-1.1158,-1.0745,-1.099,-1.1043,-1.089,-1.075,-1.0438,-0.9759,-0.9598,-0.9393,-0.8734,-0.8976,-0.929,-0.9175,-0.9369,-0.9869,-1.0837,-1.0901,0.0,-1.283,-1.3504,-1.4111,-1.4771,-1.5955,-1.6984,-1.7739,-1.793,-1.8008,-1.8008,-1.8008,-1.8008,-1.8008,-1.8008,-1.8008,-1.8008,-1.8008,-1.8008,-1.8008,-1.8008,-1.8008,-1.8008,-1.8008,-1.8008,-1.8008,-1.8008,-1.8008,-1.8008,-1.8008,-1.8008,-1.8008,-1.8008,-1.8008,-1.8042,-1.8308,-1.8448,-1.8509,-1.8521,-1.8414,-1.8149,-1.7301,-1.6748,-1.6317,-1.5777,-1.5522,-1.541,-1.541,-1.5734,-1.6304,-1.7285,-1.7843,-1.8209,-1.8348,-1.8056,-1.756,-1.6827,-1.6025,-1.5201,-1.4357,-1.378,-1.3288,-1.3008,-1.2934,-1.2905,-1.2905,-1.2905,-1.2905,-1.2905,-1.2905,-1.2905,-1.2905,-1.2905,-1.2905,-1.2905,-1.2705,-1.2377,-1.1877,-1.0787,-0.9729,-0.8804,-0.7741,-0.6748,-0.5775,-0.5622,-0.5679,-0.5866,-0.6485,-0.7214,-0.8055,-0.8557,-0.9338,-1.0377,-1.1087,-1.188,0.0,-0.9777,-0.9892,-0.9887,-0.9779,-0.949,-0.8896,-0.889,-0.8895,-0.8517,-0.8894,-0.9257,-0.9183,-0.9381,-0.9776,-1.0485,-1.0573,-1.1051,-1.2444,-1.3288,-1.4223,-1.5403,-1.6314,-1.7143,-1.7944,-1.8008,-1.8008,-1.8008,-1.8008,-1.8008,-1.8008,-1.8008,-1.8008,-1.8008,-1.8008,-1.8008,-1.8008,-1.8008,-1.8008,-1.8008,-1.8008,-1.8008,-1.8008,-1.8008,-1.8008,-1.8008,-1.8008,-1.8008,0.0,-1.8008,-1.8008,-1.8042,-1.8313,-1.841,-1.8422,-1.826,-1.8064,-1.7697,-1.6804,-1.6297,-1.5994,-1.5561,-1.541,-1.5415,-1.5478,-1.5826,-1.6343,-1.7151,-1.7484,-1.7656,-1.7694,-1.7424,-1.6938,-1.6015,-1.5263,-1.4572,-1.3821,-1.3317,-1.3007,-1.2929,-1.2905,-1.2905,-1.2905,-1.2905,-1.2905,-1.2905,-1.2905,-1.2905,-1.2905,-1.2905,-1.2905,-1.2905,-1.2779,-1.2505,-1.2026,-1.1074,-1.0068,-0.9014,-0.8001,-0.7015,-0.6075,-0.5923,-0.5952,-0.6136,-0.6837,-0.7539,-0.8271,-0.9057,-0.9969,-1.0947,-1.1653,-1.2309,0.0,-0.8298,-0.8681,-0.8981,-0.8785,-0.8426,-0.8179,-0.8036,0.0,-0.8409,-0.8539,-0.8732,-0.9193,-0.9282,-0.947,-0.9987,-1.0188,-1.0747,-1.2031,-1.3138,-1.4632,-1.6828,-1.7091,-1.7325,-1.793,-1.8008,-1.8008,-1.8008,-1.8008,-1.8008,-1.8008,-1.8008,-1.8008,-1.8008,-1.8008,-1.8008,-1.8008,-1.8008,-1.8008,-1.8008,-1.8008,-1.8008,-1.8008,-1.8008,-1.8008,-1.8008,-1.8008,-1.8008,-1.8008,-1.8008,-1.8008,-1.8013,-1.8207,-1.8288,-1.8204,-1.7953,-1.7548,-1.7054,-1.6456,-1.6009,-1.5643,-1.5449,-1.541,-1.5444,-1.5609,-1.5956,-1.6348,-1.6666,-1.6948,-1.7106,-1.6983,-1.6729,-1.6255,-1.505,-1.4581,-1.4136,-1.3273,-1.2983,-1.2905,-1.2905,-1.2905,-1.2905,-1.2905,-1.2905,-1.2905,-1.2905,-1.2905,-1.2905,-1.2905,-1.2905,-1.2905,-1.2905,-1.2783,-1.2554,-1.215,-1.1435,-1.049,-0.929,-0.8287,-0.7355,-0.6463,-0.6191,-0.6191,-0.6463,-0.7104,-0.7774,-0.8501,-0.9651,-1.0612,-1.1326,-1.1852,-1.2446,-0.6156,0.0,-0.7615,-0.7597,-0.7564,-0.751,0.0,-0.744,-0.7625,0.0,0.0,-0.8628,-0.9003,-0.9153,-0.9374,-0.9796,-1.0102,-1.0785,-1.2165,-1.375,-1.5335,-1.69,-1.7091,-1.7325,-1.793,-1.8008,-1.8008,-1.8008,-1.8008,-1.8008,-1.8008,-1.8008,-1.8008,-1.8008,-1.8008,-1.8008,-1.8008,-1.8008,-1.8008,-1.8008,-1.8008,-1.8008,-1.8008,-1.8008,-1.8008,-1.8008,-1.8008,-1.8008,-1.8008,-1.8008,-1.8008,-1.8013,-1.8207,-1.8066,-1.7747,-1.7443,-1.7003,-1.6436,-1.6004,-1.5693,-1.5449,-1.541,-1.541,-1.5415,-1.5449,-1.571,-1.6023,-1.6195,-1.6376,-1.6485,-1.6337,-1.6189,-1.5799,-1.4733,-1.4337,-1.3964,-1.3116,-1.2929,-1.2905,-1.2905,-1.2905,-1.2905,-1.2905,-1.2905,-1.2905,-1.2905,-1.2905,-1.2905,-1.2905,-1.2905,-1.2905,-1.2905,-1.2876,-1.2656,-1.215,-1.1573,-1.0702,-0.9439,-0.8653,-0.7803,-0.6823,-0.6714,-0.6817,-0.7074,-0.8093,-0.8837,-0.9331,-1.0168,-1.0867,-1.1477,-1.2002,-1.2588,-0.5635,-0.6251,-0.6862,-0.6939,-0.72,-0.7355,-0.7079,0.0,0.0,0.0,0.0,-0.8482,-0.8985,-0.9262,-0.9495,-0.9874,-1.0442,-1.1456,-1.322,-1.45,-1.5767,-1.7121,-1.7288,-1.748,-1.7949,-1.8008,-1.8008,-1.8008,-1.8008,-1.8008,-1.8008,-1.8008,-1.8008,-1.8008,-1.8008,-1.8008,-1.8008,-1.8008,-1.8008,-1.8008,-1.8008,-1.8008,-1.8008,-1.8008,-1.8008,-1.8008,-1.8008,-1.8008,-1.8008,-1.8008,-1.8008,-1.7988,-1.7927,-1.7734,-1.7448,-1.6906,-1.6489,-1.6157,-1.5723,-1.5478,-1.541,-1.541,-1.541,-1.541,-1.541,-1.5526,-1.57,-1.586,-1.6014,-1.6105,-1.5951,-1.586,-1.5553,-1.4518,-1.4167,-1.388,-1.3061,-1.2905,-1.2905,-1.2905,-1.2905,-1.2905,-1.2905,-1.2905,-1.2905,-1.2905,-1.2905,-1.2905,-1.2905,-1.2905,-1.2905,-1.2905,-1.2832,-1.2627,-1.215,-1.1603,-1.0804,-0.9666,-0.8965,-0.8176,-0.7303,-0.7147,-0.7281,-0.7699,-0.8504,-0.911,-0.9514,-1.0223,-1.0841,-1.1423,-1.2026,-1.2588,-0.5635,-0.6006,-0.6417,-0.6814,-0.7279,-0.7547,-0.7107,0.0,0.0,0.0,0.0,0.0,0.0,-0.9512,0.0,-1.0193,-1.113,-1.2494,-1.4434,-1.521,-1.6038,-1.7276,-1.7496,-1.7637,-1.7979,-1.8008,-1.8008,-1.8008,-1.8008,-1.8008,-1.8008,-1.8008,-1.8008,-1.8008,-1.8008,-1.8008,-1.8008,-1.8008,-1.8008,-1.8008,-1.8008,-1.8008,-1.8008,-1.8008,-1.8008,-1.8008,-1.8008,-1.8008,-1.8008,-1.7939,-1.7915,-1.7876,-1.7446,-1.7246,-1.7122,-1.6369,-1.6051,-1.5938,-1.5542,-1.541,-1.541,-1.541,-1.541,-1.541,-1.541,-1.541,-1.5444,-1.5609,-1.573,-1.5793,-1.5672,-1.5643,-1.5407,-1.4429,-1.4153,-1.3899,-1.3145,-1.2949,-1.2905,-1.2905,-1.2905,-1.2905,-1.2905,-1.2905,-1.2905,-1.2905,-1.2905,-1.2905,-1.2905,-1.2905,-1.2881,-1.2876,-1.2759,-1.2505,-1.2076,-1.1578,-1.0854,-0.9869,-0.9194,-0.8517,-0.7803,-0.7574,-0.7711,-0.8245,-0.8646,-0.9008,-0.9413,-1.0061,-1.0706,-1.1322,-1.1977,-1.2549,-0.5635,-0.6077,-0.6612,-0.7232,-0.743,-0.7544,-0.7893,0.0,0.0,0.0,0.0,0.0,0.0,-0.991,-1.0492,-1.0873,-1.2216,-1.3557,-1.4625,-1.5453,-1.6234,-1.7063,-1.7466,-1.7755,-1.7974,-1.8008,-1.8008,-1.8008,-1.8008,-1.8008,-1.8008,-1.8008,-1.8008,-1.8008,-1.8008,-1.8008,-1.8008,-1.8008,-1.8008,-1.8008,-1.8008,-1.8008,-1.8008,-1.8008,-1.8008,-1.8008,-1.8008,-1.8008,-1.7978,-1.7627,-1.748,-1.7441,-1.7002,-1.6597,-1.6276,-1.6144,-1.5855,-1.5503,-1.5435,-1.541,-1.541,-1.541,-1.541,-1.541,-1.541,-1.541,-1.5415,-1.5444,-1.5449,-1.5473,-1.5444,-1.5444,-1.5322,-1.48,-1.4399,-1.3977,-1.3516,-1.313,-1.2905,-1.2905,-1.2905,-1.2905,-1.2905,-1.2905,-1.2905,-1.2905,-1.2905,-1.2905,-1.2905,-1.2905,-1.2856,-1.273,-1.2603,-1.2328,-1.1803,-1.1372,-1.0753,-0.9865,-0.9283,-0.8715,-0.8138,-0.8189,-0.8315,-0.8524,-0.8821,-0.911,-0.9413,-1.0061,-1.0706,-1.1322,-1.1977,-1.2549,-0.5846,-0.6237,-0.6741,-0.7784,-0.809,-0.8241,-0.8523,0.0,0.0,0.0,0.0,0.0,0.0,0.0,-1.1166,-1.2235,-1.3236,-1.4198,-1.5092,-1.5541,-1.6026,-1.6659,-1.7119,-1.7446,-1.7671,-1.7876,-1.8008,-1.8008,-1.8008,-1.7915,-1.7686,-1.7676,-1.7563,-1.7291,-1.7287,-1.7287,-1.7287,-1.7287,-1.7516,-1.8008,-1.8008,-1.8008,-1.8008,-1.8008,-1.7886,-1.7676,-1.7676,-1.7539,-1.7267,-1.7114,-1.7031,-1.6987,-1.6543,-1.6245,-1.6065,-1.5826,-1.5586,-1.541,-1.541,-1.541,-1.541,-1.541,-1.541,-1.541,-1.541,-1.541,-1.541,-1.541,-1.541,-1.541,-1.541,-1.541,-1.5303,-1.4888,-1.4453,-1.3992,-1.3599,-1.3179,-1.2905,-1.2905,-1.2905,-1.2905,-1.2905,-1.2905,-1.2905,-1.2905,-1.2905,-1.2905,-1.2905,-1.2905,-1.2856,-1.27,-1.2451,-1.2101,-1.1623,-1.0989,-1.0297,-0.9514,-0.905,-0.8633,-0.8321,-0.8448,-0.855,-0.86,-0.8798,-0.9035,-0.9286,-0.9899,-1.0494,-1.1099,-1.1927,-1.2539,-0.593,-0.627,-0.6753,-0.8049,-0.8569,-0.8838,-0.9121,-0.9614,0.0,0.0,0.0,0.0,0.0,-1.1248,-1.2052,-1.3407,-1.4068,-1.4695,-1.5465,-1.5642,-1.588,-1.629,-1.6714,-1.7086,-1.7231,-1.7519,-1.771,-1.771,-1.771,-1.7573,-1.7246,-1.7231,-1.7075,-1.6711,-1.6702,-1.6702,-1.6702,-1.6702,-1.7033,-1.771,-1.771,-1.771,-1.771,-1.771,-1.7539,-1.7231,-1.7231,-1.7041,-1.6692,-1.659,-1.6546,-1.6533,-1.6114,-1.5938,-1.5899,-1.5537,-1.541,-1.541,-1.541,-1.541,-1.541,-1.541,-1.541,-1.541,-1.541,-1.541,-1.541,-1.541,-1.541,-1.541,-1.541,-1.541,-1.5332,-1.5005,-1.4521,-1.4021,-1.37,-1.3247,-1.2905,-1.2905,-1.2905,-1.2905,-1.2905,-1.2905,-1.2905,-1.2905,-1.2905,-1.2905,-1.2905,-1.2876,-1.2783,-1.2627,-1.2224,-1.1723,-1.1158,-1.0399,-0.9732,-0.9185,-0.884,-0.8606,-0.8504,-0.8633,-0.8682,-0.8682,-0.885,-0.9084,-0.9338,-0.9899,-1.049,-1.1099,-1.1972,-1.2657,-0.5641,-0.6023,-0.6577,-0.768,-0.8331,0.0,-0.9814,-1.0038,0.0,-1.0212,0.0,0.0,0.0,-1.2198,-1.3321,-1.3868,-1.4628,-1.5216,-1.5396,-1.5776,-1.6074,-1.6108,-1.6473,-1.6741,-1.6746,-1.6775,-1.6794,-1.6794,-1.6794,-1.678,-1.6746,-1.6746,-1.6731,-1.6702,-1.6702,-1.6702,-1.6702,-1.6702,-1.6731,-1.6794,-1.6794,-1.6794,-1.6794,-1.6794,-1.6775,-1.6746,-1.6746,-1.6731,-1.6668,-1.631,-1.6144,-1.61,-1.563,-1.5459,-1.5454,-1.5425,-1.541,-1.541,-1.541,-1.541,-1.541,-1.541,-1.541,-1.541,-1.541,-1.541,-1.541,-1.541,-1.541,-1.541,-1.541,-1.541,-1.5376,-1.5371,-1.4704,-1.4099,-1.4065,-1.3452,-1.2905,-1.2905,-1.2905,-1.2905,-1.2905,-1.2905,-1.2905,-1.2905,-1.2905,-1.2905,-1.2905,-1.2779,-1.2627,-1.2352,-1.1852,-1.1108,-1.002,-0.9517,-0.9188,-0.9035,-0.888,-0.8778,-0.8781,-0.8906,-0.8982,-0.8982,-0.9234,-0.9488,-0.9762,-1.0374,-1.0994,-1.1648,-1.2289,-1.2919,-0.5707,-0.6097,-0.6577,-0.7738,-0.83,0.0,0.0,-1.0252,-1.0507,-1.0649,-1.0959,-1.1313,-1.1554,-1.2635,-1.3612,-1.3936,-1.4756,-1.5337,-1.5386,-1.5552,-1.5659,-1.5659,-1.605,-1.6313,-1.6313,-1.6536,-1.6702,-1.6702,-1.6702,-1.658,-1.6333,-1.6313,-1.6191,-1.5888,-1.5883,-1.5883,-1.5883,-1.5883,-1.5883,-1.5888,-1.6439,-1.6702,-1.6702,-1.6702,-1.6551,-1.6313,-1.6313,-1.6162,-1.5868,-1.5728,-1.5659,-1.5644,-1.5478,-1.541,-1.541,-1.541,-1.541,-1.541,-1.541,-1.541,-1.541,-1.541,-1.541,-1.541,-1.541,-1.541,-1.541,-1.541,-1.541,-1.541,-1.541,-1.541,-1.541,-1.541,-1.4728,-1.4109,-1.4109,-1.3472,-1.2905,-1.2905,-1.2905,-1.2905,-1.2905,-1.2905,-1.2905,-1.2905,-1.2905,-1.2856,-1.2783,-1.2656,-1.2426,-1.2081,-1.1242,-1.0374,-0.9618,-0.926,-0.9008,-0.8883,-0.8834,-0.8808,-0.8808,-0.8936,-0.9035,-0.9136,-0.9387,-0.9695,-1.0061,-1.0561,-1.1175,-1.1848,-1.252,-1.3218,-0.5546,-0.5949,-0.6388,-0.7557,0.0,0.0,-0.946,-1.0128,-1.0622,-1.0886,-1.1291,-1.1683,-1.2088,-1.3002,-1.38,-1.4133,-1.4861,-1.541,-1.541,-1.5362,-1.5337,-1.5337,-1.557,-1.5779,-1.5809,-1.6051,-1.6231,-1.6287,-1.6283,-1.6182,-1.5904,-1.5884,-1.5718,-1.5425,-1.541,-1.541,-1.541,-1.541,-1.541,-1.542,-1.5995,-1.6283,-1.6283,-1.6283,-1.6147,-1.5884,-1.5884,-1.5688,-1.541,-1.541,-1.541,-1.541,-1.541,-1.541,-1.541,-1.541,-1.541,-1.541,-1.541,-1.541,-1.541,-1.541,-1.541,-1.541,-1.541,-1.541,-1.5381,-1.5254,-1.521,-1.5186,-1.5015,-1.5176,-1.5376,-1.5244,-1.463,-1.4075,-1.3938,-1.3384,-1.2905,-1.2905,-1.2905,-1.2905,-1.2905,-1.2905,-1.2905,-1.2905,-1.2856,-1.2783,-1.2652,-1.2455,-1.2101,-1.1523,-1.0629,-0.988,-0.9436,-0.9159,-0.8959,-0.8857,-0.8857,-0.8857,-0.8857,-0.911,-0.9312,-0.9439,-0.9851,-1.0263,-1.0659,-1.112,-1.1689,-1.2383,-1.3021,-1.3684,-0.5101,-0.5504,-0.5963,0.0,0.0,0.0,-0.8794,-0.9629,-1.0372,-1.0961,-1.1622,-1.2207,-1.2625,-1.3346,-1.4053,-1.4528,-1.5051,-1.541,-1.541,-1.5288,-1.5215,-1.5215,-1.5093,-1.5063,-1.5186,-1.5215,-1.5264,-1.5386,-1.541,-1.541,-1.541,-1.541,-1.541,-1.541,-1.541,-1.541,-1.541,-1.541,-1.541,-1.541,-1.541,-1.541,-1.541,-1.541,-1.541,-1.541,-1.541,-1.541,-1.541,-1.541,-1.541,-1.541,-1.541,-1.541,-1.541,-1.541,-1.541,-1.541,-1.541,-1.541,-1.541,-1.541,-1.541,-1.541,-1.541,-1.541,-1.5317,-1.4902,-1.4808,-1.4678,-1.4221,-1.4733,-1.5293,-1.4878,-1.4448,-1.3987,-1.3599,-1.3179,-1.2905,-1.2905,-1.2905,-1.2905,-1.2905,-1.2905,-1.2905,-1.2905,-1.2779,-1.2656,-1.2505,-1.215,-1.1523,-1.0594,-1.0087,-0.9688,-0.9439,-0.9159,-0.9012,-0.9012,-0.9012,-0.9012,-0.9008,-0.9514,-0.9865,-0.9991,-1.0727,-1.1297,-1.1698,-1.2105,-1.2681,-1.3415,-1.3813,-1.4398,-0.4939,-0.5554,0.0,-0.7019,0.0,0.0,0.0,-0.9192,0.0,0.0,-1.0901,-1.1451,-1.1904,-1.277,-1.3555,-1.402,-1.4686,-1.5113,-1.5113,-1.4961,-1.4902,-1.5034,-1.4907,-1.4907,-1.5181,-1.5215,-1.5264,-1.5386,-1.541,-1.541,-1.541,-1.541,-1.541,-1.541,-1.541,-1.541,-1.541,-1.541,-1.541,-1.541,-1.541,-1.541,-1.541,-1.541,-1.541,-1.541,-1.541,-1.541,-1.541,-1.541,-1.541,-1.541,-1.541,-1.541,-1.541,-1.541,-1.541,-1.541,-1.541,-1.541,-1.541,-1.541,-1.541,-1.541,-1.541,-1.5205,-1.4946,-1.4819,-1.4565,-1.4275,-1.4143,-1.4294,-1.4455,-1.4333,-1.4004,-1.3662,-1.3535,-1.3179,-1.2905,-1.2905,-1.2905,-1.2905,-1.2905,-1.2905,-1.2856,-1.2779,-1.2656,-1.2352,-1.1723,-1.1297,-1.0871,-1.0423,-1.0025,-0.9762,-0.9688,-0.9524,-0.9413,-0.9413,-0.9603,-0.9528,-0.9159,-0.9662,-1.005,-1.0289,-1.1011,-1.1573,-1.1977,-1.2343,-1.2919,-1.3692,-1.4131,-1.4749,-0.4635,-0.5237,0.0,-0.6683,-0.7126,-0.7591,-0.8442,0.0,0.0,-1.0007,-1.059,-1.1207,-1.1826,-1.2634,-1.3403,-1.3859,-1.4361,-1.467,-1.467,-1.4483,-1.4389,-1.4517,-1.4359,-1.4355,-1.47,-1.4734,-1.4813,-1.503,-1.503,-1.5059,-1.5118,-1.5118,-1.5181,-1.5308,-1.5308,-1.5362,-1.541,-1.541,-1.541,-1.541,-1.541,-1.541,-1.541,-1.541,-1.541,-1.541,-1.541,-1.541,-1.541,-1.541,-1.541,-1.541,-1.541,-1.541,-1.541,-1.541,-1.541,-1.541,-1.541,-1.541,-1.541,-1.541,-1.5298,-1.5161,-1.5161,-1.4863,-1.4492,-1.4326,-1.4092,-1.3821,-1.3651,-1.3612,-1.3651,-1.3817,-1.3691,-1.3462,-1.3296,-1.3057,-1.2905,-1.2905,-1.2905,-1.2905,-1.2905,-1.2905,-1.2852,-1.273,-1.2352,-1.1823,-1.104,-1.0637,-1.0364,-1.0213,-1.0054,-0.9999,-1.0158,-1.0017,-0.9928,-0.9928,-1.0065,-1.0069,-0.9855,-1.0259,-1.0668,-1.0985,-1.1644,-1.2215,-1.2701,-1.3011,-1.3571,-1.4403,-1.4812,-1.5399,-0.4271,0.0,0.0,-0.6094,-0.6637,0.0,-0.8123,-0.8971,-0.9663,-0.9966,-1.0543,-1.1248,-1.2039,-1.2706,-1.3321,-1.3821,-1.4005,-1.41,-1.41,-1.3855,-1.3705,-1.3735,-1.3545,-1.3575,-1.3915,-1.3945,-1.4095,-1.4444,-1.4444,-1.4503,-1.4622,-1.4652,-1.4809,-1.5122,-1.5156,-1.5264,-1.5386,-1.5386,-1.541,-1.541,-1.541,-1.541,-1.541,-1.541,-1.541,-1.541,-1.541,-1.541,-1.541,-1.541,-1.541,-1.541,-1.541,-1.541,-1.541,-1.541,-1.541,-1.541,-1.541,-1.541,-1.5376,-1.5366,-1.5098,-1.478,-1.4736,-1.4419,-1.3973,-1.3588,-1.3477,-1.3364,-1.3003,-1.2905,-1.3003,-1.3359,-1.3452,-1.335,-1.2988,-1.2905,-1.2905,-1.2905,-1.2905,-1.2905,-1.2905,-1.2905,-1.2832,-1.2652,-1.1952,-1.1171,-1.048,-1.015,-0.9999,-1.0051,-1.018,-1.0407,-1.0748,-1.0608,-1.0527,-1.0531,-1.0553,-1.0676,-1.0947,-1.1217,-1.1548,-1.1952,-1.2475,-1.305,-1.3639,-1.3907,-1.4485,-1.5333,-1.5678,-1.6198,-0.3972,-0.461,0.0,0.0,-0.6505,-0.7332,-0.7765,-0.8279,-0.881,-0.9296,-0.9791,-1.0386,-1.1207,-1.1687,-1.2196,-1.2935,-1.3177,-1.3256,-1.3256,-1.3125,-1.3038,-1.3169,-1.3029,-1.3129,-1.3571,-1.3606,-1.3761,-1.4065,-1.41,-1.4125,-1.4155,-1.4245,-1.4419,-1.4627,-1.4907,-1.5122,-1.5235,-1.5362,-1.541,-1.541,-1.541,-1.541,-1.541,-1.541,-1.541,-1.541,-1.541,-1.541,-1.541,-1.541,-1.541,-1.541,-1.541,-1.541,-1.541,-1.541,-1.541,-1.541,-1.541,-1.541,-1.5356,-1.5024,-1.4858,-1.4722,-1.4348,-1.3953,-1.3623,-1.353,-1.3267,-1.3018,-1.293,-1.2905,-1.293,-1.3018,-1.3042,-1.3018,-1.2925,-1.2905,-1.2905,-1.2905,-1.2905,-1.2905,-1.2905,-1.2905,-1.27,-1.215,-1.1402,-1.0748,-1.0368,-1.0032,-0.9977,-1.0338,-1.062,-1.0922,-1.1297,-1.1368,-1.1473,-1.1569,-1.1669,-1.188,-1.2198,-1.1934,-1.1947,-1.2289,-1.2914,-1.3462,-1.3902,-1.424,-1.4795,-1.554,-1.5992,-1.6557,-0.3811,0.0,0.0,-0.5742,0.0,-0.7104,-0.7512,-0.7969,-0.8416,-0.8829,-0.9342,-0.9899,-1.0555,-1.0935,-1.1369,-1.2039,-1.2203,-1.2281,-1.2412,-1.2297,-1.2239,-1.2316,-1.227,-1.2363,-1.2658,-1.2685,-1.2781,-1.3025,-1.3025,-1.3121,-1.3277,-1.3511,-1.3725,-1.3981,-1.4369,-1.4672,-1.4898,-1.506,-1.5107,-1.5107,-1.5107,-1.5107,-1.5122,-1.5317,-1.541,-1.541,-1.541,-1.541,-1.541,-1.541,-1.541,-1.541,-1.541,-1.541,-1.541,-1.541,-1.5288,-1.5107,-1.5107,-1.4976,-1.4733,-1.4518,-1.4336,-1.4126,-1.3875,-1.354,-1.3203,-1.3203,-1.3052,-1.2905,-1.2905,-1.2905,-1.2905,-1.2905,-1.2905,-1.2905,-1.2905,-1.2905,-1.2905,-1.2905,-1.2905,-1.2905,-1.2905,-1.273,-1.2382,-1.1698,-1.1015,-1.0407,-1.0017,-0.9862,-0.9966,-1.0411,-1.0892,-1.1347,-1.1748,-1.1898,-1.2051,-1.2175,-1.2269,-1.2525,-1.2967,-1.2919,-1.3001,-1.3165,-1.3629,-1.4118,-1.4617,-1.4858,-1.5361,-1.6135,-1.6539,-1.7104,-0.3787,0.0,-0.5062,-0.5875,-0.6386,0.0,-0.7303,-0.7812,-0.8215,-0.8497,-0.8988,-0.9535,-1.0006,-1.0322,-1.0656,-1.1123,-1.1204,-1.1271,-1.1505,-1.1426,-1.1365,-1.1365,-1.1365,-1.1423,-1.1545,-1.1572,-1.1634,-1.1756,-1.1813,-1.1936,-1.2244,-1.2591,-1.2924,-1.3224,-1.3716,-1.4115,-1.4441,-1.4585,-1.4673,-1.4673,-1.4673,-1.4673,-1.4683,-1.5029,-1.5273,-1.541,-1.541,-1.541,-1.541,-1.541,-1.541,-1.541,-1.541,-1.5366,-1.5303,-1.5303,-1.5034,-1.4673,-1.4673,-1.4406,-1.4094,-1.4021,-1.3768,-1.3496,-1.3423,-1.3154,-1.2905,-1.2905,-1.2905,-1.2905,-1.2905,-1.2905,-1.2905,-1.2905,-1.2905,-1.2905,-1.2905,-1.2905,-1.2881,-1.2856,-1.2832,-1.2803,-1.2803,-1.2426,-1.1977,-1.1402,-1.0761,-1.0219,-0.9799,-0.9847,-1.0079,-1.0553,-1.1192,-1.1778,-1.218,-1.2328,-1.2475,-1.2618,-1.273,-1.3011,-1.3557,-1.3978,-1.4212,-1.4276,-1.4449,-1.4823,-1.5384,-1.5524,-1.5982,-1.6744,-1.7067,-1.7612,0.0,0.0,-0.5504,0.0,-0.6064,-0.6571,0.0,-0.756,-0.804,-0.8365,-0.8672,-0.9035,-0.9498,-0.9632,-0.9817,-1.0268,-1.035,-1.0364,-1.0407,-1.041,-1.0381,-1.0381,-1.0381,-1.0439,-1.0577,-1.0577,-1.0668,-1.0874,-1.0986,-1.1126,-1.1266,-1.1655,-1.2088,-1.2522,-1.3089,-1.3529,-1.3809,-1.4084,-1.4197,-1.4197,-1.4197,-1.4197,-1.4197,-1.425,-1.4684,-1.541,-1.541,-1.541,-1.541,-1.541,-1.541,-1.541,-1.541,-1.519,-1.4868,-1.4868,-1.4595,-1.4197,-1.4197,-1.4153,-1.4046,-1.368,-1.355,-1.3437,-1.3101,-1.2949,-1.2905,-1.2905,-1.2905,-1.2905,-1.2905,-1.2905,-1.2905,-1.2905,-1.2905,-1.2905,-1.2905,-1.2905,-1.2856,-1.2759,-1.2529,-1.2377,-1.2377,-1.1947,-1.1548,-1.1322,-1.0684,-1.0253,-1.036,-1.0352,-1.0578,-1.1267,-1.1748,-1.2175,-1.2583,-1.273,-1.289,-1.3098,-1.3324,-1.371,-1.4228,-1.4714,-1.5096,-1.5378,-1.5243,-1.5367,-1.572,-1.5863,-1.6256,-1.6876,-1.7152,-1.7707,-0.4249,-0.5081,-0.5697,0.0,-0.6277,-0.6652,-0.7028,-0.7503,-0.7981,-0.8338,-0.8616,-0.8874,-0.9082,-0.9106,-0.9231,-0.9582,-0.963,-0.972,-0.9891,-0.9911,-0.9911,-0.9911,-0.9911,-0.994,-0.9998,-0.9998,-1.0027,-1.0142,-1.0254,-1.0419,-1.064,-1.1262,-1.1706,-1.1995,-1.2681,-1.3159,-1.3461,-1.3675,-1.3753,-1.3753,-1.3753,-1.3753,-1.3768,-1.4002,-1.4309,-1.4669,-1.4669,-1.4669,-1.4669,-1.4669,-1.4669,-1.4669,-1.4669,-1.4552,-1.4419,-1.4419,-1.4124,-1.3753,-1.3753,-1.3628,-1.3398,-1.3218,-1.3154,-1.312,-1.2959,-1.2905,-1.2905,-1.2905,-1.2905,-1.2905,-1.2905,-1.2905,-1.2905,-1.2905,-1.2905,-1.2905,-1.2905,-1.2832,-1.2705,-1.2426,-1.2204,-1.2026,-1.1877,-1.1598,-1.1322,-1.1099,-1.0667,-1.0441,-1.0594,-1.0641,-1.0913,-1.1553,-1.1972,-1.2352,-1.2676,-1.2832,-1.2988,-1.3194,-1.3438,-1.3876,-1.4482,-1.4829,-1.5193,-1.5659,-1.5686,-1.5834,-1.6138,-1.6197,-1.6515,-1.708,-1.7304,-1.7821,0.0,0.0,-0.5825,-0.6081,-0.6388,-0.6689,0.0,-0.7429,-0.7907,-0.8262,-0.856,-0.8748,-0.8808,-0.8808,-0.8851,-0.9068,-0.9104,-0.9178,-0.9432,-0.9462,-0.9462,-0.9462,-0.9462,-0.9462,-0.9462,-0.9462,-0.9462,-0.9462,-0.9622,-0.9841,-1.0111,-1.0839,-1.1354,-1.1587,-1.2263,-1.2756,-1.3087,-1.3269,-1.335,-1.335,-1.3324,-1.3299,-1.3309,-1.3538,-1.363,-1.3666,-1.3963,-1.4109,-1.4109,-1.4109,-1.4109,-1.4109,-1.4109,-1.4046,-1.3948,-1.3948,-1.368,-1.335,-1.335,-1.3145,-1.2905,-1.2905,-1.2905,-1.2905,-1.2905,-1.2905,-1.2905,-1.2905,-1.2905,-1.2905,-1.2905,-1.2905,-1.2905,-1.2905,-1.2905,-1.2881,-1.2856,-1.273,-1.248,-1.2076,-1.1803,-1.1573,-1.1347,-1.12,-1.1074,-1.1019,-1.0871,-1.0841,-1.107,-1.1238,-1.1489,-1.1898,-1.2249,-1.2524,-1.273,-1.2832,-1.2968,-1.3156,-1.3443,-1.3852,-1.4425,-1.4731,-1.5096,-1.5531,-1.5758,-1.6016,-1.6312,-1.6371,-1.6656,-1.7143,-1.7337,-1.7794,0.0,-0.5233,0.0,-0.5748,-0.6018,-0.6421,-0.6827,-0.7225,-0.7652,-0.8112,-0.8424,-0.8659,-0.8778,-0.8808,-0.8811,-0.8828,-0.8828,-0.8834,-0.8851,-0.8851,-0.8851,-0.8851,-0.8851,-0.8851,-0.8851,-0.8851,-0.8851,-0.8851,-0.9079,-0.9358,-0.9613,-1.0226,-1.0792,-1.1302,-1.1855,-1.2257,-1.2533,-1.2812,-1.2939,-1.2939,-1.2812,-1.2734,-1.2739,-1.2503,-1.2389,-1.246,-1.3601,-1.4109,-1.4109,-1.4109,-1.4109,-1.4109,-1.4109,-1.3865,-1.354,-1.354,-1.3276,-1.2939,-1.2939,-1.2925,-1.2905,-1.2905,-1.2905,-1.2905,-1.2905,-1.2905,-1.2905,-1.2905,-1.2905,-1.2905,-1.2905,-1.2905,-1.2905,-1.2905,-1.2905,-1.2856,-1.273,-1.2505,-1.22,-1.1798,-1.1297,-1.09,-1.0773,-1.062,-1.0697,-1.1196,-1.1439,-1.1681,-1.2082,-1.2359,-1.256,-1.2652,-1.2779,-1.2876,-1.2881,-1.2905,-1.2954,-1.3104,-1.3416,-1.3729,-1.4019,-1.4582,-1.4977,-1.5131,-1.5395,-1.5686,-1.601,-1.6284,-1.6577,-1.6918,-1.7122,-1.7516,0.0,0.0,0.0,-0.548,-0.5778,-0.6119,-0.639,-0.6871,-0.7354,-0.7783,-0.8132,-0.8398,-0.8636,-0.8748,-0.8808,-0.8808,-0.8808,-0.8808,-0.8808,-0.8808,-0.8808,-0.8808,-0.8808,-0.8808,-0.8808,-0.8808,-0.8808,-0.8808,-0.8959,-0.9188,-0.9462,-1.0091,-1.0688,-1.1272,-1.1902,-1.2402,-1.2754,-1.2852,-1.2856,-1.2779,-1.2627,-1.248,-1.2303,-1.213,-1.2002,-1.1941,-1.2374,-1.2707,-1.2962,-1.3123,-1.3199,-1.3199,-1.33,-1.3237,-1.3101,-1.3101,-1.3013,-1.2905,-1.2905,-1.2905,-1.2905,-1.2905,-1.2905,-1.2905,-1.2905,-1.2905,-1.2905,-1.2905,-1.2905,-1.2905,-1.2905,-1.2905,-1.2905,-1.2905,-1.2905,-1.2856,-1.273,-1.2426,-1.2002,-1.1427,-1.0943,-1.0594,-1.047,-1.0437,-1.0684,-1.1385,-1.1767,-1.2153,-1.2652,-1.2798,-1.2871,-1.2885,-1.289,-1.2905,-1.2905,-1.2905,-1.2954,-1.308,-1.3238,-1.3462,-1.3729,-1.4035,-1.4269,-1.4398,-1.4663,-1.5102,-1.5746,-1.5834,-1.6092,-1.6524,-1.6582,-1.6839,-0.4363,0.0,0.0,0.0,-0.5373,-0.5608,-0.5889,-0.6272,-0.671,-0.7285,-0.76,-0.7922,-0.8375,-0.8537,-0.8646,-0.8781,-0.8808,-0.8808,-0.8808,-0.8808,-0.8808,-0.8808,-0.8808,-0.8808,-0.8808,-0.8808,-0.8808,-0.8808,-0.8933,-0.911,-0.9387,-0.9988,-1.0706,-1.1548,-1.2081,-1.2529,-1.2905,-1.2856,-1.2783,-1.2627,-1.2406,-1.215,-1.1902,-1.1623,-1.1423,-1.1263,-1.1263,-1.1623,-1.2175,-1.2406,-1.2549,-1.2656,-1.2779,-1.2856,-1.2905,-1.2905,-1.2905,-1.2905,-1.2905,-1.2905,-1.2905,-1.2905,-1.2905,-1.2905,-1.2905,-1.2905,-1.2905,-1.2905,-1.2905,-1.2905,-1.2905,-1.2905,-1.2905,-1.2905,-1.2905,-1.2856,-1.273,-1.2426,-1.1977,-1.1297,-1.0794,-1.0415,-1.0239,-1.0399,-1.0842,-1.1742,-1.2429,-1.3029,-1.3503,-1.3603,-1.3537,-1.3237,-1.3089,-1.2939,-1.2779,-1.2808,-1.2876,-1.2954,-1.3079,-1.3238,-1.3416,-1.3578,-1.3687,-1.3737,-1.3941,-1.431,-1.4801,-1.5175,-1.5557,-1.591,-1.5842,-1.5834,0.0,0.0,0.0,0.0,-0.4822,-0.4897,-0.5346,-0.5472,-0.573,-0.6583,-0.6872,-0.7215,-0.8024,-0.8162,-0.8301,-0.8702,-0.8778,-0.8808,-0.8808,-0.8808,-0.8808,-0.8808,-0.8808,-0.8808,-0.8808,-0.8808,-0.8808,-0.8808,-0.8933,-0.911,-0.9387,-0.9936,-1.0808,-1.2076,-1.2382,-1.2627,-1.2881,-1.2754,-1.2627,-1.248,-1.2076,-1.1723,-1.1444,-1.0922,-1.0565,-1.0374,-1.0374,-1.0935,-1.1852,-1.2026,-1.2254,-1.2505,-1.2652,-1.2779,-1.2905,-1.291,-1.291,-1.291,-1.2905,-1.2905,-1.2905,-1.2905,-1.2905,-1.2905,-1.2905,-1.2905,-1.2905,-1.2905,-1.2905,-1.2905,-1.2905,-1.2905,-1.2905,-1.2905,-1.2905,-1.2856,-1.273,-1.248,-1.2101,-1.1448,-1.0812,-1.0326,-1.0076,-1.0482,-1.1187,-1.2262,-1.3401,-1.4279,-1.4675,-1.4829,-1.4559,-1.3687,-1.3343,-1.3006,-1.2524,-1.2603,-1.2681,-1.2681,-1.2929,-1.3085,-1.3085,-1.3267,-1.3319,-1.3189,-1.329,-1.329,-1.3165,-1.4294,-1.4915,-1.5034,-1.4898,-1.447,-0.4208,0.0,0.0,0.0,0.0,0.0,-0.4524,-0.4811,-0.522,-0.5744,-0.6155,-0.662,-0.7206,-0.7527,-0.7785,-0.8096,-0.8441,-0.8689,-0.8778,-0.8808,-0.8808,-0.8808,-0.8808,-0.8808,-0.8808,-0.8808,-0.8808,-0.8808,-0.8933,-0.911,-0.9387,-1.0421,-1.1368,-1.2224,-1.2505,-1.2681,-1.2754,-1.2627,-1.2402,-1.2051,-1.1548,-1.1057,-1.0529,-1.0105,-0.9777,-0.9547,-0.9647,-0.9998,-1.058,-1.146,-1.2026,-1.2382,-1.273,-1.2963,-1.3108,-1.307,-1.3032,-1.3032,-1.2929,-1.2905,-1.2905,-1.2905,-1.2905,-1.2905,-1.2905,-1.2905,-1.2905,-1.2905,-1.2905,-1.2905,-1.2905,-1.2905,-1.2905,-1.2905,-1.2832,-1.2759,-1.2705,-1.248,-1.2126,-1.1548,-1.107,-1.0744,-1.0663,-1.1137,-1.19,-1.3019,-1.4029,-1.4795,-1.5096,-1.4994,-1.4536,-1.3557,-1.3137,-1.273,-1.2249,-1.2323,-1.2402,-1.2402,-1.2656,-1.2803,-1.2803,-1.2866,-1.2837,-1.271,-1.2632,-1.2535,-1.2412,-1.3261,-1.3697,-1.3724,-1.3391,-1.298,-0.4331,-0.4106,-0.3827,-0.395,0.0,0.0,-0.3985,-0.42,-0.4536,-0.5033,-0.538,-0.5794,-0.6418,-0.6778,-0.7066,-0.7393,-0.7776,-0.8176,-0.851,-0.8643,-0.8718,-0.8718,-0.8778,-0.8808,-0.8808,-0.8808,-0.8808,-0.8808,-0.8933,-0.9237,-0.9777,-1.0804,-1.1678,-1.2278,-1.2505,-1.2627,-1.2627,-1.2377,-1.2026,-1.1548,-1.093,-1.0307,-0.9677,-0.9272,-0.8972,-0.8794,-0.9047,-0.938,-0.9843,-1.093,-1.1698,-1.2249,-1.2622,-1.2973,-1.3271,-1.3248,-1.3181,-1.3133,-1.3027,-1.2959,-1.2905,-1.2905,-1.2905,-1.2905,-1.2905,-1.2905,-1.2905,-1.2905,-1.2905,-1.2905,-1.2905,-1.2905,-1.2881,-1.2832,-1.2754,-1.2681,-1.2554,-1.2402,-1.2175,-1.1753,-1.1402,-1.1175,-1.1221,-1.1792,-1.2594,-1.3661,-1.4618,-1.5249,-1.5406,-1.5062,-1.441,-1.3357,-1.2715,-1.2186,-1.1723,-1.1803,-1.1902,-1.1952,-1.2274,-1.2505,-1.2603,-1.2627,-1.2529,-1.2352,-1.2155,-1.1823,-1.1389,-1.2232,-1.2502,-1.2288,-1.1989,-1.1598,-0.4552,-0.4224,0.0,-0.3974,-0.3803,0.0,-0.3654,-0.3675,-0.3854,-0.4399,-0.4616,-0.4941,-0.5627,-0.5932,-0.6202,-0.6577,-0.6932,-0.7398,-0.8079,-0.8395,-0.8573,-0.8573,-0.8689,-0.8778,-0.8752,-0.8778,-0.8778,-0.8778,-0.8982,-0.9498,-1.0403,-1.1141,-1.1748,-1.2278,-1.2426,-1.2451,-1.2426,-1.2026,-1.1523,-1.0968,-1.0226,-0.9525,-0.8846,-0.8468,-0.8212,-0.8112,-0.8547,-0.8991,-0.9465,-1.0476,-1.1368,-1.2146,-1.253,-1.3011,-1.3491,-1.3462,-1.3391,-1.3247,-1.3162,-1.3032,-1.2929,-1.2905,-1.2905,-1.2905,-1.2905,-1.2905,-1.2905,-1.2905,-1.2905,-1.2905,-1.2881,-1.2881,-1.2832,-1.27,-1.2627,-1.2554,-1.2298,-1.2254,-1.218,-1.1952,-1.1723,-1.1603,-1.1748,-1.2393,-1.3217,-1.4186,-1.5039,-1.554,-1.5518,-1.4954,-1.4133,-1.2982,-1.2158,-1.1506,-1.1044,-1.112,-1.1272,-1.1423,-1.1823,-1.2175,-1.2426,-1.2451,-1.2328,-1.2051,-1.1698,-1.1112,-1.0297,-1.1149,-1.1337,-1.0864,-1.0712,-1.0393,-0.4214,-0.398,-0.3686,-0.3565,-0.3525,0.0,-0.3389,-0.3509,-0.3663,-0.3832,-0.4115,-0.4429,-0.4792,-0.5105,-0.5388,-0.5552,-0.5958,-0.6655,-0.7794,-0.8229,-0.8448,-0.8448,-0.855,-0.8606,-0.848,-0.858,-0.8629,-0.8629,-0.9253,-0.998,-1.0765,-1.1347,-1.1852,-1.2278,-1.2328,-1.2254,-1.2026,-1.1523,-1.0909,-1.0204,-0.9425,-0.8666,-0.7934,-0.7637,-0.7429,-0.7354,-0.8026,-0.8659,-0.9312,-1.0372,-1.135,-1.2252,-1.2851,-1.3481,-1.4035,-1.391,-1.3792,-1.3621,-1.33,-1.3128,-1.3032,-1.2929,-1.2905,-1.2905,-1.2905,-1.2905,-1.2905,-1.2905,-1.2905,-1.2881,-1.2783,-1.273,-1.2681,-1.2426,-1.2303,-1.2175,-1.1997,-1.1898,-1.1823,-1.1902,-1.1952,-1.2026,-1.215,-1.289,-1.3671,-1.4365,-1.4971,-1.5237,-1.4915,-1.4216,-1.3304,-1.2155,-1.1421,-1.0834,-1.0403,-1.0506,-1.071,-1.0998,-1.1498,-1.1902,-1.218,-1.2175,-1.2002,-1.1623,-1.0761,-1.0095,-0.9595,-0.9991,-1.0141,-1.0042,-0.9792,-0.9614,-0.4198,-0.3905,-0.3598,-0.3555,-0.3554,0.0,0.0,-0.3446,-0.3602,-0.3607,-0.3797,-0.4017,-0.4223,-0.4465,-0.4684,-0.4818,-0.5251,-0.5841,-0.6677,-0.7457,-0.7972,-0.8046,-0.8312,-0.8471,-0.8398,-0.8524,-0.8679,-0.8893,-0.9454,-1.0079,-1.0769,-1.1301,-1.1723,-1.1997,-1.1952,-1.1773,-1.1498,-1.088,-1.023,-0.9588,-0.8745,-0.8007,-0.7402,-0.719,-0.7112,-0.7163,-0.8096,-0.8912,-0.9688,-1.0889,-1.1978,-1.2943,-1.3341,-1.3884,-1.4443,-1.4361,-1.4192,-1.3947,-1.3539,-1.3272,-1.308,-1.2929,-1.2905,-1.2905,-1.2905,-1.2905,-1.2905,-1.2905,-1.2852,-1.2783,-1.2627,-1.2505,-1.2323,-1.2051,-1.1952,-1.1852,-1.1648,-1.1648,-1.1698,-1.1698,-1.1852,-1.213,-1.2524,-1.3099,-1.3718,-1.4312,-1.4566,-1.4532,-1.407,-1.3219,-1.2274,-1.1312,-1.0589,-1.0093,-0.9832,-0.9932,-1.0142,-1.0437,-1.1044,-1.1548,-1.1902,-1.1902,-1.1573,-1.0863,-1.0091,-0.9524,-0.9211,-0.9263,-0.9335,-0.9387,-0.926,-0.9162,-0.4273,-0.3957,-0.3612,-0.3699,-0.3682,-0.3581,0.0,0.0,0.0,-0.353,-0.3598,-0.3724,-0.3816,-0.3946,-0.4058,-0.4191,-0.4541,-0.4946,-0.5294,-0.6312,-0.7128,-0.746,-0.7939,-0.8236,-0.8213,-0.8364,-0.8599,-0.8963,-0.9413,-0.9932,-1.0511,-1.1082,-1.1452,-1.1573,-1.1427,-1.1221,-1.0922,-1.0204,-0.9588,-0.9077,-0.8223,-0.756,-0.7058,-0.6958,-0.6982,-0.719,-0.8352,-0.9317,-1.0214,-1.1586,-1.2793,-1.3758,-1.3909,-1.4328,-1.4823,-1.4823,-1.4587,-1.4228,-1.3781,-1.3416,-1.3099,-1.2954,-1.2905,-1.2905,-1.2905,-1.2905,-1.2881,-1.2856,-1.2754,-1.2627,-1.2426,-1.218,-1.1898,-1.1623,-1.1578,-1.1528,-1.1301,-1.1448,-1.1598,-1.1523,-1.1648,-1.2002,-1.2681,-1.3089,-1.3481,-1.399,-1.3962,-1.3687,-1.3086,-1.2199,-1.1321,-1.0542,-0.9887,-0.9465,-0.9335,-0.9439,-0.9647,-0.9943,-1.0663,-1.1221,-1.1603,-1.1523,-1.1036,-1.0142,-0.9599,-0.9211,-0.8959,-0.8857,-0.8857,-0.8959,-0.8959,-0.891,-0.4216,-0.4071,-0.3914,-0.3819,-0.379,-0.3729,-0.3609,0.0,-0.3597,-0.358,0.0,-0.3622,-0.3624,0.0,0.0,-0.3507,-0.3653,-0.3854,-0.4082,-0.4744,-0.5586,-0.6607,-0.7298,-0.7644,-0.7522,-0.7796,-0.8044,-0.8208,-0.8868,-0.9462,-0.9876,-1.0585,-1.1023,-1.1146,-1.0922,-1.0641,-1.03,-0.9625,-0.9077,-0.8653,-0.7913,-0.733,-0.6933,-0.6906,-0.7033,-0.7343,-0.8478,-0.9566,-1.064,-1.2115,-1.3321,-1.4256,-1.4509,-1.4863,-1.5222,-1.5222,-1.4943,-1.4482,-1.3962,-1.352,-1.3151,-1.2968,-1.2905,-1.2905,-1.2905,-1.2905,-1.2881,-1.2754,-1.2632,-1.2426,-1.2051,-1.1778,-1.1473,-1.1074,-1.1074,-1.1146,-1.1124,-1.1247,-1.1372,-1.1473,-1.1427,-1.1573,-1.2249,-1.274,-1.3064,-1.3136,-1.3131,-1.2856,-1.2081,-1.1359,-1.0639,-0.9965,-0.9514,-0.9185,-0.9057,-0.9162,-0.9413,-0.9792,-1.0498,-1.1049,-1.1322,-1.0837,-1.0344,-0.9843,-0.9312,-0.8982,-0.8834,-0.8808,-0.8808,-0.8834,-0.8834,-0.8804,-0.4206,-0.409,-0.3959,-0.3829,-0.3792,-0.3754,-0.3634,-0.3602,-0.3602,-0.3602,0.0,0.0,0.0,0.0,0.0,0.0,-0.3517,-0.3689,-0.3769,-0.4258,-0.4962,-0.5911,-0.6517,-0.6999,-0.7373,-0.7563,-0.7784,-0.8075,-0.8529,-0.9009,-0.9537,-0.9999,-1.0298,-1.0332,-1.016,-0.9884,-0.9502,-0.9001,-0.8682,-0.86,-0.8013,-0.775,-0.7759,-0.7759,-0.7963,-0.8343,-0.9459,-1.0458,-1.1412,-1.2798,-1.3839,-1.4577,-1.4994,-1.5305,-1.5514,-1.5357,-1.4989,-1.4529,-1.3986,-1.3539,-1.317,-1.2963,-1.2905,-1.2905,-1.2905,-1.2905,-1.2876,-1.273,-1.25,-1.2121,-1.1518,-1.1061,-1.0685,-1.0438,-1.0537,-1.0791,-1.1146,-1.1322,-1.1423,-1.1502,-1.1276,-1.1171,-1.1548,-1.2087,-1.2525,-1.2701,-1.2579,-1.2226,-1.1497,-1.085,-1.0194,-0.9517,-0.9234,-0.9035,-0.8906,-0.9012,-0.926,-0.9662,-1.0523,-1.1019,-1.1074,-1.0633,-1.0138,-0.9588,-0.9185,-0.8933,-0.8808,-0.8808,-0.8808,-0.8808,-0.8808,-0.8808,-0.4281,-0.42,-0.4094,-0.3902,-0.3855,-0.3805,-0.3645,-0.3602,-0.3602,-0.3602,-0.3602,0.0,0.0,0.0,-0.3466,-0.3334,0.0,-0.3563,-0.3583,-0.3932,-0.4457,-0.5197,-0.5741,-0.6317,-0.6981,-0.7097,-0.7283,-0.7668,-0.7971,-0.8403,-0.8956,-0.9322,-0.9508,-0.9479,-0.9337,-0.9103,-0.8771,-0.8398,-0.8338,-0.86,-0.8249,-0.8279,-0.8636,-0.8682,-0.8935,-0.934,-1.033,-1.1216,-1.2061,-1.3278,-1.416,-1.4737,-1.5164,-1.5401,-1.5452,-1.53,-1.4914,-1.443,-1.391,-1.3472,-1.3089,-1.2944,-1.2905,-1.2905,-1.2905,-1.2905,-1.2856,-1.2656,-1.2303,-1.1794,-1.0998,-1.0415,-0.9991,-0.9865,-1.009,-1.0499,-1.1112,-1.1372,-1.1473,-1.1398,-1.1074,-1.082,-1.0922,-1.1498,-1.2002,-1.22,-1.2101,-1.1753,-1.1074,-1.0539,-0.9969,-0.9263,-0.911,-0.8985,-0.8804,-0.8933,-0.9215,-0.9721,-1.0502,-1.09,-1.085,-1.045,-0.998,-0.9413,-0.911,-0.8906,-0.8808,-0.8808,-0.8808,-0.8808,-0.8808,-0.8808,-0.4482,-0.4479,-0.4404,-0.4085,-0.3987,-0.3913,-0.367,-0.3602,-0.3602,-0.3602,-0.3602,-0.3602,-0.3602,-0.3436,-0.3308,-0.3294,-0.3252,0.0,0.0,-0.3491,-0.3856,-0.4461,-0.5057,-0.5621,-0.61,-0.614,-0.6277,-0.6613,-0.7007,-0.7459,-0.792,-0.8506,-0.8763,-0.8652,-0.8518,-0.8374,-0.8221,-0.7889,-0.8013,-0.86,-0.8596,-0.8788,-0.9185,-0.9439,-0.971,-1.0012,-1.0842,-1.1641,-1.2463,-1.3408,-1.4167,-1.4703,-1.4858,-1.4932,-1.4932,-1.5057,-1.4737,-1.4152,-1.3758,-1.3291,-1.2905,-1.2905,-1.2905,-1.2905,-1.2905,-1.2905,-1.2832,-1.2426,-1.2026,-1.1489,-1.0474,-0.9913,-0.9588,-0.9462,-0.9814,-1.0375,-1.0989,-1.1322,-1.1423,-1.1146,-1.0799,-1.0518,-1.0522,-1.1074,-1.1523,-1.1523,-1.1648,-1.1473,-1.0794,-1.0466,-1.0029,-0.929,-0.9185,-0.9087,-0.8834,-0.8933,-0.9345,-1.0124,-1.0385,-1.0569,-1.0697,-1.0135,-0.9688,-0.9413,-0.9012,-0.8808,-0.8808,-0.8808,-0.8808,-0.8808,-0.8808,-0.8808,-0.4489,-0.4489,-0.4416,-0.4085,-0.394,-0.3767,-0.3415,-0.3257,-0.3192,-0.3192,-0.3192,-0.326,-0.3442,-0.3403,-0.3385,-0.3424,-0.3406,-0.3463,0.0,-0.3835,-0.4052,-0.4389,-0.4779,-0.5206,-0.5714,-0.5815,-0.604,-0.6557,-0.6814,-0.7183,-0.7729,-0.7951,-0.8058,-0.7999,-0.7789,-0.7608,-0.7461,-0.7545,-0.7963,-0.8725,-0.9093,-0.9692,-1.045,-1.0549,-1.0753,-1.1028,-1.1481,-1.188,-1.225,-1.2967,-1.3542,-1.4001,-1.4212,-1.4351,-1.4449,-1.4478,-1.4251,-1.3881,-1.3421,-1.3118,-1.2905,-1.2905,-1.2905,-1.2905,-1.2905,-1.2905,-1.2832,-1.2402,-1.1952,-1.1288,-1.0097,-0.9514,-0.9181,-0.9141,-0.9555,-1.0174,-1.104,-1.1297,-1.1322,-1.112,-1.0586,-1.018,-1.018,-1.0433,-1.0837,-1.1423,-1.1448,-1.1301,-1.0871,-1.0411,-0.987,-0.9263,-0.911,-0.8982,-0.8804,-0.9087,-0.9417,-0.9773,-1.0154,-1.0283,-1.0109,-0.9821,-0.9488,-0.9136,-0.8906,-0.8808,-0.8808,-0.8808,-0.8808,-0.8808,-0.8808,-0.8808,-0.441,-0.4384,-0.432,-0.3937,-0.3755,-0.3552,-0.3177,-0.2994,-0.2915,-0.296,-0.2972,-0.3079,-0.3357,-0.3409,-0.3438,-0.3541,-0.3564,-0.3659,0.0,-0.4015,-0.4126,-0.4272,-0.4453,-0.4756,-0.5263,-0.5358,-0.5687,-0.6406,-0.6539,-0.6831,-0.7385,-0.7425,-0.733,-0.7179,-0.7019,-0.6908,-0.6852,-0.7229,-0.7907,-0.8876,-0.9551,-1.0332,-1.1171,-1.1322,-1.1427,-1.1502,-1.1673,-1.1823,-1.1997,-1.2506,-1.3016,-1.3491,-1.3823,-1.4059,-1.4251,-1.4158,-1.3899,-1.3525,-1.3167,-1.2978,-1.2905,-1.2905,-1.2905,-1.2905,-1.2905,-1.2905,-1.2832,-1.2402,-1.1898,-1.1217,-0.9998,-0.9361,-0.9057,-0.9017,-0.9399,-1.0024,-1.0837,-1.1095,-1.107,-1.0778,-1.0245,-0.9862,-0.9862,-0.9936,-1.0271,-1.1095,-1.1171,-1.1049,-1.0688,-1.0223,-0.9732,-0.9185,-0.9057,-0.8933,-0.8804,-0.9084,-0.9309,-0.9439,-0.9784,-0.9888,-0.9666,-0.954,-0.9309,-0.9012,-0.8857,-0.8808,-0.8808,-0.8808,-0.8778,-0.8718,-0.8718,-0.8692]}]]